Donnes mto: Actuelle samedi, 30/09/2023 14:28
Date Horaire Temp. Ext. Temp. +10cm Temp. -10cm Temp. -30cm Temp. -50cm Hum. Ext. Hum.feuil. Hum.feuil. 2 Hum. -10cm Hum. -30cm Hum. -50cm Baro. Pluie Vent Direction Direction Ensoleilleme Ev.Tr. UV Solaire P. de rose Temp au vent Rafales
30/09/2023 14:28 19,1 C 19,4 C 17,2 C 16,7 C 16,7 C 65 % 0 lf 0 lf 24 cb 1 cb 2 cb 1025,9 hPa 0,0 mm 3,1 km/h (1 Bft) SE 144 2 min 0,000 mm 2,1 UV-I 320 W/m 12,4 C 19,1 C 6,4 km/h (2 Bft)
30/09/2023 14:26 18,9 C 18,9 C 17,2 C 16,7 C 16,7 C 65 % 0 lf 0 lf 24 cb 1 cb 2 cb 1026,0 hPa 0,0 mm 1,8 km/h (1 Bft) O-NO 286 2 min 0,000 mm 2,3 UV-I 320 W/m 12,2 C 18,9 C 3,2 km/h (1 Bft)
30/09/2023 14:24 19,1 C 18,9 C 17,2 C 16,7 C 16,7 C 65 % 0 lf 0 lf 24 cb 1 cb 2 cb 1026,0 hPa 0,0 mm 6,6 km/h (2 Bft) O-NO 283 0 min 0,000 mm 2,2 UV-I 271 W/m 12,4 C 19,0 C 9,7 km/h (2 Bft)
30/09/2023 14:22 19,2 C 19,4 C 17,2 C 16,7 C 16,7 C 65 % 0 lf 0 lf 24 cb 1 cb 2 cb 1026,1 hPa 0,0 mm 3,7 km/h (1 Bft) O 274 0 min 0,000 mm 1,9 UV-I 207 W/m 12,5 C 19,2 C 8,0 km/h (2 Bft)
30/09/2023 14:20 19,3 C 19,4 C 17,2 C 16,7 C 16,7 C 66 % 0 lf 0 lf 24 cb 1 cb 2 cb 1026,0 hPa 0,0 mm 3,3 km/h (1 Bft) O-SO 252 2 min 0,000 mm 2,0 UV-I 462 W/m 12,8 C 19,3 C 6,4 km/h (2 Bft)
30/09/2023 14:18 19,2 C 18,9 C 17,2 C 16,7 C 16,7 C 64 % 0 lf 0 lf 24 cb 1 cb 2 cb 1026,1 hPa 0,0 mm 1,7 km/h (1 Bft) S 172 2 min 0,000 mm 2,8 UV-I 476 W/m 12,2 C 19,2 C 4,8 km/h (1 Bft)
30/09/2023 14:16 19,2 C 18,9 C 17,2 C 16,7 C 16,7 C 65 % 0 lf 0 lf 24 cb 1 cb 2 cb 1026,0 hPa 0,0 mm 3,5 km/h (1 Bft) S 171 2 min 0,000 mm 2,9 UV-I 504 W/m 12,5 C 19,2 C 6,4 km/h (2 Bft)
30/09/2023 14:14 19,2 C 18,9 C 17,2 C 16,7 C 16,7 C 65 % 0 lf 0 lf 24 cb 1 cb 2 cb 1026,0 hPa 0,0 mm 6,3 km/h (2 Bft) S 176 2 min 0,000 mm 2,9 UV-I 517 W/m 12,5 C 19,2 C 9,7 km/h (2 Bft)
30/09/2023 14:12 19,2 C 18,9 C 17,2 C 16,7 C 16,7 C 66 % 0 lf 0 lf 24 cb 1 cb 2 cb 1026,0 hPa 0,0 mm 7,4 km/h (2 Bft) S-SO 204 2 min 0,000 mm 2,9 UV-I 519 W/m 12,7 C 18,8 C 11,3 km/h (2 Bft)
30/09/2023 14:10 19,0 C 18,9 C 17,2 C 16,7 C 16,7 C 67 % 0 lf 0 lf 24 cb 1 cb 2 cb 1026,0 hPa 0,0 mm 3,4 km/h (1 Bft) SO 222 2 min 0,000 mm 3,0 UV-I 566 W/m 12,7 C 19,0 C 6,4 km/h (2 Bft)
30/09/2023 14:08 18,8 C 18,3 C 17,2 C 16,7 C 16,7 C 66 % 0 lf 0 lf 24 cb 1 cb 2 cb 1026,1 hPa 0,0 mm 5,6 km/h (1 Bft) SO 234 2 min 0,000 mm 3,0 UV-I 578 W/m 12,3 C 18,8 C 8,0 km/h (2 Bft)
30/09/2023 14:06 18,7 C 18,3 C 17,2 C 16,7 C 16,7 C 65 % 0 lf 0 lf 24 cb 1 cb 2 cb 1026,1 hPa 0,0 mm 6,1 km/h (2 Bft) S 190 0 min 0,000 mm 2,9 UV-I 251 W/m 12,0 C 18,7 C 12,9 km/h (3 Bft)
30/09/2023 14:04 18,9 C 18,3 C 17,2 C 16,7 C 16,7 C 65 % 0 lf 0 lf 24 cb 1 cb 2 cb 1026,2 hPa 0,0 mm 3,5 km/h (1 Bft) S-SO 202 0 min 0,000 mm 2,1 UV-I 246 W/m 12,2 C 18,9 C 6,4 km/h (2 Bft)
30/09/2023 14:02 19,0 C 18,3 C 17,2 C 16,7 C 16,7 C 62 % 0 lf 0 lf 24 cb 1 cb 2 cb 1026,2 hPa 0,0 mm 1,5 km/h (1 Bft) NO 323 2 min 0,000 mm 2,7 UV-I 605 W/m 11,6 C 19,0 C 4,8 km/h (1 Bft)
30/09/2023 14:00 18,9 C 18,3 C 17,2 C 16,7 C 16,7 C 62 % 0 lf 0 lf 24 cb 1 cb 2 cb 1026,2 hPa 0,0 mm 5,4 km/h (1 Bft) O-NO 292 2 min 0,279 mm 2,3 UV-I 615 W/m 11,5 C 18,9 C 11,3 km/h (2 Bft)
30/09/2023 13:58 18,8 C 18,3 C 17,2 C 16,7 C 16,7 C 66 % 0 lf 0 lf 24 cb 1 cb 2 cb 1026,2 hPa 0,0 mm 4,4 km/h (1 Bft) O 281 2 min 0,000 mm 2,9 UV-I 612 W/m 12,3 C 18,8 C 9,7 km/h (2 Bft)
30/09/2023 13:56 18,6 C 18,3 C 17,2 C 16,7 C 16,7 C 67 % 0 lf 0 lf 24 cb 1 cb 2 cb 1026,2 hPa 0,0 mm 2,5 km/h (1 Bft) O 265 2 min 0,000 mm 2,2 UV-I 612 W/m 12,3 C 18,6 C 8,0 km/h (2 Bft)
30/09/2023 13:54 18,5 C 18,3 C 17,2 C 16,7 C 16,7 C 67 % 0 lf 0 lf 24 cb 1 cb 2 cb 1026,2 hPa 0,0 mm 1,3 km/h (1 Bft) S 180 2 min 0,000 mm 2,8 UV-I 580 W/m 12,3 C 18,5 C 3,2 km/h (1 Bft)
30/09/2023 13:52 18,6 C 17,8 C 17,2 C 16,7 C 16,7 C 67 % 0 lf 0 lf 24 cb 1 cb 2 cb 1026,2 hPa 0,0 mm 2,7 km/h (1 Bft) S 180 2 min 0,000 mm 2,6 UV-I 353 W/m 12,3 C 18,6 C 6,4 km/h (2 Bft)
30/09/2023 13:50 18,3 C 17,8 C 17,2 C 16,7 C 16,7 C 68 % 0 lf 0 lf 24 cb 1 cb 2 cb 1026,2 hPa 0,0 mm 3,1 km/h (1 Bft) S-SO 205 2 min 0,000 mm 2,7 UV-I 599 W/m 12,3 C 18,3 C 6,4 km/h (2 Bft)
30/09/2023 13:48 18,2 C 17,8 C 17,2 C 16,7 C 16,7 C 68 % 0 lf 0 lf 24 cb 1 cb 2 cb 1026,3 hPa 0,0 mm 5,9 km/h (2 Bft) NO 306 2 min 0,000 mm 2,6 UV-I 555 W/m 12,2 C 18,2 C 9,7 km/h (2 Bft)
30/09/2023 13:46 18,3 C 17,8 C 17,2 C 16,7 C 16,7 C 68 % 0 lf 0 lf 24 cb 1 cb 2 cb 1026,3 hPa 0,0 mm 8,0 km/h (2 Bft) O 277 0 min 0,000 mm 2,0 UV-I 232 W/m 12,3 C 17,6 C 14,5 km/h (3 Bft)
30/09/2023 13:44 18,4 C 17,8 C 17,2 C 16,7 C 16,7 C 69 % 0 lf 0 lf 24 cb 1 cb 2 cb 1026,2 hPa 0,0 mm 5,5 km/h (1 Bft) O-SO 257 0 min 0,000 mm 2,0 UV-I 221 W/m 12,6 C 18,4 C 11,3 km/h (2 Bft)
30/09/2023 13:42 18,5 C 17,8 C 17,2 C 16,7 C 16,7 C 68 % 0 lf 0 lf 24 cb 1 cb 2 cb 1026,2 hPa 0,0 mm 9,0 km/h (2 Bft) SO 236 0 min 0,000 mm 2,0 UV-I 218 W/m 12,5 C 17,4 C 12,9 km/h (3 Bft)
30/09/2023 13:40 18,5 C 17,8 C 17,2 C 16,7 C 16,7 C 69 % 0 lf 0 lf 24 cb 1 cb 2 cb 1026,2 hPa 0,0 mm 5,1 km/h (1 Bft) SO 215 2 min 0,000 mm 2,0 UV-I 587 W/m 12,7 C 18,5 C 11,3 km/h (2 Bft)
30/09/2023 13:38 18,4 C 17,8 C 17,2 C 16,7 C 16,7 C 69 % 0 lf 0 lf 24 cb 1 cb 2 cb 1026,2 hPa 0,0 mm 5,1 km/h (1 Bft) SO 226 2 min 0,000 mm 2,8 UV-I 587 W/m 12,6 C 18,4 C 8,0 km/h (2 Bft)
30/09/2023 13:36 18,4 C 17,8 C 17,2 C 16,7 C 16,7 C 68 % 0 lf 0 lf 24 cb 1 cb 2 cb 1026,1 hPa 0,0 mm 0,1 km/h (0 Bft) SO 236 0 min 0,000 mm 2,6 UV-I 239 W/m 12,4 C 18,4 C 1,6 km/h (1 Bft)
30/09/2023 13:34 18,7 C 17,8 C 17,2 C 16,7 C 16,7 C 66 % 0 lf 0 lf 24 cb 1 cb 2 cb 1026,1 hPa 0,0 mm 2,0 km/h (1 Bft) SO 236 0 min 0,000 mm 2,2 UV-I 211 W/m 12,2 C 18,7 C 4,8 km/h (1 Bft)
30/09/2023 13:32 18,9 C 17,8 C 17,2 C 16,7 C 16,7 C 68 % 0 lf 0 lf 24 cb 1 cb 2 cb 1026,1 hPa 0,0 mm 6,5 km/h (2 Bft) O-SO 238 2 min 0,000 mm 2,2 UV-I 591 W/m 12,9 C 18,9 C 11,3 km/h (2 Bft)
30/09/2023 13:30 18,8 C 17,8 C 17,2 C 16,7 C 16,7 C 68 % 0 lf 0 lf 24 cb 1 cb 2 cb 1026,0 hPa 0,0 mm 4,2 km/h (1 Bft) SO 215 2 min 0,000 mm 3,1 UV-I 603 W/m 12,8 C 18,8 C 9,7 km/h (2 Bft)
30/09/2023 13:28 18,9 C 17,8 C 17,2 C 16,7 C 16,7 C 67 % 0 lf 0 lf 24 cb 1 cb 2 cb 1026,0 hPa 0,0 mm 7,2 km/h (2 Bft) O-SO 256 2 min 0,000 mm 3,1 UV-I 608 W/m 12,6 C 18,5 C 11,3 km/h (2 Bft)
30/09/2023 13:26 19,0 C 17,8 C 17,2 C 16,7 C 16,7 C 69 % 0 lf 0 lf 24 cb 1 cb 2 cb 1026,0 hPa 0,0 mm 6,5 km/h (2 Bft) S-SO 194 2 min 0,000 mm 3,0 UV-I 568 W/m 13,2 C 19,0 C 9,7 km/h (2 Bft)
30/09/2023 13:24 18,8 C 17,2 C 17,2 C 16,7 C 16,7 C 68 % 0 lf 0 lf 24 cb 1 cb 2 cb 1026,1 hPa 0,0 mm 3,3 km/h (1 Bft) S-SO 211 2 min 0,000 mm 2,9 UV-I 568 W/m 12,8 C 18,8 C 6,4 km/h (2 Bft)
30/09/2023 13:22 18,7 C 17,2 C 17,2 C 16,7 C 16,7 C 69 % 0 lf 0 lf 24 cb 1 cb 2 cb 1026,0 hPa 0,0 mm 3,6 km/h (1 Bft) O-SO 248 2 min 0,000 mm 3,0 UV-I 541 W/m 12,9 C 18,7 C 8,0 km/h (2 Bft)
30/09/2023 13:20 18,9 C 17,2 C 17,2 C 16,7 C 16,7 C 68 % 0 lf 0 lf 24 cb 1 cb 2 cb 1026,1 hPa 0,0 mm 4,9 km/h (1 Bft) O-NO 286 2 min 0,000 mm 2,2 UV-I 575 W/m 12,9 C 18,9 C 8,0 km/h (2 Bft)
30/09/2023 13:18 18,7 C 17,2 C 17,2 C 16,7 C 16,7 C 69 % 0 lf 0 lf 24 cb 1 cb 2 cb 1026,1 hPa 0,0 mm 2,0 km/h (1 Bft) SO 233 2 min 0,000 mm 3,1 UV-I 568 W/m 12,9 C 18,7 C 4,8 km/h (1 Bft)
30/09/2023 13:16 18,4 C 17,2 C 17,2 C 16,7 C 16,7 C 69 % 0 lf 0 lf 24 cb 1 cb 2 cb 1026,2 hPa 0,0 mm 4,3 km/h (1 Bft) SO 236 2 min 0,000 mm 3,1 UV-I 564 W/m 12,6 C 18,4 C 6,4 km/h (2 Bft)
30/09/2023 13:14 18,4 C 17,2 C 17,2 C 16,7 C 16,7 C 68 % 0 lf 0 lf 24 cb 1 cb 2 cb 1026,2 hPa 0,0 mm 9,1 km/h (2 Bft) O-SO 246 2 min 0,000 mm 3,1 UV-I 545 W/m 12,4 C 17,2 C 12,9 km/h (3 Bft)
30/09/2023 13:12 18,6 C 17,2 C 17,2 C 16,7 C 16,7 C 67 % 0 lf 0 lf 24 cb 1 cb 2 cb 1026,3 hPa 0,0 mm 6,9 km/h (2 Bft) O-SO 248 2 min 0,000 mm 3,1 UV-I 552 W/m 12,3 C 18,4 C 12,9 km/h (3 Bft)
30/09/2023 13:10 18,6 C 17,2 C 17,2 C 16,7 C 16,7 C 67 % 0 lf 0 lf 24 cb 1 cb 2 cb 1026,3 hPa 0,0 mm 3,2 km/h (1 Bft) O-NO 290 2 min 0,000 mm 3,1 UV-I 536 W/m 12,3 C 18,6 C 8,0 km/h (2 Bft)
30/09/2023 13:08 18,7 C 17,2 C 17,2 C 16,7 C 16,7 C 66 % 0 lf 0 lf 24 cb 1 cb 2 cb 1026,4 hPa 0,0 mm 3,5 km/h (1 Bft) O 259 2 min 0,000 mm 3,1 UV-I 540 W/m 12,2 C 18,7 C 9,7 km/h (2 Bft)
30/09/2023 13:06 18,8 C 17,2 C 17,2 C 16,7 C 16,7 C 69 % 0 lf 0 lf 24 cb 1 cb 2 cb 1026,4 hPa 0,0 mm 5,2 km/h (1 Bft) O 274 2 min 0,000 mm 3,1 UV-I 540 W/m 13,0 C 18,8 C 8,0 km/h (2 Bft)
30/09/2023 13:04 18,8 C 16,7 C 17,2 C 16,7 C 16,7 C 70 % 0 lf 0 lf 24 cb 1 cb 2 cb 1026,4 hPa 0,0 mm 4,7 km/h (1 Bft) O-SO 242 2 min 0,000 mm 3,1 UV-I 541 W/m 13,2 C 18,8 C 11,3 km/h (2 Bft)
30/09/2023 13:02 18,7 C 16,7 C 17,2 C 16,7 C 16,7 C 70 % 0 lf 0 lf 24 cb 1 cb 2 cb 1026,5 hPa 0,0 mm 1,8 km/h (1 Bft) S-SO 196 2 min 0,000 mm 3,1 UV-I 541 W/m 13,1 C 18,7 C 4,8 km/h (1 Bft)
30/09/2023 13:00 18,4 C 16,7 C 17,2 C 16,7 C 16,7 C 68 % 0 lf 0 lf 24 cb 1 cb 2 cb 1026,6 hPa 0,0 mm 5,5 km/h (1 Bft) O 268 2 min 0,305 mm 3,1 UV-I 536 W/m 12,4 C 18,4 C 9,7 km/h (2 Bft)
30/09/2023 12:58 18,6 C 16,7 C 17,2 C 16,7 C 16,7 C 69 % 0 lf 0 lf 24 cb 1 cb 2 cb 1026,6 hPa 0,0 mm 4,0 km/h (1 Bft) O 266 2 min 0,000 mm 3,1 UV-I 541 W/m 12,8 C 18,6 C 9,7 km/h (2 Bft)
30/09/2023 12:56 18,4 C 16,7 C 17,2 C 16,7 C 16,7 C 69 % 0 lf 0 lf 24 cb 1 cb 2 cb 1026,5 hPa 0,0 mm 4,9 km/h (1 Bft) O 269 2 min 0,000 mm 3,0 UV-I 536 W/m 12,6 C 18,4 C 8,0 km/h (2 Bft)
30/09/2023 12:54 18,5 C 16,7 C 17,2 C 16,7 C 16,7 C 68 % 0 lf 0 lf 24 cb 1 cb 2 cb 1026,6 hPa 0,0 mm 5,5 km/h (1 Bft) O-NO 286 2 min 0,000 mm 3,0 UV-I 534 W/m 12,5 C 18,5 C 12,9 km/h (3 Bft)
30/09/2023 12:52 18,4 C 16,7 C 17,2 C 16,7 C 16,7 C 71 % 0 lf 0 lf 24 cb 1 cb 2 cb 1026,5 hPa 0,0 mm 3,7 km/h (1 Bft) O 271 2 min 0,000 mm 3,0 UV-I 529 W/m 13,0 C 18,4 C 9,7 km/h (2 Bft)
30/09/2023 12:50 18,2 C 16,7 C 17,2 C 16,7 C 16,7 C 72 % 0 lf 0 lf 24 cb 1 cb 2 cb 1026,6 hPa 0,0 mm 6,0 km/h (2 Bft) O 279 2 min 0,000 mm 2,9 UV-I 519 W/m 13,1 C 18,2 C 11,3 km/h (2 Bft)
30/09/2023 12:48 18,2 C 16,1 C 17,2 C 16,7 C 16,7 C 70 % 0 lf 0 lf 24 cb 1 cb 2 cb 1026,5 hPa 0,0 mm 6,6 km/h (2 Bft) O 279 2 min 0,000 mm 2,9 UV-I 513 W/m 12,6 C 18,1 C 11,3 km/h (2 Bft)
30/09/2023 12:46 18,2 C 16,1 C 17,2 C 16,7 C 16,7 C 71 % 0 lf 0 lf 24 cb 1 cb 2 cb 1026,5 hPa 0,0 mm 6,3 km/h (2 Bft) S 185 2 min 0,000 mm 2,9 UV-I 508 W/m 12,9 C 18,2 C 9,7 km/h (2 Bft)
30/09/2023 12:44 18,1 C 16,1 C 17,2 C 16,7 C 16,7 C 70 % 0 lf 0 lf 24 cb 1 cb 2 cb 1026,5 hPa 0,0 mm 5,8 km/h (2 Bft) SO 236 2 min 0,000 mm 2,9 UV-I 517 W/m 12,5 C 18,1 C 11,3 km/h (2 Bft)
30/09/2023 12:42 18,1 C 16,1 C 17,2 C 16,7 C 16,7 C 71 % 0 lf 0 lf 24 cb 1 cb 2 cb 1026,5 hPa 0,0 mm 7,0 km/h (2 Bft) SO 221 2 min 0,000 mm 2,9 UV-I 520 W/m 12,8 C 17,8 C 11,3 km/h (2 Bft)
30/09/2023 12:40 18,3 C 16,1 C 17,2 C 16,7 C 16,7 C 73 % 0 lf 0 lf 24 cb 1 cb 2 cb 1026,6 hPa 0,0 mm 6,4 km/h (2 Bft) SO 236 2 min 0,000 mm 2,9 UV-I 512 W/m 13,4 C 18,3 C 9,7 km/h (2 Bft)
30/09/2023 12:38 18,3 C 16,1 C 17,2 C 16,7 C 16,7 C 72 % 0 lf 0 lf 24 cb 1 cb 2 cb 1026,6 hPa 0,0 mm 4,7 km/h (1 Bft) O-SO 254 2 min 0,000 mm 2,9 UV-I 520 W/m 13,2 C 18,3 C 8,0 km/h (2 Bft)
30/09/2023 12:36 18,2 C 16,1 C 17,2 C 16,7 C 16,7 C 73 % 0 lf 0 lf 24 cb 1 cb 2 cb 1026,6 hPa 0,0 mm 2,5 km/h (1 Bft) O-SO 257 2 min 0,000 mm 2,9 UV-I 513 W/m 13,3 C 18,2 C 4,8 km/h (1 Bft)
30/09/2023 12:34 18,0 C 16,1 C 17,2 C 16,7 C 16,7 C 73 % 0 lf 0 lf 24 cb 1 cb 2 cb 1026,7 hPa 0,0 mm 5,4 km/h (1 Bft) SO 228 2 min 0,000 mm 2,8 UV-I 513 W/m 13,1 C 18,0 C 8,0 km/h (2 Bft)
30/09/2023 12:32 17,8 C 16,1 C 17,2 C 16,7 C 16,7 C 73 % 0 lf 0 lf 24 cb 1 cb 2 cb 1026,7 hPa 0,0 mm 6,0 km/h (2 Bft) SO 223 2 min 0,000 mm 2,8 UV-I 515 W/m 12,9 C 17,8 C 9,7 km/h (2 Bft)
30/09/2023 12:30 18,1 C 16,1 C 17,2 C 16,7 C 16,7 C 73 % 0 lf 0 lf 24 cb 1 cb 2 cb 1026,7 hPa 0,0 mm 9,0 km/h (2 Bft) O-SO 240 2 min 0,000 mm 2,8 UV-I 510 W/m 13,2 C 16,9 C 12,9 km/h (3 Bft)
30/09/2023 12:28 18,1 C 16,1 C 17,2 C 16,7 C 16,7 C 74 % 0 lf 0 lf 24 cb 1 cb 2 cb 1026,7 hPa 0,0 mm 3,9 km/h (1 Bft) S 190 2 min 0,000 mm 2,8 UV-I 512 W/m 13,4 C 18,1 C 6,4 km/h (2 Bft)
30/09/2023 12:26 17,9 C 16,1 C 17,2 C 16,7 C 16,7 C 73 % 0 lf 0 lf 24 cb 1 cb 2 cb 1026,7 hPa 0,0 mm 3,8 km/h (1 Bft) O-SO 237 2 min 0,000 mm 2,8 UV-I 504 W/m 13,0 C 17,9 C 4,8 km/h (1 Bft)
30/09/2023 12:24 17,7 C 16,1 C 17,2 C 16,7 C 16,7 C 74 % 0 lf 0 lf 24 cb 1 cb 2 cb 1026,8 hPa 0,0 mm 5,1 km/h (1 Bft) O 268 2 min 0,000 mm 2,8 UV-I 506 W/m 13,0 C 17,7 C 9,7 km/h (2 Bft)
30/09/2023 12:22 17,8 C 16,1 C 17,2 C 16,7 C 16,7 C 73 % 0 lf 0 lf 24 cb 1 cb 2 cb 1026,8 hPa 0,0 mm 7,1 km/h (2 Bft) O-SO 256 2 min 0,000 mm 2,7 UV-I 506 W/m 12,9 C 17,5 C 11,3 km/h (2 Bft)
30/09/2023 12:20 17,7 C 15,6 C 17,2 C 16,7 C 16,7 C 73 % 0 lf 0 lf 24 cb 1 cb 2 cb 1026,9 hPa 0,0 mm 4,3 km/h (1 Bft) SO 227 2 min 0,000 mm 2,7 UV-I 501 W/m 12,8 C 17,7 C 8,0 km/h (2 Bft)
30/09/2023 12:18 17,6 C 15,6 C 17,2 C 16,7 C 16,7 C 73 % 0 lf 0 lf 24 cb 1 cb 2 cb 1026,9 hPa 0,0 mm 7,9 km/h (2 Bft) SO 229 2 min 0,000 mm 2,7 UV-I 499 W/m 12,7 C 16,9 C 14,5 km/h (3 Bft)
30/09/2023 12:16 17,8 C 15,6 C 17,2 C 16,7 C 16,7 C 74 % 0 lf 0 lf 24 cb 1 cb 2 cb 1026,9 hPa 0,0 mm 7,0 km/h (2 Bft) SO 221 2 min 0,000 mm 2,7 UV-I 497 W/m 13,1 C 17,5 C 11,3 km/h (2 Bft)
30/09/2023 12:14 17,8 C 15,6 C 17,2 C 16,7 C 16,7 C 74 % 0 lf 0 lf 24 cb 1 cb 2 cb 1026,9 hPa 0,0 mm 6,4 km/h (2 Bft) S-SO 213 2 min 0,000 mm 2,7 UV-I 496 W/m 13,1 C 17,8 C 11,3 km/h (2 Bft)
30/09/2023 12:12 17,7 C 15,6 C 17,2 C 16,7 C 16,7 C 75 % 0 lf 0 lf 24 cb 1 cb 2 cb 1026,9 hPa 0,0 mm 3,3 km/h (1 Bft) O 277 2 min 0,000 mm 2,6 UV-I 490 W/m 13,2 C 17,7 C 9,7 km/h (2 Bft)
30/09/2023 12:10 17,7 C 15,6 C 17,2 C 16,7 C 16,7 C 74 % 0 lf 0 lf 24 cb 1 cb 2 cb 1026,9 hPa 0,0 mm 6,8 km/h (2 Bft) O-NO 282 2 min 0,000 mm 2,5 UV-I 469 W/m 13,0 C 17,5 C 11,3 km/h (2 Bft)
30/09/2023 12:08 17,8 C 15,6 C 17,2 C 16,7 C 16,7 C 75 % 0 lf 0 lf 24 cb 1 cb 2 cb 1026,9 hPa 0,0 mm 6,0 km/h (2 Bft) SO 221 2 min 0,000 mm 2,6 UV-I 483 W/m 13,3 C 17,8 C 8,0 km/h (2 Bft)
30/09/2023 12:06 17,7 C 15,6 C 17,2 C 16,7 C 16,7 C 76 % 0 lf 0 lf 24 cb 1 cb 2 cb 1026,9 hPa 0,0 mm 4,8 km/h (1 Bft) SO 231 2 min 0,000 mm 2,6 UV-I 490 W/m 13,4 C 17,7 C 11,3 km/h (2 Bft)
30/09/2023 12:04 17,4 C 15,6 C 17,2 C 16,7 C 16,7 C 77 % 0 lf 0 lf 24 cb 1 cb 2 cb 1026,9 hPa 0,0 mm 4,1 km/h (1 Bft) S-SO 204 2 min 0,000 mm 2,5 UV-I 485 W/m 13,3 C 17,4 C 6,4 km/h (2 Bft)
30/09/2023 12:02 17,3 C 15,6 C 17,2 C 16,7 C 16,7 C 76 % 0 lf 0 lf 24 cb 1 cb 2 cb 1027,0 hPa 0,0 mm 3,7 km/h (1 Bft) SO 232 2 min 0,000 mm 2,4 UV-I 480 W/m 13,0 C 17,3 C 8,0 km/h (2 Bft)
30/09/2023 12:00 17,3 C 15,0 C 17,2 C 16,7 C 16,7 C 77 % 0 lf 0 lf 24 cb 1 cb 2 cb 1027,1 hPa 0,0 mm 5,5 km/h (1 Bft) O 263 2 min 0,203 mm 2,5 UV-I 469 W/m 13,2 C 17,3 C 8,0 km/h (2 Bft)
30/09/2023 11:58 17,2 C 15,0 C 17,2 C 16,7 C 16,7 C 77 % 0 lf 0 lf 24 cb 1 cb 2 cb 1027,0 hPa 0,0 mm 6,8 km/h (2 Bft) O 259 2 min 0,000 mm 2,4 UV-I 469 W/m 13,1 C 17,0 C 14,5 km/h (3 Bft)
30/09/2023 11:56 17,2 C 15,0 C 17,2 C 16,7 C 16,7 C 76 % 0 lf 0 lf 24 cb 1 cb 2 cb 1027,1 hPa 0,0 mm 5,2 km/h (1 Bft) S-SO 194 2 min 0,000 mm 2,4 UV-I 466 W/m 12,9 C 17,2 C 9,7 km/h (2 Bft)
30/09/2023 11:54 17,1 C 15,0 C 17,2 C 16,7 C 16,7 C 78 % 0 lf 0 lf 24 cb 1 cb 2 cb 1027,1 hPa 0,0 mm 5,8 km/h (2 Bft) S 180 2 min 0,000 mm 2,4 UV-I 457 W/m 13,2 C 17,1 C 9,7 km/h (2 Bft)
30/09/2023 11:52 17,1 C 15,0 C 17,2 C 16,7 C 16,7 C 77 % 0 lf 0 lf 24 cb 1 cb 2 cb 1027,1 hPa 0,0 mm 3,8 km/h (1 Bft) SO 214 2 min 0,000 mm 2,3 UV-I 394 W/m 13,0 C 17,1 C 6,4 km/h (2 Bft)
30/09/2023 11:50 16,9 C 15,0 C 17,2 C 16,7 C 16,7 C 79 % 0 lf 0 lf 24 cb 1 cb 2 cb 1027,1 hPa 0,0 mm 4,1 km/h (1 Bft) O 273 2 min 0,000 mm 2,3 UV-I 439 W/m 13,2 C 16,9 C 9,7 km/h (2 Bft)
30/09/2023 11:48 16,7 C 15,0 C 17,2 C 16,7 C 16,7 C 79 % 0 lf 0 lf 24 cb 1 cb 2 cb 1027,1 hPa 0,0 mm 3,2 km/h (1 Bft) O-SO 257 2 min 0,000 mm 2,3 UV-I 431 W/m 13,0 C 16,7 C 8,0 km/h (2 Bft)
30/09/2023 11:46 16,8 C 15,0 C 17,2 C 16,7 C 16,7 C 78 % 0 lf 0 lf 24 cb 1 cb 2 cb 1027,1 hPa 0,0 mm 4,2 km/h (1 Bft) O-SO 250 2 min 0,000 mm 2,2 UV-I 420 W/m 12,9 C 16,8 C 6,4 km/h (2 Bft)
30/09/2023 11:44 16,6 C 15,0 C 17,2 C 16,7 C 16,7 C 79 % 1 lf 0 lf 24 cb 1 cb 2 cb 1027,1 hPa 0,0 mm 4,9 km/h (1 Bft) SO 223 2 min 0,000 mm 2,2 UV-I 429 W/m 12,9 C 16,6 C 8,0 km/h (2 Bft)
30/09/2023 11:42 16,5 C 15,0 C 17,2 C 16,7 C 16,7 C 78 % 3 lf 1 lf 24 cb 1 cb 2 cb 1027,1 hPa 0,0 mm 7,0 km/h (2 Bft) SO 233 2 min 0,000 mm 2,2 UV-I 431 W/m 12,6 C 16,2 C 11,3 km/h (2 Bft)
30/09/2023 11:40 16,6 C 15,0 C 17,2 C 16,7 C 16,7 C 79 % 9 lf 4 lf 24 cb 1 cb 2 cb 1027,1 hPa 0,0 mm 4,6 km/h (1 Bft) SO 224 2 min 0,000 mm 2,1 UV-I 366 W/m 12,9 C 16,6 C 6,4 km/h (2 Bft)
30/09/2023 11:38 16,5 C 15,0 C 17,2 C 16,7 C 16,7 C 80 % 12 lf 10 lf 24 cb 1 cb 2 cb 1027,0 hPa 0,0 mm 5,1 km/h (1 Bft) SO 224 2 min 0,000 mm 2,1 UV-I 410 W/m 13,0 C 16,5 C 8,0 km/h (2 Bft)
30/09/2023 11:36 16,3 C 14,4 C 17,2 C 16,7 C 16,7 C 80 % 14 lf 13 lf 24 cb 1 cb 2 cb 1027,0 hPa 0,0 mm 2,9 km/h (1 Bft) SO 236 2 min 0,000 mm 2,0 UV-I 396 W/m 12,8 C 16,3 C 4,8 km/h (1 Bft)
30/09/2023 11:34 16,2 C 14,4 C 17,2 C 16,7 C 16,7 C 81 % 14 lf 14 lf 24 cb 1 cb 2 cb 1027,1 hPa 0,0 mm 3,3 km/h (1 Bft) O-SO 245 2 min 0,000 mm 1,9 UV-I 339 W/m 12,9 C 16,2 C 6,4 km/h (2 Bft)
30/09/2023 11:32 16,3 C 14,4 C 17,2 C 16,7 C 16,7 C 80 % 15 lf 15 lf 24 cb 1 cb 2 cb 1027,0 hPa 0,0 mm 3,3 km/h (1 Bft) O-SO 240 2 min 0,000 mm 1,9 UV-I 373 W/m 12,8 C 16,3 C 4,8 km/h (1 Bft)
30/09/2023 11:30 16,2 C 14,4 C 17,2 C 16,7 C 16,7 C 80 % 15 lf 15 lf 24 cb 1 cb 2 cb 1027,1 hPa 0,0 mm 3,7 km/h (1 Bft) O-SO 254 2 min 0,000 mm 1,9 UV-I 348 W/m 12,7 C 16,2 C 6,4 km/h (2 Bft)
30/09/2023 11:28 16,2 C 14,4 C 17,2 C 16,7 C 16,7 C 81 % 15 lf 15 lf 24 cb 1 cb 2 cb 1027,1 hPa 0,0 mm 5,0 km/h (1 Bft) O 268 2 min 0,000 mm 1,8 UV-I 371 W/m 12,9 C 16,2 C 9,7 km/h (2 Bft)
30/09/2023 11:26 16,0 C 14,4 C 17,2 C 16,7 C 16,7 C 81 % 15 lf 15 lf 24 cb 1 cb 2 cb 1027,1 hPa 0,0 mm 2,9 km/h (1 Bft) O 263 2 min 0,000 mm 1,7 UV-I 309 W/m 12,7 C 16,0 C 8,0 km/h (2 Bft)
30/09/2023 11:24 16,0 C 14,4 C 17,2 C 16,7 C 16,7 C 80 % 15 lf 15 lf 24 cb 1 cb 2 cb 1027,1 hPa 0,0 mm 3,8 km/h (1 Bft) O 275 2 min 0,000 mm 1,7 UV-I 292 W/m 12,5 C 16,0 C 4,8 km/h (1 Bft)
30/09/2023 11:22 16,1 C 14,4 C 17,2 C 16,7 C 16,7 C 80 % 15 lf 15 lf 24 cb 1 cb 2 cb 1027,1 hPa 0,0 mm 4,1 km/h (1 Bft) O 264 2 min 0,000 mm 1,6 UV-I 306 W/m 12,6 C 16,1 C 8,0 km/h (2 Bft)
30/09/2023 11:20 16,2 C 14,4 C 17,2 C 16,7 C 16,7 C 79 % 15 lf 15 lf 24 cb 1 cb 2 cb 1027,1 hPa 0,0 mm 4,6 km/h (1 Bft) O-NO 287 0 min 0,000 mm 1,6 UV-I 260 W/m 12,6 C 16,2 C 9,7 km/h (2 Bft)
30/09/2023 11:18 16,3 C 14,4 C 17,2 C 16,7 C 16,7 C 80 % 15 lf 15 lf 24 cb 1 cb 2 cb 1027,0 hPa 0,0 mm 3,9 km/h (1 Bft) O-SO 253 2 min 0,000 mm 1,7 UV-I 348 W/m 12,8 C 16,3 C 8,0 km/h (2 Bft)
30/09/2023 11:16 16,2 C 14,4 C 17,2 C 16,7 C 16,7 C 82 % 15 lf 15 lf 24 cb 1 cb 2 cb 1026,9 hPa 0,0 mm 3,3 km/h (1 Bft) O-SO 254 2 min 0,000 mm 1,7 UV-I 369 W/m 13,1 C 16,2 C 8,0 km/h (2 Bft)
30/09/2023 11:14 16,0 C 14,4 C 17,2 C 16,7 C 16,7 C 82 % 15 lf 15 lf 24 cb 1 cb 2 cb 1027,0 hPa 0,0 mm 2,4 km/h (1 Bft) SO 231 2 min 0,000 mm 1,8 UV-I 401 W/m 12,9 C 16,0 C 3,2 km/h (1 Bft)
30/09/2023 11:12 15,8 C 13,9 C 17,2 C 16,7 C 16,7 C 82 % 15 lf 15 lf 24 cb 1 cb 2 cb 1027,0 hPa 0,0 mm 3,3 km/h (1 Bft) O-SO 250 2 min 0,000 mm 1,8 UV-I 420 W/m 12,7 C 15,8 C 6,4 km/h (2 Bft)
30/09/2023 11:10 15,8 C 13,9 C 17,2 C 16,7 C 16,7 C 83 % 15 lf 15 lf 24 cb 1 cb 2 cb 1027,0 hPa 0,0 mm 1,8 km/h (1 Bft) O 264 2 min 0,000 mm 1,8 UV-I 429 W/m 12,9 C 15,8 C 4,8 km/h (1 Bft)
30/09/2023 11:08 15,6 C 13,9 C 17,2 C 16,7 C 16,7 C 82 % 15 lf 15 lf 24 cb 1 cb 2 cb 1027,0 hPa 0,0 mm 1,8 km/h (1 Bft) O 269 2 min 0,000 mm 1,7 UV-I 373 W/m 12,5 C 15,6 C 4,8 km/h (1 Bft)
30/09/2023 11:06 15,6 C 13,9 C 17,2 C 16,7 C 16,7 C 82 % 15 lf 15 lf 24 cb 1 cb 2 cb 1026,9 hPa 0,0 mm 3,1 km/h (1 Bft) O 267 2 min 0,000 mm 1,7 UV-I 341 W/m 12,5 C 15,6 C 4,8 km/h (1 Bft)
30/09/2023 11:04 15,6 C 13,9 C 17,2 C 16,7 C 16,7 C 84 % 15 lf 15 lf 24 cb 1 cb 2 cb 1026,9 hPa 0,0 mm 3,1 km/h (1 Bft) O 269 2 min 0,000 mm 1,6 UV-I 420 W/m 12,9 C 15,6 C 8,0 km/h (2 Bft)
30/09/2023 11:02 15,3 C 13,9 C 17,2 C 16,7 C 16,7 C 83 % 15 lf 15 lf 24 cb 1 cb 2 cb 1026,9 hPa 0,0 mm 1,7 km/h (1 Bft) O 268 2 min 0,000 mm 1,6 UV-I 373 W/m 12,4 C 15,3 C 4,8 km/h (1 Bft)
30/09/2023 11:00 15,1 C 13,9 C 17,2 C 16,7 C 16,7 C 84 % 15 lf 15 lf 24 cb 1 cb 2 cb 1026,9 hPa 0,0 mm 2,6 km/h (1 Bft) S-SO 200 2 min 0,152 mm 1,6 UV-I 360 W/m 12,4 C 15,1 C 4,8 km/h (1 Bft)
30/09/2023 10:58 15,1 C 13,9 C 17,2 C 16,7 C 16,7 C 83 % 15 lf 15 lf 24 cb 1 cb 2 cb 1026,8 hPa 0,0 mm 2,2 km/h (1 Bft) S-SO 199 2 min 0,000 mm 1,4 UV-I 248 W/m 12,2 C 15,1 C 3,2 km/h (1 Bft)
30/09/2023 10:56 15,2 C 13,3 C 17,2 C 16,7 C 16,7 C 84 % 15 lf 15 lf 24 cb 1 cb 2 cb 1026,8 hPa 0,0 mm 1,6 km/h (1 Bft) S-SO 201 2 min 0,000 mm 1,4 UV-I 258 W/m 12,5 C 15,2 C 3,2 km/h (1 Bft)
30/09/2023 10:54 15,2 C 13,3 C 17,2 C 16,7 C 16,7 C 85 % 15 lf 15 lf 24 cb 1 cb 2 cb 1026,7 hPa 0,0 mm 1,4 km/h (1 Bft) S-SO 200 2 min 0,000 mm 1,4 UV-I 243 W/m 12,7 C 15,2 C 3,2 km/h (1 Bft)
30/09/2023 10:52 15,0 C 13,3 C 17,2 C 16,7 C 16,7 C 83 % 15 lf 15 lf 24 cb 1 cb 2 cb 1026,7 hPa 0,0 mm 2,2 km/h (1 Bft) S-SO 200 2 min 0,000 mm 1,5 UV-I 292 W/m 12,1 C 15,0 C 4,8 km/h (1 Bft)
30/09/2023 10:50 14,9 C 13,3 C 17,2 C 16,7 C 16,7 C 84 % 15 lf 15 lf 24 cb 1 cb 2 cb 1026,7 hPa 0,0 mm 4,1 km/h (1 Bft) S-SE 164 2 min 0,000 mm 1,5 UV-I 343 W/m 12,2 C 14,9 C 6,4 km/h (2 Bft)
30/09/2023 10:48 14,7 C 13,3 C 17,2 C 16,7 C 16,7 C 84 % 15 lf 15 lf 24 cb 1 cb 2 cb 1026,7 hPa 0,0 mm 4,2 km/h (1 Bft) SO 221 2 min 0,000 mm 1,4 UV-I 316 W/m 12,0 C 14,7 C 6,4 km/h (2 Bft)
30/09/2023 10:46 14,8 C 13,3 C 17,2 C 16,7 C 16,7 C 85 % 15 lf 15 lf 24 cb 1 cb 2 cb 1026,7 hPa 0,0 mm 4,2 km/h (1 Bft) SO 222 2 min 0,000 mm 1,4 UV-I 329 W/m 12,3 C 14,8 C 8,0 km/h (2 Bft)
30/09/2023 10:44 14,7 C 13,3 C 17,2 C 16,7 C 16,7 C 85 % 15 lf 15 lf 24 cb 1 cb 2 cb 1026,7 hPa 0,0 mm 2,8 km/h (1 Bft) O-SO 238 2 min 0,000 mm 1,4 UV-I 329 W/m 12,2 C 14,7 C 4,8 km/h (1 Bft)
30/09/2023 10:42 14,5 C 13,3 C 17,2 C 16,7 C 16,7 C 86 % 15 lf 15 lf 24 cb 1 cb 2 cb 1026,6 hPa 0,0 mm 1,5 km/h (1 Bft) O-SO 242 2 min 0,000 mm 1,4 UV-I 330 W/m 12,2 C 14,5 C 4,8 km/h (1 Bft)
30/09/2023 10:40 14,4 C 13,3 C 17,2 C 16,7 C 16,7 C 86 % 15 lf 15 lf 24 cb 1 cb 2 cb 1026,7 hPa 0,0 mm 2,7 km/h (1 Bft) O-SO 242 2 min 0,000 mm 1,3 UV-I 332 W/m 12,1 C 14,4 C 4,8 km/h (1 Bft)
30/09/2023 10:38 14,2 C 12,8 C 17,2 C 16,7 C 16,7 C 85 % 15 lf 15 lf 24 cb 1 cb 2 cb 1026,8 hPa 0,0 mm 1,4 km/h (1 Bft) O-SO 244 2 min 0,000 mm 1,3 UV-I 322 W/m 11,7 C 14,2 C 3,2 km/h (1 Bft)
30/09/2023 10:36 14,3 C 12,8 C 17,2 C 16,7 C 16,7 C 86 % 15 lf 15 lf 24 cb 1 cb 2 cb 1026,7 hPa 0,0 mm 3,1 km/h (1 Bft) O-SO 244 2 min 0,000 mm 1,3 UV-I 311 W/m 12,0 C 14,3 C 4,8 km/h (1 Bft)
30/09/2023 10:34 14,3 C 12,8 C 17,2 C 16,7 C 16,7 C 88 % 15 lf 15 lf 24 cb 1 cb 2 cb 1026,6 hPa 0,0 mm 1,9 km/h (1 Bft) S 185 2 min 0,000 mm 1,2 UV-I 283 W/m 12,3 C 14,3 C 3,2 km/h (1 Bft)
30/09/2023 10:32 14,1 C 12,8 C 17,2 C 16,7 C 16,7 C 88 % 15 lf 15 lf 24 cb 1 cb 2 cb 1026,7 hPa 0,0 mm 3,4 km/h (1 Bft) S 185 2 min 0,000 mm 1,2 UV-I 315 W/m 12,1 C 14,1 C 4,8 km/h (1 Bft)
30/09/2023 10:30 13,9 C 12,8 C 17,2 C 16,7 C 16,7 C 89 % 15 lf 15 lf 24 cb 1 cb 2 cb 1026,7 hPa 0,0 mm 3,0 km/h (1 Bft) S 190 2 min 0,000 mm 1,2 UV-I 308 W/m 12,1 C 13,9 C 6,4 km/h (2 Bft)
30/09/2023 10:28 13,7 C 12,8 C 17,2 C 16,7 C 16,7 C 87 % 15 lf 15 lf 24 cb 1 cb 2 cb 1026,7 hPa 0,0 mm 1,5 km/h (1 Bft) SO 219 2 min 0,000 mm 1,1 UV-I 302 W/m 11,6 C 13,7 C 3,2 km/h (1 Bft)
30/09/2023 10:26 13,7 C 12,8 C 17,2 C 16,7 C 16,7 C 89 % 15 lf 15 lf 24 cb 1 cb 2 cb 1026,7 hPa 0,0 mm 2,6 km/h (1 Bft) SO 219 2 min 0,000 mm 1,1 UV-I 304 W/m 11,9 C 13,7 C 4,8 km/h (1 Bft)
30/09/2023 10:24 13,6 C 12,8 C 17,2 C 16,7 C 16,7 C 88 % 15 lf 15 lf 24 cb 1 cb 2 cb 1026,7 hPa 0,0 mm 2,9 km/h (1 Bft) SO 219 2 min 0,000 mm 1,1 UV-I 239 W/m 11,6 C 13,6 C 4,8 km/h (1 Bft)
30/09/2023 10:22 13,7 C 12,8 C 17,2 C 16,7 C 16,7 C 88 % 15 lf 15 lf 24 cb 1 cb 2 cb 1026,7 hPa 0,0 mm 3,0 km/h (1 Bft) SO 217 2 min 0,000 mm 1,0 UV-I 225 W/m 11,7 C 13,7 C 4,8 km/h (1 Bft)
30/09/2023 10:20 13,6 C 12,2 C 17,2 C 16,7 C 16,7 C 88 % 15 lf 15 lf 24 cb 1 cb 2 cb 1026,6 hPa 0,0 mm 3,8 km/h (1 Bft) S 180 2 min 0,000 mm 1,0 UV-I 236 W/m 11,6 C 13,6 C 4,8 km/h (1 Bft)
30/09/2023 10:18 13,4 C 12,2 C 17,2 C 16,7 C 16,7 C 89 % 15 lf 15 lf 24 cb 1 cb 2 cb 1026,6 hPa 0,0 mm 2,5 km/h (1 Bft) SO 219 2 min 0,000 mm 1,0 UV-I 278 W/m 11,6 C 13,4 C 4,8 km/h (1 Bft)
30/09/2023 10:16 13,3 C 12,2 C 17,2 C 16,7 C 16,7 C 88 % 15 lf 15 lf 24 cb 1 cb 2 cb 1026,6 hPa 0,0 mm 2,7 km/h (1 Bft) NO 313 2 min 0,000 mm 1,0 UV-I 271 W/m 11,4 C 13,3 C 4,8 km/h (1 Bft)
30/09/2023 10:14 13,3 C 12,2 C 17,2 C 16,7 C 16,7 C 89 % 15 lf 15 lf 24 cb 1 cb 2 cb 1026,7 hPa 0,0 mm 3,1 km/h (1 Bft) SO 231 2 min 0,000 mm 0,9 UV-I 251 W/m 11,5 C 13,3 C 6,4 km/h (2 Bft)
30/09/2023 10:12 13,3 C 12,2 C 17,2 C 16,7 C 16,7 C 89 % 15 lf 15 lf 24 cb 1 cb 2 cb 1026,5 hPa 0,0 mm 3,4 km/h (1 Bft) S-SO 201 2 min 0,000 mm 0,9 UV-I 204 W/m 11,5 C 13,3 C 6,4 km/h (2 Bft)
30/09/2023 10:10 13,2 C 12,2 C 17,2 C 16,7 C 16,7 C 89 % 15 lf 15 lf 24 cb 1 cb 2 cb 1026,5 hPa 0,0 mm 3,5 km/h (1 Bft) S 175 2 min 0,000 mm 0,9 UV-I 262 W/m 11,4 C 13,2 C 6,4 km/h (2 Bft)
30/09/2023 10:08 13,1 C 12,2 C 17,2 C 16,7 C 16,7 C 89 % 15 lf 15 lf 24 cb 1 cb 2 cb 1026,5 hPa 0,0 mm 4,3 km/h (1 Bft) S 190 2 min 0,000 mm 0,8 UV-I 195 W/m 11,3 C 13,1 C 6,4 km/h (2 Bft)
30/09/2023 10:06 13,1 C 12,2 C 17,2 C 16,7 C 16,7 C 89 % 15 lf 15 lf 24 cb 1 cb 2 cb 1026,5 hPa 0,0 mm 4,5 km/h (1 Bft) S-SE 160 2 min 0,000 mm 0,8 UV-I 206 W/m 11,3 C 13,1 C 6,4 km/h (2 Bft)
30/09/2023 10:04 13,0 C 12,2 C 17,2 C 16,7 C 16,7 C 89 % 15 lf 15 lf 24 cb 1 cb 2 cb 1026,5 hPa 0,0 mm 3,3 km/h (1 Bft) S 180 2 min 0,000 mm 0,8 UV-I 190 W/m 11,2 C 13,0 C 6,4 km/h (2 Bft)
30/09/2023 10:02 12,9 C 11,7 C 17,2 C 16,7 C 16,7 C 90 % 15 lf 15 lf 24 cb 1 cb 2 cb 1026,5 hPa 0,0 mm 2,2 km/h (1 Bft) S 180 2 min 0,000 mm 0,8 UV-I 195 W/m 11,3 C 12,9 C 4,8 km/h (1 Bft)
30/09/2023 10:00 12,8 C 11,7 C 17,2 C 16,7 C 16,7 C 90 % 15 lf 15 lf 24 cb 1 cb 2 cb 1026,5 hPa 0,0 mm 1,6 km/h (1 Bft) SO 233 2 min 0,077 mm 0,8 UV-I 213 W/m 11,2 C 12,8 C 3,2 km/h (1 Bft)
30/09/2023 09:58 12,7 C 11,7 C 17,2 C 16,7 C 16,7 C 90 % 15 lf 15 lf 24 cb 1 cb 2 cb 1026,5 hPa 0,0 mm 4,0 km/h (1 Bft) O-SO 239 2 min 0,000 mm 0,7 UV-I 197 W/m 11,1 C 12,7 C 6,4 km/h (2 Bft)
30/09/2023 09:56 12,7 C 11,7 C 17,2 C 16,7 C 16,7 C 89 % 15 lf 15 lf 24 cb 1 cb 2 cb 1026,5 hPa 0,0 mm 3,5 km/h (1 Bft) SO 217 2 min 0,000 mm 0,7 UV-I 186 W/m 10,9 C 12,7 C 6,4 km/h (2 Bft)
30/09/2023 09:54 12,7 C 11,7 C 17,2 C 16,7 C 16,7 C 91 % 15 lf 15 lf 24 cb 1 cb 2 cb 1026,5 hPa 0,0 mm 3,8 km/h (1 Bft) SO 220 2 min 0,000 mm 0,7 UV-I 179 W/m 11,3 C 12,7 C 6,4 km/h (2 Bft)
30/09/2023 09:52 12,4 C 11,7 C 17,2 C 16,7 C 16,7 C 90 % 15 lf 15 lf 24 cb 1 cb 2 cb 1026,6 hPa 0,0 mm 2,9 km/h (1 Bft) S-SO 200 2 min 0,000 mm 0,7 UV-I 209 W/m 10,8 C 12,4 C 4,8 km/h (1 Bft)
30/09/2023 09:50 12,4 C 11,7 C 17,2 C 16,7 C 16,7 C 90 % 15 lf 15 lf 24 cb 1 cb 2 cb 1026,6 hPa 0,0 mm 2,7 km/h (1 Bft) S-SO 210 2 min 0,000 mm 0,7 UV-I 216 W/m 10,8 C 12,4 C 4,8 km/h (1 Bft)
30/09/2023 09:48 12,6 C 11,7 C 17,2 C 16,7 C 16,7 C 90 % 15 lf 15 lf 24 cb 1 cb 2 cb 1026,6 hPa 0,0 mm 1,4 km/h (1 Bft) S-SO 209 0 min 0,000 mm 0,6 UV-I 134 W/m 11,0 C 12,6 C 3,2 km/h (1 Bft)
30/09/2023 09:46 12,7 C 11,7 C 17,2 C 16,7 C 16,7 C 91 % 15 lf 15 lf 24 cb 1 cb 2 cb 1026,4 hPa 0,0 mm 1,7 km/h (1 Bft) S-SO 202 0 min 0,000 mm 0,6 UV-I 132 W/m 11,3 C 12,7 C 3,2 km/h (1 Bft)
30/09/2023 09:44 12,7 C 11,7 C 17,2 C 16,7 C 16,7 C 92 % 15 lf 15 lf 24 cb 1 cb 2 cb 1026,5 hPa 0,0 mm 2,3 km/h (1 Bft) S-SO 202 2 min 0,000 mm 0,6 UV-I 169 W/m 11,4 C 12,7 C 4,8 km/h (1 Bft)
30/09/2023 09:42 12,4 C 11,7 C 17,2 C 16,7 C 16,7 C 92 % 15 lf 15 lf 24 cb 1 cb 2 cb 1026,5 hPa 0,0 mm 1,6 km/h (1 Bft) S-SO 201 2 min 0,000 mm 0,6 UV-I 248 W/m 11,1 C 12,4 C 3,2 km/h (1 Bft)
30/09/2023 09:40 12,2 C 11,7 C 17,2 C 16,7 C 16,7 C 92 % 15 lf 15 lf 24 cb 1 cb 2 cb 1026,5 hPa 0,0 mm 2,7 km/h (1 Bft) S-SO 198 2 min 0,000 mm 0,6 UV-I 253 W/m 10,9 C 12,2 C 4,8 km/h (1 Bft)
30/09/2023 09:38 12,0 C 11,1 C 17,2 C 16,7 C 16,7 C 92 % 15 lf 15 lf 24 cb 1 cb 2 cb 1026,4 hPa 0,0 mm 2,0 km/h (1 Bft) S 190 2 min 0,000 mm 0,6 UV-I 250 W/m 10,7 C 12,0 C 3,2 km/h (1 Bft)
30/09/2023 09:36 11,8 C 11,1 C 17,2 C 16,7 C 16,7 C 92 % 15 lf 15 lf 24 cb 1 cb 2 cb 1026,4 hPa 0,0 mm 3,1 km/h (1 Bft) S 190 2 min 0,000 mm 0,6 UV-I 246 W/m 10,5 C 11,8 C 6,4 km/h (2 Bft)
30/09/2023 09:34 11,6 C 11,1 C 17,2 C 16,7 C 16,7 C 92 % 15 lf 15 lf 24 cb 1 cb 2 cb 1026,4 hPa 0,0 mm 4,3 km/h (1 Bft) SO 225 2 min 0,000 mm 0,5 UV-I 236 W/m 10,3 C 11,6 C 8,0 km/h (2 Bft)
30/09/2023 09:32 11,5 C 11,1 C 17,2 C 16,7 C 16,7 C 92 % 15 lf 15 lf 24 cb 1 cb 2 cb 1026,3 hPa 0,0 mm 4,6 km/h (1 Bft) SO 231 2 min 0,000 mm 0,5 UV-I 223 W/m 10,2 C 11,5 C 6,4 km/h (2 Bft)
30/09/2023 09:30 11,5 C 11,1 C 17,2 C 16,7 C 16,7 C 92 % 15 lf 15 lf 24 cb 1 cb 2 cb 1026,2 hPa 0,0 mm 3,8 km/h (1 Bft) SO 235 2 min 0,000 mm 0,5 UV-I 213 W/m 10,2 C 11,5 C 6,4 km/h (2 Bft)
30/09/2023 09:28 11,4 C 10,6 C 17,2 C 16,7 C 16,7 C 92 % 15 lf 15 lf 24 cb 1 cb 2 cb 1026,2 hPa 0,0 mm 3,0 km/h (1 Bft) S-SO 209 2 min 0,000 mm 0,5 UV-I 200 W/m 10,1 C 11,4 C 4,8 km/h (1 Bft)
30/09/2023 09:26 11,4 C 10,6 C 17,2 C 16,7 C 16,7 C 93 % 15 lf 15 lf 24 cb 1 cb 2 cb 1026,2 hPa 0,0 mm 3,3 km/h (1 Bft) S-SE 163 2 min 0,000 mm 0,5 UV-I 185 W/m 10,3 C 11,4 C 4,8 km/h (1 Bft)
30/09/2023 09:24 11,2 C 10,6 C 17,2 C 16,7 C 16,7 C 92 % 15 lf 15 lf 24 cb 1 cb 2 cb 1026,2 hPa 0,0 mm 2,6 km/h (1 Bft) S-SE 160 2 min 0,000 mm 0,0 UV-I 181 W/m 9,9 C 11,2 C 4,8 km/h (1 Bft)
30/09/2023 09:22 11,1 C 10,6 C 17,2 C 16,7 C 16,7 C 93 % 15 lf 15 lf 24 cb 1 cb 2 cb 1026,1 hPa 0,0 mm 4,1 km/h (1 Bft) S 190 2 min 0,000 mm 0,0 UV-I 167 W/m 10,0 C 11,1 C 6,4 km/h (2 Bft)
30/09/2023 09:20 11,1 C 10,6 C 17,2 C 16,7 C 16,7 C 93 % 15 lf 15 lf 24 cb 1 cb 2 cb 1026,1 hPa 0,0 mm 3,7 km/h (1 Bft) S-SO 196 2 min 0,000 mm 0,0 UV-I 158 W/m 10,0 C 11,1 C 6,4 km/h (2 Bft)
30/09/2023 09:18 10,9 C 10,6 C 17,2 C 16,7 C 16,7 C 92 % 15 lf 15 lf 24 cb 1 cb 2 cb 1026,1 hPa 0,0 mm 2,9 km/h (1 Bft) S-SO 196 2 min 0,000 mm 0,0 UV-I 148 W/m 9,7 C 10,9 C 6,4 km/h (2 Bft)
30/09/2023 09:16 10,8 C 10,0 C 17,2 C 16,7 C 16,7 C 93 % 15 lf 15 lf 24 cb 1 cb 2 cb 1026,1 hPa 0,0 mm 2,9 km/h (1 Bft) S-SO 205 2 min 0,000 mm 0,0 UV-I 137 W/m 9,7 C 10,8 C 4,8 km/h (1 Bft)
30/09/2023 09:14 10,7 C 10,0 C 17,2 C 16,7 C 16,7 C 93 % 15 lf 15 lf 24 cb 1 cb 2 cb 1026,1 hPa 0,0 mm 1,9 km/h (1 Bft) S-SO 207 2 min 0,000 mm 0,0 UV-I 125 W/m 9,6 C 10,7 C 4,8 km/h (1 Bft)
30/09/2023 09:12 10,6 C 10,0 C 17,2 C 16,7 C 16,7 C 93 % 15 lf 15 lf 24 cb 1 cb 2 cb 1026,1 hPa 0,0 mm 0,0 km/h (0 Bft) S-SO 209 0 min 0,000 mm 0,0 UV-I 109 W/m 9,5 C 10,6 C 0,0 km/h (0 Bft)
30/09/2023 09:10 10,4 C 10,0 C 17,2 C 16,7 C 16,7 C 92 % 15 lf 15 lf 24 cb 1 cb 2 cb 1026,2 hPa 0,0 mm 0,4 km/h (0 Bft) S-SO 210 0 min 0,000 mm 0,0 UV-I 100 W/m 9,2 C 10,4 C 3,2 km/h (1 Bft)
30/09/2023 09:08 10,3 C 10,0 C 17,2 C 16,7 C 16,7 C 93 % 15 lf 15 lf 24 cb 1 cb 2 cb 1026,2 hPa 0,0 mm 2,1 km/h (1 Bft) S-SO 210 0 min 0,000 mm 0,0 UV-I 97 W/m 9,2 C 10,3 C 4,8 km/h (1 Bft)
30/09/2023 09:06 10,3 C 10,0 C 17,2 C 16,7 C 16,7 C 93 % 15 lf 15 lf 24 cb 1 cb 2 cb 1026,2 hPa 0,0 mm 2,8 km/h (1 Bft) S-SO 209 0 min 0,000 mm 0,0 UV-I 88 W/m 9,2 C 10,3 C 4,8 km/h (1 Bft)
30/09/2023 09:04 10,2 C 9,4 C 17,2 C 16,7 C 16,7 C 93 % 15 lf 15 lf 24 cb 1 cb 2 cb 1026,2 hPa 0,0 mm 2,8 km/h (1 Bft) SO 228 0 min 0,000 mm 0,0 UV-I 84 W/m 9,1 C 10,2 C 4,8 km/h (1 Bft)
30/09/2023 09:02 10,2 C 9,4 C 17,2 C 16,7 C 16,7 C 92 % 15 lf 15 lf 24 cb 1 cb 2 cb 1026,1 hPa 0,0 mm 2,2 km/h (1 Bft) SO 233 0 min 0,000 mm 0,0 UV-I 81 W/m 9,0 C 10,2 C 3,2 km/h (1 Bft)
30/09/2023 09:00 10,1 C 9,4 C 17,2 C 16,7 C 16,7 C 92 % 15 lf 15 lf 24 cb 1 cb 2 cb 1026,1 hPa 0,0 mm 2,1 km/h (1 Bft) SO 233 0 min 0,025 mm 0,0 UV-I 79 W/m 8,9 C 10,1 C 4,8 km/h (1 Bft)
30/09/2023 08:58 10,0 C 9,4 C 17,2 C 16,7 C 16,7 C 93 % 15 lf 15 lf 24 cb 1 cb 2 cb 1026,1 hPa 0,0 mm 1,9 km/h (1 Bft) SO 233 0 min 0,000 mm 0,0 UV-I 77 W/m 8,9 C 10,0 C 3,2 km/h (1 Bft)
30/09/2023 08:56 9,9 C 9,4 C 17,2 C 16,7 C 16,7 C 93 % 15 lf 15 lf 24 cb 1 cb 2 cb 1026,1 hPa 0,0 mm 1,7 km/h (1 Bft) SO 234 0 min 0,000 mm 0,0 UV-I 74 W/m 8,8 C 9,9 C 3,2 km/h (1 Bft)
30/09/2023 08:54 9,9 C 9,4 C 17,2 C 16,7 C 16,7 C 93 % 15 lf 15 lf 24 cb 1 cb 2 cb 1026,1 hPa 0,0 mm 1,4 km/h (1 Bft) O-SO 238 0 min 0,000 mm 0,0 UV-I 70 W/m 8,8 C 9,9 C 3,2 km/h (1 Bft)
30/09/2023 08:52 9,9 C 9,4 C 17,2 C 16,7 C 16,7 C 93 % 15 lf 15 lf 24 cb 1 cb 2 cb 1026,0 hPa 0,0 mm 0,4 km/h (0 Bft) O-SO 238 0 min 0,000 mm 0,0 UV-I 67 W/m 8,8 C 9,9 C 1,6 km/h (1 Bft)
30/09/2023 08:50 9,9 C 9,4 C 17,2 C 16,7 C 16,7 C 92 % 15 lf 15 lf 24 cb 1 cb 2 cb 1026,0 hPa 0,0 mm 1,6 km/h (1 Bft) O-SO 238 0 min 0,000 mm 0,0 UV-I 63 W/m 8,7 C 9,9 C 3,2 km/h (1 Bft)
30/09/2023 08:48 9,9 C 9,4 C 17,2 C 16,7 C 16,7 C 92 % 15 lf 15 lf 24 cb 1 cb 2 cb 1026,1 hPa 0,0 mm 2,0 km/h (1 Bft) O-SO 238 0 min 0,000 mm 0,0 UV-I 40 W/m 8,7 C 9,9 C 4,8 km/h (1 Bft)
30/09/2023 08:46 9,8 C 8,9 C 17,2 C 16,7 C 16,7 C 92 % 15 lf 15 lf 24 cb 1 cb 2 cb 1026,1 hPa 0,0 mm 2,6 km/h (1 Bft) O-SO 240 0 min 0,000 mm 0,0 UV-I 39 W/m 8,6 C 9,8 C 4,8 km/h (1 Bft)
30/09/2023 08:44 9,8 C 8,9 C 17,2 C 16,7 C 16,7 C 92 % 15 lf 15 lf 24 cb 1 cb 2 cb 1026,1 hPa 0,0 mm 1,7 km/h (1 Bft) O-SO 240 0 min 0,000 mm 0,0 UV-I 40 W/m 8,6 C 9,8 C 3,2 km/h (1 Bft)
30/09/2023 08:42 9,7 C 8,9 C 17,2 C 16,7 C 16,7 C 93 % 15 lf 15 lf 24 cb 1 cb 2 cb 1026,1 hPa 0,0 mm 0,0 km/h (0 Bft) O-SO 255 0 min 0,000 mm 0,0 UV-I 40 W/m 8,6 C 9,7 C 0,0 km/h (0 Bft)
30/09/2023 08:40 9,7 C 8,9 C 17,2 C 16,7 C 16,7 C 92 % 15 lf 15 lf 24 cb 1 cb 2 cb 1026,1 hPa 0,0 mm 0,4 km/h (0 Bft) O-SO 255 0 min 0,000 mm 0,0 UV-I 44 W/m 8,5 C 9,7 C 1,6 km/h (1 Bft)
30/09/2023 08:38 9,6 C 8,9 C 17,2 C 16,7 C 16,7 C 92 % 15 lf 15 lf 24 cb 1 cb 2 cb 1026,1 hPa 0,0 mm 1,3 km/h (1 Bft) O-SO 255 0 min 0,000 mm 0,0 UV-I 49 W/m 8,4 C 9,6 C 3,2 km/h (1 Bft)
30/09/2023 08:36 9,4 C 8,9 C 17,2 C 16,7 C 16,7 C 92 % 15 lf 15 lf 24 cb 1 cb 2 cb 1026,0 hPa 0,0 mm 0,7 km/h (0 Bft) O-SO 255 0 min 0,000 mm 0,0 UV-I 47 W/m 8,2 C 9,4 C 3,2 km/h (1 Bft)
30/09/2023 08:34 9,4 C 8,9 C 17,2 C 16,7 C 16,7 C 92 % 15 lf 15 lf 24 cb 1 cb 2 cb 1026,0 hPa 0,0 mm 1,6 km/h (1 Bft) O-SO 255 0 min 0,000 mm 0,0 UV-I 46 W/m 8,2 C 9,4 C 3,2 km/h (1 Bft)
30/09/2023 08:32 9,4 C 8,9 C 17,2 C 16,7 C 16,7 C 92 % 15 lf 15 lf 24 cb 1 cb 2 cb 1025,9 hPa 0,0 mm 1,6 km/h (1 Bft) O-SO 255 0 min 0,000 mm 0,0 UV-I 40 W/m 8,2 C 9,4 C 3,2 km/h (1 Bft)
30/09/2023 08:30 9,3 C 8,9 C 17,2 C 16,7 C 16,7 C 92 % 15 lf 15 lf 24 cb 1 cb 2 cb 1025,8 hPa 0,0 mm 1,6 km/h (1 Bft) O-SO 257 0 min 0,000 mm 0,0 UV-I 35 W/m 8,1 C 9,3 C 3,2 km/h (1 Bft)
30/09/2023 08:28 9,3 C 8,9 C 17,2 C 16,7 C 16,7 C 92 % 15 lf 15 lf 24 cb 1 cb 2 cb 1025,8 hPa 0,0 mm 0,2 km/h (0 Bft) O-SO 258 0 min 0,000 mm 0,0 UV-I 37 W/m 8,1 C 9,3 C 1,6 km/h (1 Bft)
30/09/2023 08:26 9,3 C 8,9 C 17,2 C 16,7 C 16,7 C 92 % 15 lf 15 lf 24 cb 1 cb 2 cb 1025,8 hPa 0,0 mm 0,0 km/h (0 Bft) NO 324 0 min 0,000 mm 0,0 UV-I 37 W/m 8,1 C 9,3 C 0,0 km/h (0 Bft)
30/09/2023 08:24 9,4 C 8,9 C 17,2 C 16,7 C 16,7 C 92 % 15 lf 15 lf 24 cb 1 cb 2 cb 1025,7 hPa 0,0 mm 0,0 km/h (0 Bft) NO 324 0 min 0,000 mm 0,0 UV-I 35 W/m 8,2 C 9,4 C 1,6 km/h (1 Bft)
30/09/2023 08:22 9,4 C 8,9 C 17,2 C 16,7 C 16,7 C 92 % 15 lf 15 lf 24 cb 1 cb 2 cb 1025,7 hPa 0,0 mm 0,0 km/h (0 Bft) SO 232 0 min 0,000 mm 0,0 UV-I 33 W/m 8,2 C 9,4 C 0,0 km/h (0 Bft)
30/09/2023 08:20 9,5 C 8,9 C 17,2 C 16,7 C 16,7 C 92 % 15 lf 15 lf 24 cb 1 cb 2 cb 1025,7 hPa 0,0 mm 0,0 km/h (0 Bft) SO 232 0 min 0,000 mm 0,0 UV-I 32 W/m 8,3 C 9,5 C 0,0 km/h (0 Bft)
30/09/2023 08:18 9,5 C 8,9 C 17,2 C 16,7 C 16,7 C 92 % 15 lf 15 lf 24 cb 1 cb 2 cb 1025,7 hPa 0,0 mm 0,0 km/h (0 Bft) SO 232 0 min 0,000 mm 0,0 UV-I 26 W/m 8,3 C 9,5 C 0,0 km/h (0 Bft)
30/09/2023 08:16 9,6 C 8,9 C 17,2 C 16,7 C 16,7 C 92 % 15 lf 15 lf 24 cb 1 cb 2 cb 1025,7 hPa 0,0 mm 0,0 km/h (0 Bft) SO 232 0 min 0,000 mm 0,0 UV-I 23 W/m 8,4 C 9,6 C 0,0 km/h (0 Bft)
30/09/2023 08:14 9,6 C 8,9 C 17,2 C 16,7 C 16,7 C 92 % 15 lf 15 lf 24 cb 1 cb 2 cb 1025,7 hPa 0,0 mm 0,0 km/h (0 Bft) SO 232 0 min 0,000 mm 0,0 UV-I 21 W/m 8,4 C 9,6 C 0,0 km/h (0 Bft)
30/09/2023 08:12 9,7 C 8,9 C 17,2 C 16,7 C 16,7 C 92 % 15 lf 15 lf 24 cb 1 cb 2 cb 1025,8 hPa 0,0 mm 0,0 km/h (0 Bft) SO 232 0 min 0,000 mm 0,0 UV-I 18 W/m 8,5 C 9,7 C 0,0 km/h (0 Bft)
30/09/2023 08:10 9,7 C 8,9 C 17,2 C 16,7 C 16,7 C 92 % 15 lf 15 lf 24 cb 1 cb 2 cb 1025,8 hPa 0,0 mm 0,1 km/h (0 Bft) SO 232 0 min 0,000 mm 0,0 UV-I 16 W/m 8,5 C 9,7 C 1,6 km/h (1 Bft)
30/09/2023 08:08 9,7 C 8,9 C 17,2 C 16,7 C 16,7 C 92 % 15 lf 15 lf 24 cb 1 cb 2 cb 1025,8 hPa 0,0 mm 0,8 km/h (0 Bft) SO 232 0 min 0,000 mm 0,0 UV-I 14 W/m 8,5 C 9,7 C 3,2 km/h (1 Bft)
30/09/2023 08:06 9,7 C 8,9 C 17,2 C 16,7 C 16,7 C 92 % 15 lf 15 lf 24 cb 1 cb 2 cb 1025,8 hPa 0,0 mm 2,9 km/h (1 Bft) SO 232 0 min 0,000 mm 0,0 UV-I 12 W/m 8,5 C 9,7 C 4,8 km/h (1 Bft)
30/09/2023 08:04 9,7 C 8,9 C 17,2 C 16,7 C 16,7 C 92 % 15 lf 15 lf 24 cb 1 cb 2 cb 1025,8 hPa 0,0 mm 2,3 km/h (1 Bft) SO 227 0 min 0,000 mm 0,0 UV-I 12 W/m 8,5 C 9,7 C 3,2 km/h (1 Bft)
30/09/2023 08:02 9,7 C 8,9 C 17,2 C 16,7 C 16,7 C 92 % 15 lf 15 lf 24 cb 1 cb 2 cb 1025,8 hPa 0,0 mm 1,5 km/h (1 Bft) SO 230 0 min 0,000 mm 0,0 UV-I 11 W/m 8,5 C 9,7 C 3,2 km/h (1 Bft)
30/09/2023 08:00 9,7 C 8,9 C 17,2 C 16,7 C 16,7 C 92 % 15 lf 15 lf 24 cb 1 cb 2 cb 1025,7 hPa 0,0 mm 2,7 km/h (1 Bft) SO 230 0 min 0,000 mm 0,0 UV-I 9 W/m 8,5 C 9,7 C 4,8 km/h (1 Bft)
30/09/2023 07:58 9,7 C 8,9 C 17,2 C 16,7 C 16,7 C 92 % 15 lf 15 lf 24 cb 1 cb 2 cb 1025,7 hPa 0,0 mm 3,4 km/h (1 Bft) SO 228 0 min 0,000 mm 0,0 UV-I 7 W/m 8,5 C 9,7 C 6,4 km/h (2 Bft)
30/09/2023 07:56 9,6 C 8,9 C 17,2 C 16,7 C 16,7 C 92 % 15 lf 15 lf 24 cb 1 cb 2 cb 1025,7 hPa 0,0 mm 3,6 km/h (1 Bft) O-SO 242 0 min 0,000 mm 0,0 UV-I 7 W/m 8,4 C 9,6 C 6,4 km/h (2 Bft)
30/09/2023 07:54 9,6 C 8,9 C 17,2 C 16,7 C 16,7 C 92 % 15 lf 15 lf 24 cb 1 cb 2 cb 1025,7 hPa 0,0 mm 2,5 km/h (1 Bft) O-SO 248 0 min 0,000 mm 0,0 UV-I 5 W/m 8,4 C 9,6 C 6,4 km/h (2 Bft)
30/09/2023 07:52 9,6 C 8,9 C 17,2 C 16,7 C 16,7 C 92 % 15 lf 15 lf 24 cb 1 cb 2 cb 1025,6 hPa 0,0 mm 3,8 km/h (1 Bft) O-SO 246 0 min 0,000 mm 0,0 UV-I 5 W/m 8,4 C 9,6 C 6,4 km/h (2 Bft)
30/09/2023 07:50 9,6 C 8,9 C 17,2 C 16,7 C 16,7 C 93 % 15 lf 15 lf 24 cb 1 cb 2 cb 1025,7 hPa 0,0 mm 3,8 km/h (1 Bft) O-SO 243 0 min 0,000 mm 0,0 UV-I 0 W/m 8,5 C 9,6 C 4,8 km/h (1 Bft)
30/09/2023 07:48 9,6 C 8,9 C 17,2 C 16,7 C 16,7 C 93 % 15 lf 15 lf 24 cb 1 cb 2 cb 1025,8 hPa 0,0 mm 3,6 km/h (1 Bft) O-SO 247 0 min 0,000 mm 0,0 UV-I 0 W/m 8,5 C 9,6 C 6,4 km/h (2 Bft)
30/09/2023 07:46 9,6 C 8,9 C 17,2 C 16,7 C 16,7 C 93 % 15 lf 15 lf 24 cb 1 cb 2 cb 1025,7 hPa 0,0 mm 3,8 km/h (1 Bft) SO 234 0 min 0,000 mm 0,0 UV-I 0 W/m 8,5 C 9,6 C 4,8 km/h (1 Bft)
30/09/2023 07:44 9,6 C 8,9 C 17,2 C 16,7 C 16,7 C 92 % 15 lf 15 lf 24 cb 1 cb 2 cb 1025,6 hPa 0,0 mm 3,8 km/h (1 Bft) O-SO 246 0 min 0,000 mm 0,0 UV-I 0 W/m 8,4 C 9,6 C 6,4 km/h (2 Bft)
30/09/2023 07:42 9,4 C 8,9 C 17,2 C 16,7 C 16,7 C 92 % 15 lf 15 lf 24 cb 1 cb 2 cb 1025,6 hPa 0,0 mm 4,1 km/h (1 Bft) O-SO 242 0 min 0,000 mm 0,0 UV-I 0 W/m 8,2 C 9,4 C 4,8 km/h (1 Bft)
30/09/2023 07:40 9,3 C 8,9 C 17,2 C 16,7 C 16,7 C 92 % 15 lf 15 lf 24 cb 1 cb 2 cb 1025,6 hPa 0,0 mm 4,2 km/h (1 Bft) SO 226 0 min 0,000 mm 0,0 UV-I 0 W/m 8,1 C 9,3 C 6,4 km/h (2 Bft)
30/09/2023 07:38 9,2 C 8,3 C 17,2 C 16,7 C 16,7 C 92 % 15 lf 15 lf 24 cb 1 cb 2 cb 1025,5 hPa 0,0 mm 4,9 km/h (1 Bft) SO 225 0 min 0,000 mm 0,0 UV-I 0 W/m 8,0 C 9,2 C 6,4 km/h (2 Bft)
30/09/2023 07:36 9,2 C 8,3 C 17,2 C 16,7 C 16,7 C 92 % 15 lf 15 lf 24 cb 1 cb 2 cb 1025,5 hPa 0,0 mm 4,1 km/h (1 Bft) SO 223 0 min 0,000 mm 0,0 UV-I 0 W/m 8,0 C 9,2 C 4,8 km/h (1 Bft)
30/09/2023 07:34 9,1 C 8,3 C 17,2 C 16,7 C 16,7 C 92 % 15 lf 15 lf 24 cb 1 cb 2 cb 1025,4 hPa 0,0 mm 2,7 km/h (1 Bft) SO 215 0 min 0,000 mm 0,0 UV-I 0 W/m 7,9 C 9,1 C 4,8 km/h (1 Bft)
30/09/2023 07:32 9,0 C 8,3 C 17,2 C 16,7 C 16,7 C 92 % 15 lf 15 lf 24 cb 1 cb 2 cb 1025,4 hPa 0,0 mm 1,6 km/h (1 Bft) S-SO 211 0 min 0,000 mm 0,0 UV-I 0 W/m 7,8 C 9,0 C 3,2 km/h (1 Bft)
30/09/2023 07:30 8,9 C 8,3 C 17,2 C 16,7 C 16,7 C 92 % 15 lf 15 lf 24 cb 1 cb 2 cb 1025,3 hPa 0,0 mm 1,0 km/h (0 Bft) S-SO 211 0 min 0,000 mm 0,0 UV-I 0 W/m 7,7 C 8,9 C 3,2 km/h (1 Bft)
30/09/2023 07:28 8,8 C 8,3 C 17,2 C 16,7 C 16,7 C 92 % 15 lf 15 lf 24 cb 1 cb 2 cb 1025,2 hPa 0,0 mm 1,5 km/h (1 Bft) S-SO 211 0 min 0,000 mm 0,0 UV-I 0 W/m 7,6 C 8,8 C 3,2 km/h (1 Bft)
30/09/2023 07:26 8,9 C 8,3 C 17,2 C 16,7 C 16,7 C 92 % 15 lf 15 lf 24 cb 1 cb 2 cb 1025,2 hPa 0,0 mm 1,6 km/h (1 Bft) S-SO 211 0 min 0,000 mm 0,0 UV-I 0 W/m 7,7 C 8,9 C 3,2 km/h (1 Bft)
30/09/2023 07:24 9,0 C 8,3 C 17,2 C 16,7 C 16,7 C 92 % 15 lf 15 lf 24 cb 1 cb 2 cb 1025,2 hPa 0,0 mm 2,0 km/h (1 Bft) S-SO 211 0 min 0,000 mm 0,0 UV-I 0 W/m 7,8 C 9,0 C 3,2 km/h (1 Bft)
30/09/2023 07:22 9,1 C 8,3 C 17,2 C 16,7 C 16,7 C 92 % 15 lf 15 lf 24 cb 1 cb 2 cb 1025,2 hPa 0,0 mm 1,0 km/h (0 Bft) S-SO 211 0 min 0,000 mm 0,0 UV-I 0 W/m 7,9 C 9,1 C 3,2 km/h (1 Bft)
30/09/2023 07:20 9,2 C 8,3 C 17,2 C 16,7 C 16,7 C 92 % 15 lf 15 lf 24 cb 1 cb 2 cb 1025,2 hPa 0,0 mm 0,0 km/h (0 Bft) S-SO 211 0 min 0,000 mm 0,0 UV-I 0 W/m 8,0 C 9,2 C 0,0 km/h (0 Bft)
30/09/2023 07:18 9,2 C 8,3 C 17,2 C 16,7 C 16,7 C 92 % 15 lf 15 lf 24 cb 1 cb 2 cb 1025,2 hPa 0,0 mm 0,8 km/h (0 Bft) S-SO 211 0 min 0,000 mm 0,0 UV-I 0 W/m 8,0 C 9,2 C 1,6 km/h (1 Bft)
30/09/2023 07:16 9,3 C 8,3 C 17,2 C 16,7 C 16,7 C 92 % 15 lf 15 lf 24 cb 1 cb 2 cb 1025,3 hPa 0,0 mm 1,3 km/h (1 Bft) S-SO 211 0 min 0,000 mm 0,0 UV-I 0 W/m 8,1 C 9,3 C 3,2 km/h (1 Bft)
30/09/2023 07:14 9,3 C 8,3 C 17,2 C 16,7 C 16,7 C 92 % 15 lf 15 lf 24 cb 1 cb 2 cb 1025,3 hPa 0,0 mm 0,9 km/h (0 Bft) S-SO 211 0 min 0,000 mm 0,0 UV-I 0 W/m 8,1 C 9,3 C 3,2 km/h (1 Bft)
30/09/2023 07:12 9,3 C 8,3 C 17,2 C 16,7 C 16,7 C 92 % 15 lf 15 lf 24 cb 1 cb 2 cb 1025,3 hPa 0,0 mm 1,5 km/h (1 Bft) S-SO 211 0 min 0,000 mm 0,0 UV-I 0 W/m 8,1 C 9,3 C 3,2 km/h (1 Bft)
30/09/2023 07:10 9,3 C 8,3 C 17,2 C 16,7 C 16,7 C 92 % 15 lf 15 lf 24 cb 1 cb 2 cb 1025,4 hPa 0,0 mm 1,3 km/h (1 Bft) S-SO 211 0 min 0,000 mm 0,0 UV-I 0 W/m 8,1 C 9,3 C 3,2 km/h (1 Bft)
30/09/2023 07:08 9,5 C 8,3 C 17,2 C 16,7 C 16,7 C 92 % 15 lf 15 lf 24 cb 1 cb 2 cb 1025,4 hPa 0,0 mm 0,3 km/h (0 Bft) S-SO 211 0 min 0,000 mm 0,0 UV-I 0 W/m 8,3 C 9,5 C 1,6 km/h (1 Bft)
30/09/2023 07:06 9,5 C 8,3 C 17,2 C 16,7 C 16,7 C 92 % 15 lf 15 lf 24 cb 1 cb 2 cb 1025,4 hPa 0,0 mm 0,2 km/h (0 Bft) S-SO 211 0 min 0,000 mm 0,0 UV-I 0 W/m 8,3 C 9,5 C 1,6 km/h (1 Bft)
30/09/2023 07:04 9,4 C 8,3 C 17,2 C 16,7 C 16,7 C 92 % 15 lf 15 lf 24 cb 1 cb 2 cb 1025,4 hPa 0,0 mm 1,7 km/h (1 Bft) S-SO 211 0 min 0,000 mm 0,0 UV-I 0 W/m 8,2 C 9,4 C 3,2 km/h (1 Bft)
30/09/2023 07:02 9,2 C 8,3 C 17,2 C 16,7 C 16,7 C 92 % 15 lf 15 lf 24 cb 1 cb 2 cb 1025,4 hPa 0,0 mm 2,0 km/h (1 Bft) S-SO 211 0 min 0,000 mm 0,0 UV-I 0 W/m 8,0 C 9,2 C 3,2 km/h (1 Bft)
30/09/2023 07:00 9,2 C 8,3 C 17,2 C 16,7 C 16,7 C 92 % 15 lf 15 lf 24 cb 1 cb 2 cb 1025,5 hPa 0,0 mm 1,5 km/h (1 Bft) S-SO 211 0 min 0,000 mm 0,0 UV-I 0 W/m 8,0 C 9,2 C 3,2 km/h (1 Bft)
30/09/2023 06:58 9,2 C 8,3 C 17,2 C 16,7 C 16,7 C 92 % 15 lf 15 lf 24 cb 1 cb 2 cb 1025,5 hPa 0,0 mm 0,0 km/h (0 Bft) S-SO 211 0 min 0,000 mm 0,0 UV-I 0 W/m 8,0 C 9,2 C 0,0 km/h (0 Bft)
30/09/2023 06:56 9,2 C 8,3 C 17,2 C 16,7 C 16,7 C 92 % 15 lf 15 lf 24 cb 1 cb 2 cb 1025,5 hPa 0,0 mm 0,0 km/h (0 Bft) S-SO 211 0 min 0,000 mm 0,0 UV-I 0 W/m 8,0 C 9,2 C 0,0 km/h (0 Bft)
30/09/2023 06:54 9,1 C 8,3 C 17,2 C 16,7 C 16,7 C 92 % 15 lf 15 lf 24 cb 1 cb 2 cb 1025,5 hPa 0,0 mm 0,3 km/h (0 Bft) S-SO 211 0 min 0,000 mm 0,0 UV-I 0 W/m 7,9 C 9,1 C 1,6 km/h (1 Bft)
30/09/2023 06:52 9,0 C 8,3 C 17,2 C 16,7 C 16,7 C 92 % 15 lf 15 lf 24 cb 1 cb 2 cb 1025,4 hPa 0,0 mm 1,5 km/h (1 Bft) S-SO 211 0 min 0,000 mm 0,0 UV-I 0 W/m 7,8 C 9,0 C 3,2 km/h (1 Bft)
30/09/2023 06:50 9,1 C 8,3 C 17,2 C 16,7 C 16,7 C 92 % 15 lf 15 lf 24 cb 1 cb 2 cb 1025,4 hPa 0,0 mm 1,8 km/h (1 Bft) S-SO 211 0 min 0,000 mm 0,0 UV-I 0 W/m 7,9 C 9,1 C 3,2 km/h (1 Bft)
30/09/2023 06:48 9,2 C 8,3 C 17,2 C 16,7 C 16,7 C 92 % 15 lf 15 lf 24 cb 1 cb 2 cb 1025,4 hPa 0,0 mm 1,8 km/h (1 Bft) S-SO 211 0 min 0,000 mm 0,0 UV-I 0 W/m 8,0 C 9,2 C 3,2 km/h (1 Bft)
30/09/2023 06:46 9,4 C 8,3 C 17,2 C 16,7 C 16,7 C 92 % 15 lf 15 lf 24 cb 1 cb 2 cb 1025,4 hPa 0,0 mm 0,4 km/h (0 Bft) S-SO 211 0 min 0,000 mm 0,0 UV-I 0 W/m 8,2 C 9,4 C 3,2 km/h (1 Bft)
30/09/2023 06:44 9,4 C 8,3 C 17,2 C 16,7 C 16,7 C 92 % 15 lf 15 lf 24 cb 1 cb 2 cb 1025,4 hPa 0,0 mm 0,0 km/h (0 Bft) S-SO 211 0 min 0,000 mm 0,0 UV-I 0 W/m 8,2 C 9,4 C 0,0 km/h (0 Bft)
30/09/2023 06:42 9,4 C 8,3 C 17,2 C 16,7 C 16,7 C 92 % 15 lf 15 lf 24 cb 1 cb 2 cb 1025,4 hPa 0,0 mm 0,0 km/h (0 Bft) S-SO 211 0 min 0,000 mm 0,0 UV-I 0 W/m 8,2 C 9,4 C 0,0 km/h (0 Bft)
30/09/2023 06:40 9,3 C 8,3 C 17,2 C 16,7 C 16,7 C 92 % 15 lf 15 lf 24 cb 1 cb 2 cb 1025,4 hPa 0,0 mm 0,8 km/h (0 Bft) S-SO 211 0 min 0,000 mm 0,0 UV-I 0 W/m 8,1 C 9,3 C 1,6 km/h (1 Bft)
30/09/2023 06:38 9,3 C 8,9 C 17,2 C 16,7 C 16,7 C 92 % 15 lf 15 lf 24 cb 1 cb 2 cb 1025,3 hPa 0,0 mm 0,7 km/h (0 Bft) S-SO 211 0 min 0,000 mm 0,0 UV-I 0 W/m 8,1 C 9,3 C 1,6 km/h (1 Bft)
30/09/2023 06:36 9,4 C 8,9 C 17,2 C 16,7 C 16,7 C 92 % 15 lf 15 lf 24 cb 1 cb 2 cb 1025,2 hPa 0,0 mm 1,5 km/h (1 Bft) S-SO 211 0 min 0,000 mm 0,0 UV-I 0 W/m 8,2 C 9,4 C 3,2 km/h (1 Bft)
30/09/2023 06:34 9,4 C 8,9 C 17,2 C 16,7 C 16,7 C 92 % 15 lf 15 lf 24 cb 1 cb 2 cb 1025,3 hPa 0,0 mm 1,6 km/h (1 Bft) S-SO 211 0 min 0,000 mm 0,0 UV-I 0 W/m 8,2 C 9,4 C 3,2 km/h (1 Bft)
30/09/2023 06:32 9,5 C 8,9 C 17,2 C 16,7 C 16,7 C 92 % 15 lf 15 lf 24 cb 1 cb 2 cb 1025,3 hPa 0,0 mm 1,5 km/h (1 Bft) S-SO 211 0 min 0,000 mm 0,0 UV-I 0 W/m 8,3 C 9,5 C 3,2 km/h (1 Bft)
30/09/2023 06:30 9,6 C 8,9 C 17,2 C 16,7 C 16,7 C 92 % 15 lf 15 lf 24 cb 1 cb 2 cb 1025,3 hPa 0,0 mm 1,7 km/h (1 Bft) S-SO 211 0 min 0,000 mm 0,0 UV-I 0 W/m 8,4 C 9,6 C 3,2 km/h (1 Bft)
30/09/2023 06:28 9,7 C 8,9 C 17,2 C 16,7 C 16,7 C 92 % 15 lf 15 lf 24 cb 1 cb 2 cb 1025,3 hPa 0,0 mm 2,4 km/h (1 Bft) S-SO 211 0 min 0,000 mm 0,0 UV-I 0 W/m 8,5 C 9,7 C 3,2 km/h (1 Bft)
30/09/2023 06:26 9,7 C 8,9 C 17,2 C 16,7 C 16,7 C 92 % 15 lf 15 lf 24 cb 1 cb 2 cb 1025,3 hPa 0,0 mm 2,7 km/h (1 Bft) S-SO 211 0 min 0,000 mm 0,0 UV-I 0 W/m 8,5 C 9,7 C 4,8 km/h (1 Bft)
30/09/2023 06:24 9,8 C 8,9 C 17,2 C 16,7 C 16,7 C 92 % 15 lf 15 lf 24 cb 1 cb 2 cb 1025,4 hPa 0,0 mm 1,8 km/h (1 Bft) S-SO 211 0 min 0,000 mm 0,0 UV-I 0 W/m 8,6 C 9,8 C 3,2 km/h (1 Bft)
30/09/2023 06:22 9,8 C 8,9 C 17,2 C 16,7 C 16,7 C 92 % 15 lf 15 lf 24 cb 1 cb 2 cb 1025,3 hPa 0,0 mm 1,8 km/h (1 Bft) S-SO 213 0 min 0,000 mm 0,0 UV-I 0 W/m 8,6 C 9,8 C 3,2 km/h (1 Bft)
30/09/2023 06:20 9,9 C 8,9 C 17,2 C 16,7 C 16,7 C 92 % 15 lf 15 lf 24 cb 1 cb 2 cb 1025,4 hPa 0,0 mm 2,4 km/h (1 Bft) S-SO 213 0 min 0,000 mm 0,0 UV-I 0 W/m 8,7 C 9,9 C 3,2 km/h (1 Bft)
30/09/2023 06:18 9,9 C 8,9 C 17,2 C 16,7 C 16,7 C 92 % 15 lf 15 lf 24 cb 1 cb 2 cb 1025,5 hPa 0,0 mm 3,1 km/h (1 Bft) S-SO 213 0 min 0,000 mm 0,0 UV-I 0 W/m 8,7 C 9,9 C 4,8 km/h (1 Bft)
30/09/2023 06:16 9,9 C 8,9 C 17,2 C 16,7 C 16,7 C 92 % 15 lf 15 lf 24 cb 1 cb 2 cb 1025,6 hPa 0,0 mm 1,5 km/h (1 Bft) S-SO 212 0 min 0,000 mm 0,0 UV-I 0 W/m 8,7 C 9,9 C 3,2 km/h (1 Bft)
30/09/2023 06:14 9,9 C 8,9 C 17,2 C 16,7 C 16,7 C 92 % 15 lf 15 lf 24 cb 1 cb 2 cb 1025,6 hPa 0,0 mm 2,2 km/h (1 Bft) S-SO 212 0 min 0,000 mm 0,0 UV-I 0 W/m 8,7 C 9,9 C 3,2 km/h (1 Bft)
30/09/2023 06:12 9,9 C 8,9 C 17,2 C 16,7 C 16,7 C 92 % 15 lf 15 lf 24 cb 1 cb 2 cb 1025,6 hPa 0,0 mm 2,4 km/h (1 Bft) S-SO 212 0 min 0,000 mm 0,0 UV-I 0 W/m 8,7 C 9,9 C 3,2 km/h (1 Bft)
30/09/2023 06:10 9,9 C 8,9 C 17,2 C 16,7 C 16,7 C 92 % 15 lf 15 lf 24 cb 1 cb 2 cb 1025,6 hPa 0,0 mm 2,3 km/h (1 Bft) S-SO 212 0 min 0,000 mm 0,0 UV-I 0 W/m 8,7 C 9,9 C 3,2 km/h (1 Bft)
30/09/2023 06:08 9,8 C 8,9 C 17,2 C 16,7 C 16,7 C 92 % 15 lf 15 lf 24 cb 1 cb 2 cb 1025,6 hPa 0,0 mm 2,3 km/h (1 Bft) S-SO 212 0 min 0,000 mm 0,0 UV-I 0 W/m 8,6 C 9,8 C 3,2 km/h (1 Bft)
30/09/2023 06:06 9,8 C 8,9 C 17,2 C 16,7 C 16,7 C 92 % 15 lf 15 lf 24 cb 1 cb 2 cb 1025,6 hPa 0,0 mm 1,4 km/h (1 Bft) S-SO 212 0 min 0,000 mm 0,0 UV-I 0 W/m 8,6 C 9,8 C 3,2 km/h (1 Bft)
30/09/2023 06:04 9,8 C 8,9 C 17,2 C 16,7 C 16,7 C 92 % 15 lf 15 lf 24 cb 1 cb 2 cb 1025,6 hPa 0,0 mm 1,3 km/h (1 Bft) S-SO 212 0 min 0,000 mm 0,0 UV-I 0 W/m 8,6 C 9,8 C 3,2 km/h (1 Bft)
30/09/2023 06:02 9,8 C 8,9 C 17,2 C 16,7 C 16,7 C 92 % 15 lf 15 lf 24 cb 1 cb 2 cb 1025,5 hPa 0,0 mm 0,0 km/h (0 Bft) S-SO 212 0 min 0,000 mm 0,0 UV-I 0 W/m 8,6 C 9,8 C 1,6 km/h (1 Bft)
30/09/2023 06:00 9,8 C 8,9 C 17,2 C 16,7 C 16,7 C 92 % 15 lf 15 lf 24 cb 1 cb 2 cb 1025,5 hPa 0,0 mm 1,3 km/h (1 Bft) S-SO 212 0 min 0,000 mm 0,0 UV-I 0 W/m 8,6 C 9,8 C 3,2 km/h (1 Bft)
30/09/2023 05:58 9,8 C 8,9 C 17,2 C 16,7 C 16,7 C 92 % 15 lf 15 lf 24 cb 1 cb 2 cb 1025,5 hPa 0,0 mm 1,7 km/h (1 Bft) S-SO 212 0 min 0,000 mm 0,0 UV-I 0 W/m 8,6 C 9,8 C 3,2 km/h (1 Bft)
30/09/2023 05:56 9,7 C 8,9 C 17,2 C 16,7 C 16,7 C 92 % 14 lf 15 lf 24 cb 1 cb 2 cb 1025,5 hPa 0,0 mm 1,5 km/h (1 Bft) S-SO 212 0 min 0,000 mm 0,0 UV-I 0 W/m 8,5 C 9,7 C 3,2 km/h (1 Bft)
30/09/2023 05:54 9,7 C 8,9 C 17,2 C 16,7 C 16,7 C 92 % 14 lf 15 lf 24 cb 1 cb 2 cb 1025,4 hPa 0,0 mm 2,1 km/h (1 Bft) S-SO 212 0 min 0,000 mm 0,0 UV-I 0 W/m 8,5 C 9,7 C 4,8 km/h (1 Bft)
30/09/2023 05:52 9,6 C 8,9 C 17,2 C 16,7 C 16,7 C 92 % 14 lf 15 lf 24 cb 1 cb 2 cb 1025,4 hPa 0,0 mm 2,7 km/h (1 Bft) SO 231 0 min 0,000 mm 0,0 UV-I 0 W/m 8,4 C 9,6 C 3,2 km/h (1 Bft)
30/09/2023 05:50 9,6 C 8,9 C 17,2 C 16,7 C 16,7 C 92 % 14 lf 15 lf 24 cb 1 cb 2 cb 1025,5 hPa 0,0 mm 2,7 km/h (1 Bft) SO 231 0 min 0,000 mm 0,0 UV-I 0 W/m 8,4 C 9,6 C 4,8 km/h (1 Bft)
30/09/2023 05:48 9,5 C 8,9 C 17,2 C 16,7 C 16,7 C 92 % 14 lf 15 lf 24 cb 1 cb 2 cb 1025,5 hPa 0,0 mm 2,7 km/h (1 Bft) SO 231 0 min 0,000 mm 0,0 UV-I 0 W/m 8,3 C 9,5 C 3,2 km/h (1 Bft)
30/09/2023 05:46 9,4 C 8,9 C 17,2 C 16,7 C 16,7 C 92 % 14 lf 15 lf 24 cb 1 cb 2 cb 1025,4 hPa 0,0 mm 2,5 km/h (1 Bft) SO 231 0 min 0,000 mm 0,0 UV-I 0 W/m 8,2 C 9,4 C 4,8 km/h (1 Bft)
30/09/2023 05:44 9,6 C 8,9 C 17,2 C 16,7 C 16,7 C 92 % 14 lf 15 lf 24 cb 1 cb 2 cb 1025,4 hPa 0,0 mm 0,3 km/h (0 Bft) SO 231 0 min 0,000 mm 0,0 UV-I 0 W/m 8,4 C 9,6 C 1,6 km/h (1 Bft)
30/09/2023 05:42 9,7 C 8,9 C 17,2 C 16,7 C 16,7 C 92 % 14 lf 15 lf 24 cb 1 cb 2 cb 1025,5 hPa 0,0 mm 0,1 km/h (0 Bft) SO 231 0 min 0,000 mm 0,0 UV-I 0 W/m 8,5 C 9,7 C 1,6 km/h (1 Bft)
30/09/2023 05:40 9,7 C 8,9 C 17,2 C 16,7 C 16,7 C 92 % 14 lf 15 lf 24 cb 1 cb 2 cb 1025,5 hPa 0,0 mm 1,3 km/h (1 Bft) SO 231 0 min 0,000 mm 0,0 UV-I 0 W/m 8,5 C 9,7 C 3,2 km/h (1 Bft)
30/09/2023 05:38 9,7 C 8,9 C 17,2 C 16,7 C 16,7 C 92 % 14 lf 15 lf 24 cb 1 cb 2 cb 1025,6 hPa 0,0 mm 1,5 km/h (1 Bft) SO 231 0 min 0,000 mm 0,0 UV-I 0 W/m 8,5 C 9,7 C 3,2 km/h (1 Bft)
30/09/2023 05:36 9,7 C 8,9 C 17,2 C 16,7 C 16,7 C 92 % 14 lf 15 lf 24 cb 1 cb 2 cb 1025,5 hPa 0,0 mm 1,7 km/h (1 Bft) SO 231 0 min 0,000 mm 0,0 UV-I 0 W/m 8,5 C 9,7 C 3,2 km/h (1 Bft)
30/09/2023 05:34 9,8 C 8,9 C 17,2 C 16,7 C 16,7 C 92 % 14 lf 15 lf 24 cb 1 cb 2 cb 1025,5 hPa 0,0 mm 2,2 km/h (1 Bft) SO 231 0 min 0,000 mm 0,0 UV-I 0 W/m 8,6 C 9,8 C 3,2 km/h (1 Bft)
30/09/2023 05:32 9,7 C 8,9 C 17,2 C 16,7 C 16,7 C 92 % 14 lf 15 lf 24 cb 1 cb 2 cb 1025,4 hPa 0,0 mm 2,8 km/h (1 Bft) SO 231 0 min 0,000 mm 0,0 UV-I 0 W/m 8,5 C 9,7 C 4,8 km/h (1 Bft)
30/09/2023 05:30 9,6 C 8,9 C 17,2 C 16,7 C 16,7 C 92 % 14 lf 15 lf 24 cb 1 cb 2 cb 1025,3 hPa 0,0 mm 3,0 km/h (1 Bft) SO 231 0 min 0,000 mm 0,0 UV-I 0 W/m 8,4 C 9,6 C 4,8 km/h (1 Bft)
30/09/2023 05:28 9,5 C 8,9 C 17,2 C 16,7 C 16,7 C 91 % 14 lf 15 lf 24 cb 1 cb 2 cb 1025,3 hPa 0,0 mm 2,4 km/h (1 Bft) O-SO 249 0 min 0,000 mm 0,0 UV-I 0 W/m 8,1 C 9,5 C 3,2 km/h (1 Bft)
30/09/2023 05:26 9,5 C 8,9 C 17,2 C 16,7 C 16,7 C 92 % 14 lf 15 lf 24 cb 1 cb 2 cb 1025,4 hPa 0,0 mm 2,3 km/h (1 Bft) O-SO 250 0 min 0,000 mm 0,0 UV-I 0 W/m 8,3 C 9,5 C 3,2 km/h (1 Bft)
30/09/2023 05:24 9,6 C 8,9 C 17,2 C 16,7 C 16,7 C 91 % 14 lf 15 lf 24 cb 1 cb 2 cb 1025,5 hPa 0,0 mm 2,1 km/h (1 Bft) O-SO 250 0 min 0,000 mm 0,0 UV-I 0 W/m 8,2 C 9,6 C 3,2 km/h (1 Bft)
30/09/2023 05:22 9,4 C 8,9 C 17,2 C 16,7 C 16,7 C 91 % 14 lf 15 lf 24 cb 1 cb 2 cb 1025,4 hPa 0,0 mm 2,4 km/h (1 Bft) O-SO 250 0 min 0,000 mm 0,0 UV-I 0 W/m 8,0 C 9,4 C 3,2 km/h (1 Bft)
30/09/2023 05:20 9,4 C 8,9 C 17,2 C 16,7 C 16,7 C 91 % 14 lf 15 lf 24 cb 1 cb 2 cb 1025,5 hPa 0,0 mm 1,7 km/h (1 Bft) O-SO 252 0 min 0,000 mm 0,0 UV-I 0 W/m 8,0 C 9,4 C 3,2 km/h (1 Bft)
30/09/2023 05:18 9,5 C 9,4 C 17,2 C 16,7 C 16,7 C 91 % 14 lf 15 lf 24 cb 1 cb 2 cb 1025,5 hPa 0,0 mm 0,9 km/h (0 Bft) O-SO 253 0 min 0,000 mm 0,0 UV-I 0 W/m 8,1 C 9,5 C 1,6 km/h (1 Bft)
30/09/2023 05:16 9,6 C 9,4 C 17,2 C 16,7 C 16,7 C 91 % 14 lf 15 lf 24 cb 1 cb 2 cb 1025,5 hPa 0,0 mm 0,0 km/h (0 Bft) O-SO 253 0 min 0,000 mm 0,0 UV-I 0 W/m 8,2 C 9,6 C 0,0 km/h (0 Bft)
30/09/2023 05:14 9,6 C 9,4 C 17,2 C 16,7 C 16,7 C 91 % 14 lf 15 lf 24 cb 1 cb 2 cb 1025,5 hPa 0,0 mm 0,0 km/h (0 Bft) O-SO 253 0 min 0,000 mm 0,0 UV-I 0 W/m 8,2 C 9,6 C 0,0 km/h (0 Bft)
30/09/2023 05:12 9,6 C 9,4 C 17,2 C 16,7 C 16,7 C 91 % 14 lf 15 lf 24 cb 1 cb 2 cb 1025,5 hPa 0,0 mm 0,0 km/h (0 Bft) O-SO 253 0 min 0,000 mm 0,0 UV-I 0 W/m 8,2 C 9,6 C 0,0 km/h (0 Bft)
30/09/2023 05:10 9,7 C 9,4 C 17,2 C 16,7 C 16,7 C 91 % 14 lf 15 lf 24 cb 1 cb 2 cb 1025,6 hPa 0,0 mm 0,0 km/h (0 Bft) O-SO 253 0 min 0,000 mm 0,0 UV-I 0 W/m 8,3 C 9,7 C 0,0 km/h (0 Bft)
30/09/2023 05:08 9,8 C 9,4 C 17,2 C 16,7 C 16,7 C 91 % 14 lf 15 lf 24 cb 1 cb 2 cb 1025,6 hPa 0,0 mm 0,0 km/h (0 Bft) O-SO 253 0 min 0,000 mm 0,0 UV-I 0 W/m 8,4 C 9,8 C 0,0 km/h (0 Bft)
30/09/2023 05:06 9,9 C 9,4 C 17,2 C 16,7 C 16,7 C 91 % 14 lf 15 lf 24 cb 1 cb 2 cb 1025,5 hPa 0,0 mm 0,0 km/h (0 Bft) O-SO 253 0 min 0,000 mm 0,0 UV-I 0 W/m 8,5 C 9,9 C 0,0 km/h (0 Bft)
30/09/2023 05:04 9,9 C 9,4 C 17,2 C 16,7 C 16,7 C 91 % 14 lf 15 lf 24 cb 1 cb 2 cb 1025,5 hPa 0,0 mm 0,2 km/h (0 Bft) O-SO 253 0 min 0,000 mm 0,0 UV-I 0 W/m 8,5 C 9,9 C 1,6 km/h (1 Bft)
30/09/2023 05:02 9,8 C 9,4 C 17,2 C 16,7 C 16,7 C 91 % 14 lf 15 lf 24 cb 1 cb 2 cb 1025,5 hPa 0,0 mm 1,2 km/h (1 Bft) O-SO 253 0 min 0,000 mm 0,0 UV-I 0 W/m 8,4 C 9,8 C 1,6 km/h (1 Bft)
30/09/2023 05:00 9,9 C 9,4 C 17,2 C 16,7 C 16,7 C 91 % 14 lf 15 lf 24 cb 1 cb 2 cb 1025,5 hPa 0,0 mm 0,7 km/h (0 Bft) O-SO 253 0 min 0,000 mm 0,0 UV-I 0 W/m 8,5 C 9,9 C 1,6 km/h (1 Bft)
30/09/2023 04:58 10,1 C 9,4 C 17,2 C 16,7 C 16,7 C 91 % 14 lf 15 lf 24 cb 1 cb 2 cb 1025,5 hPa 0,0 mm 0,0 km/h (0 Bft) O-SO 253 0 min 0,000 mm 0,0 UV-I 0 W/m 8,7 C 10,1 C 0,0 km/h (0 Bft)
30/09/2023 04:56 10,1 C 9,4 C 17,2 C 16,7 C 16,7 C 91 % 14 lf 15 lf 24 cb 1 cb 2 cb 1025,6 hPa 0,0 mm 0,0 km/h (0 Bft) O-SO 253 0 min 0,000 mm 0,0 UV-I 0 W/m 8,7 C 10,1 C 0,0 km/h (0 Bft)
30/09/2023 04:54 10,1 C 9,4 C 17,2 C 16,7 C 16,7 C 91 % 14 lf 15 lf 24 cb 1 cb 2 cb 1025,6 hPa 0,0 mm 0,0 km/h (0 Bft) O-SO 253 0 min 0,000 mm 0,0 UV-I 0 W/m 8,7 C 10,1 C 0,0 km/h (0 Bft)
30/09/2023 04:52 9,9 C 9,4 C 17,2 C 16,7 C 16,7 C 91 % 14 lf 15 lf 24 cb 1 cb 2 cb 1025,6 hPa 0,0 mm 0,9 km/h (0 Bft) O-SO 253 0 min 0,000 mm 0,0 UV-I 0 W/m 8,5 C 9,9 C 3,2 km/h (1 Bft)
30/09/2023 04:50 10,0 C 9,4 C 17,2 C 16,7 C 16,7 C 91 % 14 lf 15 lf 24 cb 1 cb 2 cb 1025,6 hPa 0,0 mm 1,3 km/h (1 Bft) O-SO 253 0 min 0,000 mm 0,0 UV-I 0 W/m 8,6 C 10,0 C 1,6 km/h (1 Bft)
30/09/2023 04:48 10,1 C 10,0 C 17,2 C 16,7 C 16,7 C 91 % 14 lf 15 lf 24 cb 1 cb 2 cb 1025,6 hPa 0,0 mm 0,5 km/h (0 Bft) O-SO 253 0 min 0,000 mm 0,0 UV-I 0 W/m 8,7 C 10,1 C 1,6 km/h (1 Bft)
30/09/2023 04:46 10,3 C 10,0 C 17,2 C 16,7 C 16,7 C 91 % 14 lf 15 lf 24 cb 1 cb 2 cb 1025,6 hPa 0,0 mm 0,0 km/h (0 Bft) O-SO 253 0 min 0,000 mm 0,0 UV-I 0 W/m 8,9 C 10,3 C 0,0 km/h (0 Bft)
30/09/2023 04:44 10,3 C 10,0 C 17,2 C 16,7 C 16,7 C 91 % 14 lf 15 lf 24 cb 1 cb 2 cb 1025,6 hPa 0,0 mm 0,1 km/h (0 Bft) O-SO 253 0 min 0,000 mm 0,0 UV-I 0 W/m 8,9 C 10,3 C 1,6 km/h (1 Bft)
30/09/2023 04:42 10,3 C 10,0 C 17,2 C 16,7 C 16,7 C 91 % 13 lf 15 lf 24 cb 1 cb 2 cb 1025,5 hPa 0,0 mm 0,7 km/h (0 Bft) O-SO 253 0 min 0,000 mm 0,0 UV-I 0 W/m 8,9 C 10,3 C 3,2 km/h (1 Bft)
30/09/2023 04:40 10,4 C 10,0 C 17,2 C 16,7 C 16,7 C 91 % 13 lf 15 lf 24 cb 1 cb 2 cb 1025,5 hPa 0,0 mm 0,6 km/h (0 Bft) O-SO 253 0 min 0,000 mm 0,0 UV-I 0 W/m 9,0 C 10,4 C 1,6 km/h (1 Bft)
30/09/2023 04:38 10,3 C 10,0 C 17,2 C 16,7 C 16,7 C 91 % 13 lf 15 lf 24 cb 1 cb 2 cb 1025,6 hPa 0,0 mm 0,1 km/h (0 Bft) O-SO 253 0 min 0,000 mm 0,0 UV-I 0 W/m 8,9 C 10,3 C 1,6 km/h (1 Bft)
30/09/2023 04:36 10,2 C 10,0 C 17,2 C 16,7 C 16,7 C 91 % 13 lf 15 lf 24 cb 1 cb 2 cb 1025,5 hPa 0,0 mm 1,4 km/h (1 Bft) O-SO 253 0 min 0,000 mm 0,0 UV-I 0 W/m 8,8 C 10,2 C 3,2 km/h (1 Bft)
30/09/2023 04:34 10,2 C 10,0 C 17,2 C 16,7 C 16,7 C 91 % 13 lf 15 lf 24 cb 1 cb 2 cb 1025,5 hPa 0,0 mm 2,8 km/h (1 Bft) O-SO 253 0 min 0,000 mm 0,0 UV-I 0 W/m 8,8 C 10,2 C 3,2 km/h (1 Bft)
30/09/2023 04:32 10,2 C 10,0 C 17,2 C 16,7 C 16,7 C 91 % 13 lf 15 lf 24 cb 1 cb 2 cb 1025,5 hPa 0,0 mm 0,0 km/h (0 Bft) O-SO 254 0 min 0,000 mm 0,0 UV-I 0 W/m 8,8 C 10,2 C 0,0 km/h (0 Bft)
30/09/2023 04:30 10,4 C 10,0 C 17,2 C 16,7 C 16,7 C 91 % 13 lf 15 lf 24 cb 1 cb 2 cb 1025,5 hPa 0,0 mm 0,0 km/h (0 Bft) O-SO 254 0 min 0,000 mm 0,0 UV-I 0 W/m 9,0 C 10,4 C 0,0 km/h (0 Bft)
30/09/2023 04:28 10,4 C 10,0 C 17,2 C 16,7 C 16,7 C 91 % 13 lf 15 lf 24 cb 1 cb 2 cb 1025,5 hPa 0,0 mm 0,0 km/h (0 Bft) O-SO 254 0 min 0,000 mm 0,0 UV-I 0 W/m 9,0 C 10,4 C 0,0 km/h (0 Bft)
30/09/2023 04:26 10,4 C 10,0 C 17,2 C 16,7 C 16,7 C 91 % 13 lf 15 lf 24 cb 1 cb 2 cb 1025,5 hPa 0,0 mm 0,0 km/h (0 Bft) O-SO 254 0 min 0,000 mm 0,0 UV-I 0 W/m 9,0 C 10,4 C 0,0 km/h (0 Bft)
30/09/2023 04:24 10,4 C 10,0 C 17,2 C 16,7 C 16,7 C 91 % 13 lf 15 lf 24 cb 1 cb 2 cb 1025,6 hPa 0,0 mm 0,0 km/h (0 Bft) O-SO 254 0 min 0,000 mm 0,0 UV-I 0 W/m 9,0 C 10,4 C 0,0 km/h (0 Bft)
30/09/2023 04:22 10,5 C 10,6 C 17,2 C 16,7 C 16,7 C 91 % 13 lf 15 lf 24 cb 1 cb 2 cb 1025,6 hPa 0,0 mm 0,5 km/h (0 Bft) O-SO 254 0 min 0,000 mm 0,0 UV-I 0 W/m 9,1 C 10,5 C 1,6 km/h (1 Bft)
30/09/2023 04:20 10,6 C 10,6 C 17,2 C 16,7 C 16,7 C 91 % 13 lf 15 lf 24 cb 1 cb 2 cb 1025,5 hPa 0,0 mm 0,7 km/h (0 Bft) O-SO 254 0 min 0,000 mm 0,0 UV-I 0 W/m 9,2 C 10,6 C 1,6 km/h (1 Bft)
30/09/2023 04:18 10,6 C 10,6 C 17,2 C 16,7 C 16,7 C 91 % 13 lf 15 lf 24 cb 1 cb 2 cb 1025,4 hPa 0,0 mm 0,6 km/h (0 Bft) O-SO 254 0 min 0,000 mm 0,0 UV-I 0 W/m 9,2 C 10,6 C 1,6 km/h (1 Bft)
30/09/2023 04:16 10,7 C 10,6 C 17,2 C 16,7 C 16,7 C 91 % 13 lf 15 lf 24 cb 1 cb 2 cb 1025,4 hPa 0,0 mm 0,0 km/h (0 Bft) O-SO 254 0 min 0,000 mm 0,0 UV-I 0 W/m 9,3 C 10,7 C 0,0 km/h (0 Bft)
30/09/2023 04:14 10,6 C 10,6 C 17,2 C 16,7 C 16,7 C 91 % 13 lf 15 lf 24 cb 1 cb 2 cb 1025,4 hPa 0,0 mm 0,0 km/h (0 Bft) O-SO 254 0 min 0,000 mm 0,0 UV-I 0 W/m 9,2 C 10,6 C 1,6 km/h (1 Bft)
30/09/2023 04:12 10,7 C 10,6 C 17,2 C 16,7 C 16,7 C 91 % 13 lf 15 lf 24 cb 1 cb 2 cb 1025,4 hPa 0,0 mm 0,0 km/h (0 Bft) O-SO 254 0 min 0,000 mm 0,0 UV-I 0 W/m 9,3 C 10,7 C 0,0 km/h (0 Bft)
30/09/2023 04:10 10,7 C 10,6 C 17,2 C 16,7 C 16,7 C 91 % 13 lf 15 lf 24 cb 1 cb 2 cb 1025,4 hPa 0,0 mm 0,0 km/h (0 Bft) O-SO 254 0 min 0,000 mm 0,0 UV-I 0 W/m 9,3 C 10,7 C 0,0 km/h (0 Bft)
30/09/2023 04:08 10,7 C 10,6 C 17,2 C 16,7 C 16,7 C 91 % 13 lf 15 lf 24 cb 1 cb 2 cb 1025,4 hPa 0,0 mm 0,0 km/h (0 Bft) O-SO 254 0 min 0,000 mm 0,0 UV-I 0 W/m 9,3 C 10,7 C 0,0 km/h (0 Bft)
30/09/2023 04:06 10,7 C 10,6 C 17,2 C 16,7 C 16,7 C 91 % 13 lf 15 lf 24 cb 1 cb 2 cb 1025,4 hPa 0,0 mm 0,0 km/h (0 Bft) O-SO 254 0 min 0,000 mm 0,0 UV-I 0 W/m 9,3 C 10,7 C 0,0 km/h (0 Bft)
30/09/2023 04:04 10,6 C 10,6 C 17,2 C 16,7 C 16,7 C 91 % 13 lf 15 lf 24 cb 1 cb 2 cb 1025,5 hPa 0,0 mm 1,4 km/h (1 Bft) O-SO 254 0 min 0,000 mm 0,0 UV-I 0 W/m 9,2 C 10,6 C 3,2 km/h (1 Bft)
30/09/2023 04:02 10,6 C 10,6 C 17,2 C 16,7 C 16,7 C 91 % 13 lf 15 lf 24 cb 1 cb 2 cb 1025,4 hPa 0,0 mm 1,8 km/h (1 Bft) O-SO 254 0 min 0,000 mm 0,0 UV-I 0 W/m 9,2 C 10,6 C 3,2 km/h (1 Bft)
30/09/2023 04:00 10,6 C 10,6 C 17,2 C 16,7 C 16,7 C 91 % 13 lf 15 lf 24 cb 1 cb 2 cb 1025,4 hPa 0,0 mm 1,3 km/h (1 Bft) O-SO 254 0 min 0,000 mm 0,0 UV-I 0 W/m 9,2 C 10,6 C 3,2 km/h (1 Bft)
30/09/2023 03:58 10,7 C 10,6 C 17,2 C 16,7 C 16,7 C 91 % 13 lf 15 lf 24 cb 1 cb 2 cb 1025,5 hPa 0,0 mm 1,4 km/h (1 Bft) O-SO 254 0 min 0,000 mm 0,0 UV-I 0 W/m 9,3 C 10,7 C 3,2 km/h (1 Bft)
30/09/2023 03:56 10,7 C 10,6 C 17,2 C 16,7 C 16,7 C 91 % 13 lf 15 lf 24 cb 1 cb 2 cb 1025,5 hPa 0,0 mm 1,1 km/h (1 Bft) O-SO 254 0 min 0,000 mm 0,0 UV-I 0 W/m 9,3 C 10,7 C 1,6 km/h (1 Bft)
30/09/2023 03:54 10,7 C 10,6 C 17,2 C 16,7 C 16,7 C 91 % 13 lf 15 lf 24 cb 1 cb 2 cb 1025,5 hPa 0,0 mm 0,6 km/h (0 Bft) O-SO 254 0 min 0,000 mm 0,0 UV-I 0 W/m 9,3 C 10,7 C 3,2 km/h (1 Bft)
30/09/2023 03:52 10,7 C 10,6 C 17,2 C 16,7 C 16,7 C 91 % 13 lf 15 lf 24 cb 1 cb 2 cb 1025,5 hPa 0,0 mm 0,0 km/h (0 Bft) O-SO 254 0 min 0,000 mm 0,0 UV-I 0 W/m 9,3 C 10,7 C 0,0 km/h (0 Bft)
30/09/2023 03:50 10,8 C 10,6 C 17,2 C 16,7 C 16,7 C 91 % 13 lf 15 lf 24 cb 1 cb 2 cb 1025,6 hPa 0,0 mm 0,6 km/h (0 Bft) O-SO 254 0 min 0,000 mm 0,0 UV-I 0 W/m 9,4 C 10,8 C 1,6 km/h (1 Bft)
30/09/2023 03:48 10,8 C 10,6 C 17,2 C 16,7 C 16,7 C 91 % 13 lf 15 lf 24 cb 1 cb 2 cb 1025,5 hPa 0,0 mm 0,0 km/h (0 Bft) O-SO 254 0 min 0,000 mm 0,0 UV-I 0 W/m 9,4 C 10,8 C 0,0 km/h (0 Bft)
30/09/2023 03:46 10,8 C 10,6 C 17,2 C 16,7 C 16,7 C 91 % 13 lf 15 lf 24 cb 1 cb 2 cb 1025,4 hPa 0,0 mm 0,0 km/h (0 Bft) O-SO 254 0 min 0,000 mm 0,0 UV-I 0 W/m 9,4 C 10,8 C 0,0 km/h (0 Bft)
30/09/2023 03:44 10,9 C 10,6 C 17,2 C 16,7 C 16,7 C 91 % 13 lf 15 lf 24 cb 1 cb 2 cb 1025,4 hPa 0,0 mm 0,0 km/h (0 Bft) O-SO 254 0 min 0,000 mm 0,0 UV-I 0 W/m 9,5 C 10,9 C 0,0 km/h (0 Bft)
30/09/2023 03:42 11,1 C 10,6 C 17,2 C 16,7 C 16,7 C 91 % 13 lf 15 lf 24 cb 1 cb 2 cb 1025,4 hPa 0,0 mm 0,0 km/h (0 Bft) O-SO 254 0 min 0,000 mm 0,0 UV-I 0 W/m 9,7 C 11,1 C 0,0 km/h (0 Bft)
30/09/2023 03:40 11,1 C 10,6 C 17,2 C 16,7 C 16,7 C 91 % 13 lf 15 lf 24 cb 1 cb 2 cb 1025,6 hPa 0,0 mm 0,0 km/h (0 Bft) O-SO 254 0 min 0,000 mm 0,0 UV-I 0 W/m 9,7 C 11,1 C 0,0 km/h (0 Bft)
30/09/2023 03:38 11,0 C 10,6 C 17,2 C 16,7 C 16,7 C 91 % 13 lf 15 lf 24 cb 1 cb 2 cb 1025,6 hPa 0,0 mm 0,4 km/h (0 Bft) O-SO 254 0 min 0,000 mm 0,0 UV-I 0 W/m 9,6 C 11,0 C 1,6 km/h (1 Bft)
30/09/2023 03:36 10,9 C 10,6 C 17,2 C 16,7 C 16,7 C 91 % 13 lf 15 lf 24 cb 1 cb 2 cb 1025,6 hPa 0,0 mm 0,2 km/h (0 Bft) O-SO 254 0 min 0,000 mm 0,0 UV-I 0 W/m 9,5 C 10,9 C 1,6 km/h (1 Bft)
30/09/2023 03:34 11,0 C 10,6 C 17,2 C 16,7 C 16,7 C 91 % 13 lf 15 lf 24 cb 1 cb 2 cb 1025,7 hPa 0,0 mm 0,0 km/h (0 Bft) O-SO 254 0 min 0,000 mm 0,0 UV-I 0 W/m 9,6 C 11,0 C 0,0 km/h (0 Bft)
30/09/2023 03:32 11,1 C 10,6 C 17,2 C 16,7 C 16,7 C 91 % 13 lf 15 lf 24 cb 1 cb 2 cb 1025,6 hPa 0,0 mm 0,0 km/h (0 Bft) O-SO 254 0 min 0,000 mm 0,0 UV-I 0 W/m 9,7 C 11,1 C 0,0 km/h (0 Bft)
30/09/2023 03:30 11,2 C 10,6 C 17,2 C 16,7 C 16,7 C 91 % 13 lf 15 lf 24 cb 1 cb 2 cb 1025,5 hPa 0,0 mm 0,0 km/h (0 Bft) O-SO 254 0 min 0,000 mm 0,0 UV-I 0 W/m 9,8 C 11,2 C 0,0 km/h (0 Bft)
30/09/2023 03:28 11,2 C 10,6 C 17,2 C 16,7 C 16,7 C 91 % 13 lf 15 lf 24 cb 1 cb 2 cb 1025,5 hPa 0,0 mm 0,0 km/h (0 Bft) O-SO 254 0 min 0,000 mm 0,0 UV-I 0 W/m 9,8 C 11,2 C 0,0 km/h (0 Bft)
30/09/2023 03:26 11,2 C 10,6 C 17,2 C 16,7 C 16,7 C 91 % 13 lf 15 lf 24 cb 1 cb 2 cb 1025,4 hPa 0,0 mm 0,0 km/h (0 Bft) O-SO 254 0 min 0,000 mm 0,0 UV-I 0 W/m 9,8 C 11,2 C 0,0 km/h (0 Bft)
30/09/2023 03:24 11,2 C 10,6 C 17,2 C 16,7 C 16,7 C 91 % 13 lf 14 lf 24 cb 1 cb 2 cb 1025,5 hPa 0,0 mm 0,0 km/h (0 Bft) O-SO 254 0 min 0,000 mm 0,0 UV-I 0 W/m 9,8 C 11,2 C 0,0 km/h (0 Bft)
30/09/2023 03:22 11,2 C 10,6 C 17,2 C 16,7 C 16,7 C 91 % 13 lf 14 lf 24 cb 1 cb 2 cb 1025,5 hPa 0,0 mm 0,4 km/h (0 Bft) O-SO 254 0 min 0,000 mm 0,0 UV-I 0 W/m 9,8 C 11,2 C 1,6 km/h (1 Bft)
30/09/2023 03:20 11,2 C 10,6 C 17,2 C 16,7 C 16,7 C 91 % 13 lf 14 lf 24 cb 1 cb 2 cb 1025,4 hPa 0,0 mm 1,0 km/h (0 Bft) O-SO 254 0 min 0,000 mm 0,0 UV-I 0 W/m 9,8 C 11,2 C 3,2 km/h (1 Bft)
30/09/2023 03:18 11,2 C 10,6 C 17,2 C 16,7 C 16,7 C 91 % 13 lf 14 lf 24 cb 1 cb 2 cb 1025,3 hPa 0,0 mm 2,6 km/h (1 Bft) O-SO 254 0 min 0,000 mm 0,0 UV-I 0 W/m 9,8 C 11,2 C 4,8 km/h (1 Bft)
30/09/2023 03:16 11,2 C 11,1 C 17,2 C 16,7 C 16,7 C 91 % 13 lf 14 lf 24 cb 1 cb 2 cb 1025,4 hPa 0,0 mm 3,7 km/h (1 Bft) O-SO 254 0 min 0,000 mm 0,0 UV-I 0 W/m 9,8 C 11,2 C 4,8 km/h (1 Bft)
30/09/2023 03:14 11,2 C 10,6 C 17,2 C 16,7 C 16,7 C 91 % 13 lf 14 lf 24 cb 1 cb 2 cb 1025,5 hPa 0,0 mm 3,4 km/h (1 Bft) O-SO 257 0 min 0,000 mm 0,0 UV-I 0 W/m 9,8 C 11,2 C 4,8 km/h (1 Bft)
30/09/2023 03:12 11,2 C 10,6 C 17,2 C 16,7 C 16,7 C 91 % 13 lf 14 lf 24 cb 1 cb 2 cb 1025,5 hPa 0,0 mm 3,1 km/h (1 Bft) O 264 0 min 0,000 mm 0,0 UV-I 0 W/m 9,8 C 11,2 C 4,8 km/h (1 Bft)
30/09/2023 03:10 11,2 C 11,1 C 17,2 C 16,7 C 16,7 C 91 % 13 lf 14 lf 24 cb 1 cb 2 cb 1025,5 hPa 0,0 mm 1,4 km/h (1 Bft) O 265 0 min 0,000 mm 0,0 UV-I 0 W/m 9,8 C 11,2 C 3,2 km/h (1 Bft)
30/09/2023 03:08 11,3 C 11,1 C 17,2 C 16,7 C 16,7 C 91 % 13 lf 14 lf 24 cb 1 cb 2 cb 1025,5 hPa 0,0 mm 1,8 km/h (1 Bft) O 265 0 min 0,000 mm 0,0 UV-I 0 W/m 9,9 C 11,3 C 3,2 km/h (1 Bft)
30/09/2023 03:06 11,3 C 11,1 C 17,2 C 16,7 C 16,7 C 90 % 13 lf 14 lf 24 cb 1 cb 2 cb 1025,5 hPa 0,0 mm 1,9 km/h (1 Bft) O 265 0 min 0,000 mm 0,0 UV-I 0 W/m 9,7 C 11,3 C 3,2 km/h (1 Bft)
30/09/2023 03:04 11,3 C 11,1 C 17,2 C 16,7 C 16,7 C 91 % 13 lf 14 lf 24 cb 1 cb 2 cb 1025,4 hPa 0,0 mm 1,9 km/h (1 Bft) O 265 0 min 0,000 mm 0,0 UV-I 0 W/m 9,9 C 11,3 C 3,2 km/h (1 Bft)
30/09/2023 03:02 11,3 C 11,1 C 17,2 C 16,7 C 16,7 C 90 % 13 lf 14 lf 24 cb 1 cb 2 cb 1025,3 hPa 0,0 mm 1,6 km/h (1 Bft) O 265 0 min 0,000 mm 0,0 UV-I 0 W/m 9,7 C 11,3 C 3,2 km/h (1 Bft)
30/09/2023 03:00 11,4 C 11,1 C 17,2 C 16,7 C 16,7 C 90 % 13 lf 14 lf 24 cb 1 cb 2 cb 1025,4 hPa 0,0 mm 1,4 km/h (1 Bft) O 266 0 min 0,000 mm 0,0 UV-I 0 W/m 9,8 C 11,4 C 3,2 km/h (1 Bft)
30/09/2023 02:58 11,5 C 11,1 C 17,2 C 16,7 C 16,7 C 90 % 13 lf 14 lf 24 cb 1 cb 2 cb 1025,5 hPa 0,0 mm 0,9 km/h (0 Bft) O 266 0 min 0,000 mm 0,0 UV-I 0 W/m 9,9 C 11,5 C 3,2 km/h (1 Bft)
30/09/2023 02:56 11,6 C 11,1 C 17,2 C 16,7 C 16,7 C 90 % 13 lf 14 lf 24 cb 1 cb 2 cb 1025,5 hPa 0,0 mm 0,6 km/h (0 Bft) O 266 0 min 0,000 mm 0,0 UV-I 0 W/m 10,0 C 11,6 C 1,6 km/h (1 Bft)
30/09/2023 02:54 11,6 C 11,1 C 17,2 C 16,7 C 16,7 C 90 % 13 lf 14 lf 24 cb 1 cb 2 cb 1025,4 hPa 0,0 mm 1,5 km/h (1 Bft) O 266 0 min 0,000 mm 0,0 UV-I 0 W/m 10,0 C 11,6 C 3,2 km/h (1 Bft)
30/09/2023 02:52 11,7 C 11,1 C 17,2 C 16,7 C 16,7 C 91 % 13 lf 14 lf 24 cb 1 cb 2 cb 1025,4 hPa 0,0 mm 1,8 km/h (1 Bft) O 266 0 min 0,000 mm 0,0 UV-I 0 W/m 10,3 C 11,7 C 3,2 km/h (1 Bft)
30/09/2023 02:50 11,7 C 11,1 C 17,2 C 16,7 C 16,7 C 91 % 13 lf 14 lf 24 cb 1 cb 2 cb 1025,4 hPa 0,0 mm 2,0 km/h (1 Bft) O 266 0 min 0,000 mm 0,0 UV-I 0 W/m 10,3 C 11,7 C 3,2 km/h (1 Bft)
30/09/2023 02:48 11,7 C 11,1 C 17,2 C 16,7 C 16,7 C 91 % 13 lf 14 lf 24 cb 1 cb 2 cb 1025,3 hPa 0,0 mm 1,0 km/h (0 Bft) O 266 0 min 0,000 mm 0,0 UV-I 0 W/m 10,3 C 11,7 C 3,2 km/h (1 Bft)
30/09/2023 02:46 11,7 C 11,1 C 17,2 C 16,7 C 16,7 C 90 % 13 lf 14 lf 24 cb 1 cb 2 cb 1025,3 hPa 0,0 mm 0,4 km/h (0 Bft) O 266 0 min 0,000 mm 0,0 UV-I 0 W/m 10,1 C 11,7 C 1,6 km/h (1 Bft)
30/09/2023 02:44 11,7 C 11,1 C 17,2 C 16,7 C 16,7 C 90 % 13 lf 14 lf 24 cb 1 cb 2 cb 1025,3 hPa 0,0 mm 0,9 km/h (0 Bft) O 266 0 min 0,000 mm 0,0 UV-I 0 W/m 10,1 C 11,7 C 1,6 km/h (1 Bft)
30/09/2023 02:42 11,7 C 11,1 C 17,2 C 16,7 C 16,7 C 91 % 12 lf 14 lf 24 cb 1 cb 2 cb 1025,2 hPa 0,0 mm 2,4 km/h (1 Bft) O 266 0 min 0,000 mm 0,0 UV-I 0 W/m 10,3 C 11,7 C 3,2 km/h (1 Bft)
30/09/2023 02:40 11,7 C 11,1 C 17,2 C 16,7 C 16,7 C 90 % 12 lf 14 lf 24 cb 1 cb 2 cb 1025,2 hPa 0,0 mm 1,8 km/h (1 Bft) O 266 0 min 0,000 mm 0,0 UV-I 0 W/m 10,1 C 11,7 C 4,8 km/h (1 Bft)
30/09/2023 02:38 11,7 C 11,1 C 17,2 C 16,7 C 16,7 C 90 % 12 lf 14 lf 24 cb 1 cb 2 cb 1025,3 hPa 0,0 mm 1,2 km/h (1 Bft) O 267 0 min 0,000 mm 0,0 UV-I 0 W/m 10,1 C 11,7 C 3,2 km/h (1 Bft)
30/09/2023 02:36 11,7 C 11,1 C 17,2 C 16,7 C 16,7 C 90 % 12 lf 14 lf 24 cb 1 cb 2 cb 1025,3 hPa 0,0 mm 0,6 km/h (0 Bft) O 267 0 min 0,000 mm 0,0 UV-I 0 W/m 10,1 C 11,7 C 3,2 km/h (1 Bft)
30/09/2023 02:34 11,7 C 11,1 C 17,2 C 16,7 C 16,7 C 90 % 12 lf 13 lf 24 cb 1 cb 2 cb 1025,2 hPa 0,0 mm 0,7 km/h (0 Bft) O 267 0 min 0,000 mm 0,0 UV-I 0 W/m 10,1 C 11,7 C 3,2 km/h (1 Bft)
30/09/2023 02:32 11,7 C 11,1 C 17,2 C 16,7 C 16,7 C 90 % 12 lf 13 lf 24 cb 1 cb 2 cb 1025,1 hPa 0,0 mm 1,3 km/h (1 Bft) O 267 0 min 0,000 mm 0,0 UV-I 0 W/m 10,1 C 11,7 C 3,2 km/h (1 Bft)
30/09/2023 02:30 11,7 C 11,1 C 17,2 C 16,7 C 16,7 C 90 % 12 lf 13 lf 24 cb 1 cb 2 cb 1025,0 hPa 0,0 mm 1,1 km/h (1 Bft) O 267 0 min 0,000 mm 0,0 UV-I 0 W/m 10,1 C 11,7 C 3,2 km/h (1 Bft)
30/09/2023 02:28 11,8 C 11,1 C 17,2 C 16,7 C 16,7 C 90 % 12 lf 13 lf 24 cb 1 cb 2 cb 1025,1 hPa 0,0 mm 1,0 km/h (0 Bft) O 267 0 min 0,000 mm 0,0 UV-I 0 W/m 10,2 C 11,8 C 3,2 km/h (1 Bft)
30/09/2023 02:26 11,8 C 11,7 C 17,2 C 16,7 C 16,7 C 90 % 12 lf 13 lf 24 cb 1 cb 2 cb 1025,2 hPa 0,0 mm 1,8 km/h (1 Bft) O 267 0 min 0,000 mm 0,0 UV-I 0 W/m 10,2 C 11,8 C 4,8 km/h (1 Bft)
30/09/2023 02:24 11,8 C 11,7 C 17,2 C 16,7 C 16,7 C 90 % 12 lf 13 lf 24 cb 1 cb 2 cb 1025,2 hPa 0,0 mm 2,6 km/h (1 Bft) O 268 0 min 0,000 mm 0,0 UV-I 0 W/m 10,2 C 11,8 C 3,2 km/h (1 Bft)
30/09/2023 02:22 11,8 C 11,1 C 17,2 C 16,7 C 16,7 C 90 % 12 lf 13 lf 24 cb 1 cb 2 cb 1025,1 hPa 0,0 mm 2,6 km/h (1 Bft) O 269 0 min 0,000 mm 0,0 UV-I 0 W/m 10,2 C 11,8 C 4,8 km/h (1 Bft)
30/09/2023 02:20 11,8 C 11,7 C 17,2 C 16,7 C 16,7 C 90 % 12 lf 13 lf 24 cb 1 cb 2 cb 1025,0 hPa 0,0 mm 1,8 km/h (1 Bft) O 269 0 min 0,000 mm 0,0 UV-I 0 W/m 10,2 C 11,8 C 3,2 km/h (1 Bft)
30/09/2023 02:18 11,9 C 11,7 C 17,2 C 16,7 C 16,7 C 90 % 12 lf 13 lf 24 cb 1 cb 2 cb 1025,0 hPa 0,0 mm 2,3 km/h (1 Bft) O 271 0 min 0,000 mm 0,0 UV-I 0 W/m 10,3 C 11,9 C 4,8 km/h (1 Bft)
30/09/2023 02:16 11,9 C 11,7 C 17,2 C 16,7 C 16,7 C 90 % 12 lf 13 lf 24 cb 1 cb 2 cb 1025,0 hPa 0,0 mm 2,4 km/h (1 Bft) O 271 0 min 0,000 mm 0,0 UV-I 0 W/m 10,3 C 11,9 C 3,2 km/h (1 Bft)
30/09/2023 02:14 11,9 C 11,7 C 17,2 C 16,7 C 16,7 C 90 % 12 lf 13 lf 24 cb 1 cb 2 cb 1025,1 hPa 0,0 mm 2,2 km/h (1 Bft) O 271 0 min 0,000 mm 0,0 UV-I 0 W/m 10,3 C 11,9 C 4,8 km/h (1 Bft)
30/09/2023 02:12 11,9 C 11,7 C 17,2 C 16,7 C 16,7 C 90 % 12 lf 13 lf 24 cb 1 cb 2 cb 1025,1 hPa 0,0 mm 2,0 km/h (1 Bft) O 271 0 min 0,000 mm 0,0 UV-I 0 W/m 10,3 C 11,9 C 4,8 km/h (1 Bft)
30/09/2023 02:10 11,9 C 11,7 C 17,2 C 16,7 C 16,7 C 90 % 12 lf 13 lf 24 cb 1 cb 2 cb 1025,1 hPa 0,0 mm 1,3 km/h (1 Bft) O 271 0 min 0,000 mm 0,0 UV-I 0 W/m 10,3 C 11,9 C 3,2 km/h (1 Bft)
30/09/2023 02:08 12,0 C 11,7 C 17,2 C 16,7 C 16,7 C 90 % 12 lf 13 lf 24 cb 1 cb 2 cb 1025,1 hPa 0,0 mm 2,1 km/h (1 Bft) O 271 0 min 0,000 mm 0,0 UV-I 0 W/m 10,4 C 12,0 C 3,2 km/h (1 Bft)
30/09/2023 02:06 12,0 C 11,7 C 17,2 C 16,7 C 16,7 C 90 % 12 lf 13 lf 24 cb 1 cb 2 cb 1025,1 hPa 0,0 mm 1,1 km/h (1 Bft) O 271 0 min 0,000 mm 0,0 UV-I 0 W/m 10,4 C 12,0 C 3,2 km/h (1 Bft)
30/09/2023 02:04 11,9 C 11,7 C 17,2 C 16,7 C 16,7 C 90 % 12 lf 13 lf 24 cb 1 cb 2 cb 1025,2 hPa 0,0 mm 1,4 km/h (1 Bft) O 271 0 min 0,000 mm 0,0 UV-I 0 W/m 10,3 C 11,9 C 3,2 km/h (1 Bft)
30/09/2023 02:02 12,0 C 11,7 C 17,2 C 16,7 C 16,7 C 90 % 12 lf 13 lf 24 cb 1 cb 2 cb 1025,1 hPa 0,0 mm 1,6 km/h (1 Bft) O 270 0 min 0,000 mm 0,0 UV-I 0 W/m 10,4 C 12,0 C 3,2 km/h (1 Bft)
30/09/2023 02:00 11,9 C 11,7 C 17,2 C 16,7 C 16,7 C 90 % 12 lf 13 lf 24 cb 1 cb 2 cb 1025,1 hPa 0,0 mm 1,5 km/h (1 Bft) O 270 0 min 0,000 mm 0,0 UV-I 0 W/m 10,3 C 11,9 C 3,2 km/h (1 Bft)
30/09/2023 01:58 11,9 C 11,7 C 17,2 C 16,7 C 16,7 C 90 % 12 lf 13 lf 24 cb 1 cb 2 cb 1025,1 hPa 0,0 mm 1,4 km/h (1 Bft) O 270 0 min 0,000 mm 0,0 UV-I 0 W/m 10,3 C 11,9 C 3,2 km/h (1 Bft)
30/09/2023 01:56 11,9 C 11,7 C 17,2 C 16,7 C 16,7 C 89 % 12 lf 13 lf 24 cb 1 cb 2 cb 1025,1 hPa 0,0 mm 1,9 km/h (1 Bft) O 270 0 min 0,000 mm 0,0 UV-I 0 W/m 10,1 C 11,9 C 3,2 km/h (1 Bft)
30/09/2023 01:54 12,1 C 11,7 C 17,2 C 16,7 C 16,7 C 89 % 12 lf 13 lf 24 cb 1 cb 2 cb 1025,2 hPa 0,0 mm 2,4 km/h (1 Bft) O 270 0 min 0,000 mm 0,0 UV-I 0 W/m 10,3 C 12,1 C 4,8 km/h (1 Bft)
30/09/2023 01:52 12,1 C 11,7 C 17,2 C 16,7 C 16,7 C 89 % 12 lf 13 lf 24 cb 1 cb 2 cb 1025,2 hPa 0,0 mm 3,1 km/h (1 Bft) O 270 0 min 0,000 mm 0,0 UV-I 0 W/m 10,3 C 12,1 C 4,8 km/h (1 Bft)
30/09/2023 01:50 12,2 C 11,7 C 17,2 C 16,7 C 16,7 C 89 % 12 lf 12 lf 24 cb 1 cb 2 cb 1025,2 hPa 0,0 mm 1,8 km/h (1 Bft) O 267 0 min 0,000 mm 0,0 UV-I 0 W/m 10,4 C 12,2 C 3,2 km/h (1 Bft)
30/09/2023 01:48 12,1 C 11,7 C 17,2 C 16,7 C 16,7 C 89 % 12 lf 12 lf 24 cb 1 cb 2 cb 1025,2 hPa 0,0 mm 2,1 km/h (1 Bft) O 267 0 min 0,000 mm 0,0 UV-I 0 W/m 10,3 C 12,1 C 4,8 km/h (1 Bft)
30/09/2023 01:46 12,1 C 11,7 C 17,2 C 16,7 C 16,7 C 89 % 12 lf 12 lf 24 cb 1 cb 2 cb 1025,2 hPa 0,0 mm 1,9 km/h (1 Bft) O 267 0 min 0,000 mm 0,0 UV-I 0 W/m 10,3 C 12,1 C 3,2 km/h (1 Bft)
30/09/2023 01:44 12,2 C 11,7 C 17,2 C 16,7 C 16,7 C 89 % 12 lf 12 lf 24 cb 1 cb 2 cb 1025,1 hPa 0,0 mm 1,9 km/h (1 Bft) O 267 0 min 0,000 mm 0,0 UV-I 0 W/m 10,4 C 12,2 C 3,2 km/h (1 Bft)
30/09/2023 01:42 12,2 C 11,7 C 17,2 C 16,7 C 16,7 C 89 % 12 lf 12 lf 24 cb 1 cb 2 cb 1025,1 hPa 0,0 mm 1,6 km/h (1 Bft) O 266 0 min 0,000 mm 0,0 UV-I 0 W/m 10,4 C 12,2 C 3,2 km/h (1 Bft)
30/09/2023 01:40 12,2 C 11,7 C 17,2 C 16,7 C 16,7 C 89 % 12 lf 12 lf 24 cb 1 cb 2 cb 1025,1 hPa 0,0 mm 2,4 km/h (1 Bft) O 266 0 min 0,000 mm 0,0 UV-I 0 W/m 10,4 C 12,2 C 4,8 km/h (1 Bft)
30/09/2023 01:38 12,2 C 11,7 C 17,2 C 16,7 C 16,7 C 89 % 12 lf 12 lf 24 cb 1 cb 2 cb 1025,2 hPa 0,0 mm 2,8 km/h (1 Bft) O 266 0 min 0,000 mm 0,0 UV-I 0 W/m 10,4 C 12,2 C 4,8 km/h (1 Bft)
30/09/2023 01:36 12,2 C 11,7 C 17,2 C 16,7 C 16,7 C 89 % 12 lf 12 lf 24 cb 1 cb 2 cb 1025,1 hPa 0,0 mm 1,8 km/h (1 Bft) O 267 0 min 0,000 mm 0,0 UV-I 0 W/m 10,4 C 12,2 C 4,8 km/h (1 Bft)
30/09/2023 01:34 12,2 C 11,7 C 17,2 C 16,7 C 16,7 C 89 % 12 lf 12 lf 24 cb 1 cb 2 cb 1025,1 hPa 0,0 mm 1,5 km/h (1 Bft) O 267 0 min 0,000 mm 0,0 UV-I 0 W/m 10,4 C 12,2 C 4,8 km/h (1 Bft)
30/09/2023 01:32 12,2 C 11,7 C 17,2 C 16,7 C 16,7 C 89 % 12 lf 12 lf 24 cb 1 cb 2 cb 1025,0 hPa 0,0 mm 1,2 km/h (1 Bft) O 267 0 min 0,000 mm 0,0 UV-I 0 W/m 10,4 C 12,2 C 3,2 km/h (1 Bft)
30/09/2023 01:30 12,2 C 11,7 C 17,2 C 16,7 C 16,7 C 89 % 12 lf 12 lf 24 cb 1 cb 2 cb 1025,0 hPa 0,0 mm 2,1 km/h (1 Bft) O 267 0 min 0,000 mm 0,0 UV-I 0 W/m 10,4 C 12,2 C 3,2 km/h (1 Bft)
30/09/2023 01:28 12,2 C 11,7 C 17,2 C 16,7 C 16,7 C 89 % 12 lf 12 lf 24 cb 1 cb 2 cb 1025,2 hPa 0,0 mm 2,1 km/h (1 Bft) O 267 0 min 0,000 mm 0,0 UV-I 0 W/m 10,4 C 12,2 C 4,8 km/h (1 Bft)
30/09/2023 01:26 12,2 C 11,7 C 17,2 C 16,7 C 16,7 C 89 % 12 lf 12 lf 24 cb 1 cb 2 cb 1025,2 hPa 0,0 mm 2,3 km/h (1 Bft) O 267 0 min 0,000 mm 0,0 UV-I 0 W/m 10,4 C 12,2 C 4,8 km/h (1 Bft)
30/09/2023 01:24 12,2 C 11,7 C 17,2 C 16,7 C 16,7 C 89 % 12 lf 12 lf 24 cb 1 cb 2 cb 1025,2 hPa 0,0 mm 2,9 km/h (1 Bft) O 267 0 min 0,000 mm 0,0 UV-I 0 W/m 10,4 C 12,2 C 4,8 km/h (1 Bft)
30/09/2023 01:22 12,3 C 11,7 C 17,2 C 16,7 C 16,7 C 89 % 11 lf 12 lf 24 cb 1 cb 2 cb 1025,1 hPa 0,0 mm 2,6 km/h (1 Bft) O 267 0 min 0,000 mm 0,0 UV-I 0 W/m 10,5 C 12,3 C 4,8 km/h (1 Bft)
30/09/2023 01:20 12,3 C 11,7 C 17,2 C 16,7 C 16,7 C 89 % 11 lf 11 lf 24 cb 1 cb 2 cb 1025,1 hPa 0,0 mm 2,7 km/h (1 Bft) O 267 0 min 0,000 mm 0,0 UV-I 0 W/m 10,5 C 12,3 C 4,8 km/h (1 Bft)
30/09/2023 01:18 12,3 C 11,7 C 17,2 C 16,7 C 16,7 C 89 % 11 lf 11 lf 24 cb 1 cb 2 cb 1025,1 hPa 0,0 mm 2,6 km/h (1 Bft) O 266 0 min 0,000 mm 0,0 UV-I 0 W/m 10,5 C 12,3 C 4,8 km/h (1 Bft)
30/09/2023 01:16 12,3 C 11,7 C 17,2 C 16,7 C 16,7 C 89 % 11 lf 11 lf 24 cb 1 cb 2 cb 1025,0 hPa 0,0 mm 2,8 km/h (1 Bft) O 267 0 min 0,000 mm 0,0 UV-I 0 W/m 10,5 C 12,3 C 4,8 km/h (1 Bft)
30/09/2023 01:14 12,4 C 11,7 C 17,2 C 16,7 C 16,7 C 89 % 11 lf 11 lf 24 cb 1 cb 2 cb 1024,9 hPa 0,0 mm 3,4 km/h (1 Bft) O 267 0 min 0,000 mm 0,0 UV-I 0 W/m 10,6 C 12,4 C 8,0 km/h (2 Bft)
30/09/2023 01:12 12,4 C 11,7 C 17,2 C 16,7 C 16,7 C 89 % 11 lf 11 lf 24 cb 1 cb 2 cb 1024,9 hPa 0,0 mm 2,6 km/h (1 Bft) O 266 0 min 0,000 mm 0,0 UV-I 0 W/m 10,6 C 12,4 C 4,8 km/h (1 Bft)
30/09/2023 01:10 12,4 C 11,7 C 17,2 C 16,7 C 16,7 C 89 % 11 lf 11 lf 24 cb 1 cb 2 cb 1025,0 hPa 0,0 mm 3,5 km/h (1 Bft) O 266 0 min 0,000 mm 0,0 UV-I 0 W/m 10,6 C 12,4 C 4,8 km/h (1 Bft)
30/09/2023 01:08 12,4 C 11,7 C 17,2 C 16,7 C 16,7 C 89 % 11 lf 11 lf 24 cb 1 cb 2 cb 1024,9 hPa 0,0 mm 3,5 km/h (1 Bft) O 270 0 min 0,000 mm 0,0 UV-I 0 W/m 10,6 C 12,4 C 8,0 km/h (2 Bft)
30/09/2023 01:06 12,5 C 11,7 C 17,2 C 16,7 C 16,7 C 89 % 11 lf 11 lf 24 cb 1 cb 2 cb 1024,9 hPa 0,0 mm 2,0 km/h (1 Bft) O 270 0 min 0,000 mm 0,0 UV-I 0 W/m 10,7 C 12,5 C 4,8 km/h (1 Bft)
30/09/2023 01:04 12,6 C 12,2 C 17,2 C 16,7 C 16,7 C 89 % 11 lf 11 lf 24 cb 1 cb 2 cb 1024,8 hPa 0,0 mm 1,6 km/h (1 Bft) O 269 0 min 0,000 mm 0,0 UV-I 0 W/m 10,8 C 12,6 C 3,2 km/h (1 Bft)
30/09/2023 01:02 12,6 C 11,7 C 17,2 C 16,7 C 16,7 C 89 % 11 lf 11 lf 24 cb 1 cb 2 cb 1024,8 hPa 0,0 mm 2,0 km/h (1 Bft) O 269 0 min 0,000 mm 0,0 UV-I 0 W/m 10,8 C 12,6 C 4,8 km/h (1 Bft)
30/09/2023 01:00 12,6 C 11,7 C 17,2 C 16,7 C 16,7 C 89 % 11 lf 11 lf 24 cb 1 cb 2 cb 1024,9 hPa 0,0 mm 2,2 km/h (1 Bft) O-SO 255 0 min 0,000 mm 0,0 UV-I 0 W/m 10,8 C 12,6 C 8,0 km/h (2 Bft)
30/09/2023 00:58 12,6 C 11,7 C 17,2 C 16,7 C 16,7 C 89 % 11 lf 11 lf 24 cb 1 cb 2 cb 1024,9 hPa 0,0 mm 3,6 km/h (1 Bft) O 268 0 min 0,000 mm 0,0 UV-I 0 W/m 10,8 C 12,6 C 8,0 km/h (2 Bft)
30/09/2023 00:56 12,5 C 11,7 C 17,2 C 16,7 C 16,7 C 89 % 11 lf 11 lf 24 cb 1 cb 2 cb 1024,9 hPa 0,0 mm 3,5 km/h (1 Bft) O 269 0 min 0,000 mm 0,0 UV-I 0 W/m 10,7 C 12,5 C 4,8 km/h (1 Bft)
30/09/2023 00:54 12,5 C 11,7 C 17,2 C 16,7 C 16,7 C 89 % 11 lf 11 lf 24 cb 1 cb 2 cb 1024,9 hPa 0,0 mm 1,8 km/h (1 Bft) O 267 0 min 0,000 mm 0,0 UV-I 0 W/m 10,7 C 12,5 C 4,8 km/h (1 Bft)
30/09/2023 00:52 12,5 C 11,7 C 17,2 C 16,7 C 16,7 C 89 % 11 lf 11 lf 24 cb 1 cb 2 cb 1024,8 hPa 0,0 mm 1,8 km/h (1 Bft) O 267 0 min 0,000 mm 0,0 UV-I 0 W/m 10,7 C 12,5 C 4,8 km/h (1 Bft)
30/09/2023 00:50 12,5 C 11,7 C 17,2 C 16,7 C 16,7 C 89 % 11 lf 11 lf 24 cb 1 cb 2 cb 1024,7 hPa 0,0 mm 2,6 km/h (1 Bft) O 267 0 min 0,000 mm 0,0 UV-I 0 W/m 10,7 C 12,5 C 4,8 km/h (1 Bft)
30/09/2023 00:48 12,6 C 11,7 C 17,2 C 16,7 C 16,7 C 89 % 11 lf 11 lf 24 cb 1 cb 2 cb 1024,8 hPa 0,0 mm 3,5 km/h (1 Bft) O 277 0 min 0,000 mm 0,0 UV-I 0 W/m 10,8 C 12,6 C 4,8 km/h (1 Bft)
30/09/2023 00:46 12,6 C 11,7 C 17,2 C 16,7 C 16,7 C 89 % 11 lf 11 lf 24 cb 1 cb 2 cb 1024,8 hPa 0,0 mm 3,4 km/h (1 Bft) O 277 0 min 0,000 mm 0,0 UV-I 0 W/m 10,8 C 12,6 C 8,0 km/h (2 Bft)
30/09/2023 00:44 12,5 C 11,7 C 17,2 C 16,7 C 16,7 C 89 % 11 lf 11 lf 24 cb 1 cb 2 cb 1024,9 hPa 0,0 mm 3,0 km/h (1 Bft) O 259 0 min 0,000 mm 0,0 UV-I 0 W/m 10,7 C 12,5 C 4,8 km/h (1 Bft)
30/09/2023 00:42 12,4 C 11,7 C 17,2 C 16,7 C 16,7 C 89 % 11 lf 11 lf 24 cb 1 cb 2 cb 1024,9 hPa 0,0 mm 2,9 km/h (1 Bft) O 259 0 min 0,000 mm 0,0 UV-I 0 W/m 10,6 C 12,4 C 6,4 km/h (2 Bft)
30/09/2023 00:40 12,4 C 11,7 C 17,2 C 16,7 C 16,7 C 89 % 11 lf 10 lf 24 cb 1 cb 2 cb 1024,9 hPa 0,0 mm 2,4 km/h (1 Bft) O-SO 250 0 min 0,000 mm 0,0 UV-I 0 W/m 10,6 C 12,4 C 4,8 km/h (1 Bft)
30/09/2023 00:38 12,4 C 11,7 C 17,2 C 16,7 C 16,7 C 89 % 11 lf 10 lf 24 cb 1 cb 2 cb 1024,9 hPa 0,0 mm 2,4 km/h (1 Bft) O-SO 251 0 min 0,000 mm 0,0 UV-I 0 W/m 10,6 C 12,4 C 4,8 km/h (1 Bft)
30/09/2023 00:36 12,4 C 11,7 C 17,2 C 16,7 C 16,7 C 89 % 11 lf 10 lf 24 cb 1 cb 2 cb 1024,9 hPa 0,0 mm 2,4 km/h (1 Bft) O-SO 252 0 min 0,000 mm 0,0 UV-I 0 W/m 10,6 C 12,4 C 4,8 km/h (1 Bft)
30/09/2023 00:34 12,3 C 11,1 C 17,2 C 16,7 C 16,7 C 89 % 10 lf 10 lf 24 cb 1 cb 2 cb 1024,8 hPa 0,0 mm 2,6 km/h (1 Bft) O-SO 251 0 min 0,000 mm 0,0 UV-I 0 W/m 10,5 C 12,3 C 4,8 km/h (1 Bft)
30/09/2023 00:32 12,3 C 11,1 C 17,2 C 16,7 C 16,7 C 89 % 10 lf 10 lf 24 cb 1 cb 2 cb 1024,9 hPa 0,0 mm 2,8 km/h (1 Bft) O-SO 248 0 min 0,000 mm 0,0 UV-I 0 W/m 10,5 C 12,3 C 4,8 km/h (1 Bft)
30/09/2023 00:30 12,3 C 11,1 C 17,2 C 16,7 C 16,7 C 90 % 10 lf 10 lf 24 cb 1 cb 2 cb 1025,0 hPa 0,0 mm 2,6 km/h (1 Bft) O-SO 242 0 min 0,000 mm 0,0 UV-I 0 W/m 10,7 C 12,3 C 4,8 km/h (1 Bft)
30/09/2023 00:28 12,3 C 11,1 C 17,2 C 16,7 C 16,7 C 89 % 10 lf 10 lf 24 cb 1 cb 2 cb 1024,9 hPa 0,0 mm 0,9 km/h (0 Bft) O-SO 239 0 min 0,000 mm 0,0 UV-I 0 W/m 10,5 C 12,3 C 3,2 km/h (1 Bft)
30/09/2023 00:26 12,3 C 11,1 C 17,2 C 16,7 C 16,7 C 89 % 10 lf 10 lf 24 cb 1 cb 2 cb 1024,8 hPa 0,0 mm 2,2 km/h (1 Bft) O-SO 239 0 min 0,000 mm 0,0 UV-I 0 W/m 10,5 C 12,3 C 3,2 km/h (1 Bft)
30/09/2023 00:24 12,3 C 11,1 C 17,2 C 16,7 C 16,7 C 89 % 10 lf 9 lf 24 cb 1 cb 2 cb 1024,8 hPa 0,0 mm 2,5 km/h (1 Bft) O-SO 238 0 min 0,000 mm 0,0 UV-I 0 W/m 10,5 C 12,3 C 3,2 km/h (1 Bft)
30/09/2023 00:22 12,2 C 11,1 C 17,2 C 16,7 C 16,7 C 89 % 10 lf 9 lf 24 cb 1 cb 2 cb 1024,8 hPa 0,0 mm 2,1 km/h (1 Bft) O-SO 239 0 min 0,000 mm 0,0 UV-I 0 W/m 10,4 C 12,2 C 4,8 km/h (1 Bft)
30/09/2023 00:20 12,2 C 11,1 C 17,2 C 16,7 C 16,7 C 89 % 10 lf 9 lf 24 cb 1 cb 2 cb 1024,7 hPa 0,0 mm 1,8 km/h (1 Bft) O-SO 239 0 min 0,000 mm 0,0 UV-I 0 W/m 10,4 C 12,2 C 3,2 km/h (1 Bft)
30/09/2023 00:18 12,3 C 11,1 C 17,2 C 16,7 C 16,7 C 89 % 10 lf 9 lf 24 cb 1 cb 2 cb 1024,8 hPa 0,0 mm 2,2 km/h (1 Bft) O-SO 240 0 min 0,000 mm 0,0 UV-I 0 W/m 10,5 C 12,3 C 4,8 km/h (1 Bft)
30/09/2023 00:16 12,3 C 11,1 C 17,2 C 16,7 C 16,7 C 89 % 10 lf 8 lf 24 cb 1 cb 2 cb 1024,7 hPa 0,0 mm 1,9 km/h (1 Bft) O-SO 238 0 min 0,000 mm 0,0 UV-I 0 W/m 10,5 C 12,3 C 3,2 km/h (1 Bft)
30/09/2023 00:14 12,3 C 11,1 C 17,2 C 16,7 C 16,7 C 88 % 9 lf 8 lf 24 cb 1 cb 2 cb 1024,6 hPa 0,0 mm 1,6 km/h (1 Bft) O-SO 237 0 min 0,000 mm 0,0 UV-I 0 W/m 10,4 C 12,3 C 3,2 km/h (1 Bft)
30/09/2023 00:12 12,3 C 11,1 C 17,2 C 16,7 C 16,7 C 88 % 9 lf 8 lf 24 cb 1 cb 2 cb 1024,6 hPa 0,0 mm 1,1 km/h (1 Bft) O-SO 237 0 min 0,000 mm 0,0 UV-I 0 W/m 10,4 C 12,3 C 4,8 km/h (1 Bft)
30/09/2023 00:10 12,4 C 11,1 C 17,2 C 16,7 C 16,7 C 89 % 9 lf 8 lf 24 cb 1 cb 2 cb 1024,7 hPa 0,0 mm 1,3 km/h (1 Bft) O-SO 237 0 min 0,000 mm 0,0 UV-I 0 W/m 10,6 C 12,4 C 3,2 km/h (1 Bft)
30/09/2023 00:08 12,4 C 11,1 C 17,2 C 16,7 C 16,7 C 88 % 9 lf 7 lf 24 cb 1 cb 2 cb 1024,7 hPa 0,0 mm 1,2 km/h (1 Bft) O-SO 237 0 min 0,000 mm 0,0 UV-I 0 W/m 10,5 C 12,4 C 3,2 km/h (1 Bft)
30/09/2023 00:06 12,4 C 11,7 C 17,2 C 16,7 C 16,7 C 88 % 9 lf 7 lf 24 cb 1 cb 2 cb 1024,7 hPa 0,0 mm 2,1 km/h (1 Bft) O-SO 237 0 min 0,000 mm 0,0 UV-I 0 W/m 10,5 C 12,4 C 3,2 km/h (1 Bft)
30/09/2023 00:04 12,5 C 11,7 C 17,2 C 16,7 C 16,7 C 88 % 9 lf 7 lf 24 cb 1 cb 2 cb 1024,6 hPa 0,0 mm 1,0 km/h (0 Bft) SO 233 0 min 0,000 mm 0,0 UV-I 0 W/m 10,6 C 12,5 C 3,2 km/h (1 Bft)
30/09/2023 00:02 12,5 C 11,7 C 17,2 C 16,7 C 16,7 C 89 % 9 lf 7 lf 24 cb 1 cb 2 cb 1024,6 hPa 0,0 mm 2,0 km/h (1 Bft) SO 233 0 min 0,000 mm 0,0 UV-I 0 W/m 10,7 C 12,5 C 3,2 km/h (1 Bft)
30/09/2023 00:00 12,5 C 11,7 C 17,2 C 16,7 C 16,7 C 89 % 9 lf 7 lf 24 cb 1 cb 2 cb 1024,7 hPa 0,0 mm 1,5 km/h (1 Bft) SO 233 0 min 0,000 mm 0,0 UV-I 0 W/m 10,7 C 12,5 C 3,2 km/h (1 Bft)
29/09/2023 23:58 12,5 C 11,7 C 17,2 C 16,7 C 16,7 C 89 % 9 lf 7 lf 24 cb 1 cb 2 cb 1024,8 hPa 0,0 mm 0,8 km/h (0 Bft) SO 233 0 min 0,000 mm 0,0 UV-I 0 W/m 10,7 C 12,5 C 3,2 km/h (1 Bft)
29/09/2023 23:56 12,5 C 11,7 C 17,2 C 16,7 C 16,7 C 89 % 8 lf 6 lf 24 cb 1 cb 2 cb 1024,8 hPa 0,0 mm 1,9 km/h (1 Bft) SO 233 0 min 0,000 mm 0,0 UV-I 0 W/m 10,7 C 12,5 C 4,8 km/h (1 Bft)
29/09/2023 23:54 12,6 C 11,7 C 17,2 C 16,7 C 16,7 C 88 % 8 lf 6 lf 24 cb 1 cb 2 cb 1024,7 hPa 0,0 mm 4,4 km/h (1 Bft) SO 233 0 min 0,000 mm 0,0 UV-I 0 W/m 10,7 C 12,6 C 6,4 km/h (2 Bft)
29/09/2023 23:52 12,6 C 11,7 C 17,2 C 16,7 C 16,7 C 89 % 8 lf 6 lf 24 cb 1 cb 2 cb 1024,8 hPa 0,0 mm 4,7 km/h (1 Bft) O-SO 238 0 min 0,000 mm 0,0 UV-I 0 W/m 10,8 C 12,6 C 6,4 km/h (2 Bft)
29/09/2023 23:50 12,6 C 11,7 C 17,2 C 16,7 C 16,7 C 88 % 8 lf 6 lf 24 cb 1 cb 2 cb 1024,8 hPa 0,0 mm 4,1 km/h (1 Bft) O-SO 240 0 min 0,000 mm 0,0 UV-I 0 W/m 10,7 C 12,6 C 6,4 km/h (2 Bft)
29/09/2023 23:48 12,6 C 11,1 C 17,2 C 16,7 C 16,7 C 88 % 7 lf 5 lf 24 cb 1 cb 2 cb 1024,8 hPa 0,0 mm 2,8 km/h (1 Bft) O-SO 244 0 min 0,000 mm 0,0 UV-I 0 W/m 10,7 C 12,6 C 4,8 km/h (1 Bft)
29/09/2023 23:46 12,6 C 11,1 C 17,2 C 16,7 C 16,7 C 88 % 7 lf 5 lf 24 cb 1 cb 2 cb 1024,9 hPa 0,0 mm 2,2 km/h (1 Bft) O 273 0 min 0,000 mm 0,0 UV-I 0 W/m 10,7 C 12,6 C 4,8 km/h (1 Bft)
29/09/2023 23:44 12,7 C 11,7 C 17,2 C 16,7 C 16,7 C 88 % 7 lf 5 lf 24 cb 1 cb 2 cb 1024,9 hPa 0,0 mm 1,7 km/h (1 Bft) O 273 0 min 0,000 mm 0,0 UV-I 0 W/m 10,8 C 12,7 C 4,8 km/h (1 Bft)
29/09/2023 23:42 12,7 C 11,7 C 17,2 C 16,7 C 16,7 C 88 % 7 lf 4 lf 24 cb 1 cb 2 cb 1024,9 hPa 0,0 mm 1,0 km/h (0 Bft) O 273 0 min 0,000 mm 0,0 UV-I 0 W/m 10,8 C 12,7 C 3,2 km/h (1 Bft)
29/09/2023 23:40 12,7 C 11,7 C 17,2 C 16,7 C 16,7 C 88 % 7 lf 4 lf 24 cb 1 cb 2 cb 1024,9 hPa 0,0 mm 2,5 km/h (1 Bft) O 273 0 min 0,000 mm 0,0 UV-I 0 W/m 10,8 C 12,7 C 3,2 km/h (1 Bft)
29/09/2023 23:38 12,7 C 11,7 C 17,2 C 16,7 C 16,7 C 88 % 6 lf 4 lf 24 cb 1 cb 2 cb 1024,9 hPa 0,0 mm 1,4 km/h (1 Bft) O-NO 284 0 min 0,000 mm 0,0 UV-I 0 W/m 10,8 C 12,7 C 3,2 km/h (1 Bft)
29/09/2023 23:36 12,7 C 11,7 C 17,2 C 16,7 C 16,7 C 88 % 6 lf 4 lf 24 cb 1 cb 2 cb 1024,9 hPa 0,0 mm 2,2 km/h (1 Bft) O-NO 285 0 min 0,000 mm 0,0 UV-I 0 W/m 10,8 C 12,7 C 3,2 km/h (1 Bft)
29/09/2023 23:34 12,7 C 11,7 C 17,2 C 16,7 C 16,7 C 88 % 6 lf 4 lf 24 cb 1 cb 2 cb 1024,8 hPa 0,0 mm 1,3 km/h (1 Bft) O-NO 286 0 min 0,000 mm 0,0 UV-I 0 W/m 10,8 C 12,7 C 3,2 km/h (1 Bft)
29/09/2023 23:32 12,8 C 11,7 C 17,2 C 16,7 C 16,7 C 88 % 6 lf 4 lf 24 cb 1 cb 2 cb 1024,8 hPa 0,0 mm 0,3 km/h (0 Bft) O-NO 288 0 min 0,000 mm 0,0 UV-I 0 W/m 10,9 C 12,8 C 1,6 km/h (1 Bft)
29/09/2023 23:30 12,8 C 11,7 C 17,2 C 16,7 C 16,7 C 87 % 6 lf 4 lf 24 cb 1 cb 2 cb 1024,8 hPa 0,0 mm 2,3 km/h (1 Bft) O-NO 288 0 min 0,000 mm 0,0 UV-I 0 W/m 10,7 C 12,8 C 6,4 km/h (2 Bft)
29/09/2023 23:28 12,8 C 11,7 C 17,2 C 16,7 C 16,7 C 87 % 5 lf 4 lf 24 cb 1 cb 2 cb 1024,8 hPa 0,0 mm 0,7 km/h (0 Bft) O-NO 289 0 min 0,000 mm 0,0 UV-I 0 W/m 10,7 C 12,8 C 1,6 km/h (1 Bft)
29/09/2023 23:26 12,9 C 11,7 C 17,2 C 16,7 C 16,7 C 87 % 5 lf 4 lf 24 cb 1 cb 2 cb 1024,8 hPa 0,0 mm 1,4 km/h (1 Bft) O-NO 289 0 min 0,000 mm 0,0 UV-I 0 W/m 10,8 C 12,9 C 3,2 km/h (1 Bft)
29/09/2023 23:24 12,9 C 11,7 C 17,2 C 16,7 C 16,7 C 87 % 5 lf 4 lf 24 cb 1 cb 2 cb 1024,8 hPa 0,0 mm 0,9 km/h (0 Bft) O-NO 290 0 min 0,000 mm 0,0 UV-I 0 W/m 10,8 C 12,9 C 3,2 km/h (1 Bft)
29/09/2023 23:22 12,9 C 11,7 C 17,2 C 16,7 C 16,7 C 87 % 5 lf 4 lf 24 cb 1 cb 2 cb 1024,7 hPa 0,0 mm 2,8 km/h (1 Bft) O-NO 290 0 min 0,000 mm 0,0 UV-I 0 W/m 10,8 C 12,9 C 6,4 km/h (2 Bft)
29/09/2023 23:20 12,9 C 11,7 C 17,2 C 16,7 C 16,7 C 87 % 4 lf 4 lf 24 cb 1 cb 2 cb 1024,8 hPa 0,0 mm 2,8 km/h (1 Bft) O-SO 250 0 min 0,000 mm 0,0 UV-I 0 W/m 10,8 C 12,9 C 4,8 km/h (1 Bft)
29/09/2023 23:18 12,9 C 11,7 C 17,2 C 16,7 C 16,7 C 87 % 4 lf 3 lf 24 cb 1 cb 2 cb 1024,8 hPa 0,0 mm 0,7 km/h (0 Bft) O-SO 240 0 min 0,000 mm 0,0 UV-I 0 W/m 10,8 C 12,9 C 3,2 km/h (1 Bft)
29/09/2023 23:16 12,9 C 11,7 C 17,2 C 16,7 C 16,7 C 87 % 4 lf 3 lf 24 cb 1 cb 2 cb 1024,7 hPa 0,0 mm 2,1 km/h (1 Bft) O-SO 240 0 min 0,000 mm 0,0 UV-I 0 W/m 10,8 C 12,9 C 4,8 km/h (1 Bft)
29/09/2023 23:14 12,9 C 11,7 C 17,2 C 16,7 C 16,7 C 87 % 4 lf 3 lf 24 cb 1 cb 2 cb 1024,8 hPa 0,0 mm 2,6 km/h (1 Bft) O-SO 240 0 min 0,000 mm 0,0 UV-I 0 W/m 10,8 C 12,9 C 6,4 km/h (2 Bft)
29/09/2023 23:12 13,0 C 11,7 C 17,2 C 16,7 C 16,7 C 86 % 4 lf 3 lf 24 cb 1 cb 2 cb 1024,8 hPa 0,0 mm 1,4 km/h (1 Bft) O-SO 246 0 min 0,000 mm 0,0 UV-I 0 W/m 10,7 C 13,0 C 4,8 km/h (1 Bft)
29/09/2023 23:10 13,2 C 11,7 C 17,2 C 16,7 C 16,7 C 86 % 4 lf 3 lf 24 cb 1 cb 2 cb 1024,8 hPa 0,0 mm 0,4 km/h (0 Bft) O-SO 246 0 min 0,000 mm 0,0 UV-I 0 W/m 10,9 C 13,2 C 3,2 km/h (1 Bft)
29/09/2023 23:08 13,2 C 12,2 C 17,2 C 16,7 C 16,7 C 86 % 4 lf 3 lf 24 cb 1 cb 2 cb 1024,8 hPa 0,0 mm 0,8 km/h (0 Bft) O-SO 246 0 min 0,000 mm 0,0 UV-I 0 W/m 10,9 C 13,2 C 3,2 km/h (1 Bft)
29/09/2023 23:06 13,3 C 12,2 C 17,2 C 16,7 C 16,7 C 87 % 4 lf 3 lf 24 cb 1 cb 2 cb 1024,7 hPa 0,0 mm 1,6 km/h (1 Bft) O-SO 246 0 min 0,000 mm 0,0 UV-I 0 W/m 11,2 C 13,3 C 4,8 km/h (1 Bft)
29/09/2023 23:04 13,2 C 12,2 C 17,2 C 16,7 C 16,7 C 86 % 4 lf 3 lf 24 cb 1 cb 2 cb 1024,7 hPa 0,0 mm 1,5 km/h (1 Bft) O-SO 246 0 min 0,000 mm 0,0 UV-I 0 W/m 10,9 C 13,2 C 3,2 km/h (1 Bft)
29/09/2023 23:02 13,3 C 12,2 C 17,2 C 16,7 C 16,7 C 86 % 4 lf 3 lf 24 cb 1 cb 2 cb 1024,6 hPa 0,0 mm 1,9 km/h (1 Bft) O-SO 246 0 min 0,000 mm 0,0 UV-I 0 W/m 11,0 C 13,3 C 4,8 km/h (1 Bft)
29/09/2023 23:00 13,3 C 12,2 C 17,2 C 16,7 C 16,7 C 86 % 4 lf 3 lf 24 cb 1 cb 2 cb 1024,6 hPa 0,0 mm 1,9 km/h (1 Bft) O-SO 246 0 min 0,000 mm 0,0 UV-I 0 W/m 11,0 C 13,3 C 4,8 km/h (1 Bft)
29/09/2023 22:58 13,3 C 12,2 C 17,2 C 16,7 C 16,7 C 86 % 4 lf 3 lf 24 cb 1 cb 2 cb 1024,6 hPa 0,0 mm 1,3 km/h (1 Bft) O-SO 240 0 min 0,000 mm 0,0 UV-I 0 W/m 11,0 C 13,3 C 4,8 km/h (1 Bft)
29/09/2023 22:56 13,3 C 12,2 C 17,2 C 16,7 C 16,7 C 86 % 4 lf 3 lf 24 cb 1 cb 2 cb 1024,6 hPa 0,0 mm 2,7 km/h (1 Bft) O-SO 240 0 min 0,000 mm 0,0 UV-I 0 W/m 11,0 C 13,3 C 4,8 km/h (1 Bft)
29/09/2023 22:54 13,3 C 12,2 C 17,2 C 16,7 C 16,7 C 86 % 4 lf 3 lf 24 cb 1 cb 2 cb 1024,7 hPa 0,0 mm 1,6 km/h (1 Bft) SO 231 0 min 0,000 mm 0,0 UV-I 0 W/m 11,0 C 13,3 C 4,8 km/h (1 Bft)
29/09/2023 22:52 13,3 C 12,2 C 17,2 C 16,7 C 16,7 C 86 % 4 lf 3 lf 24 cb 1 cb 2 cb 1024,6 hPa 0,0 mm 3,5 km/h (1 Bft) SO 230 0 min 0,000 mm 0,0 UV-I 0 W/m 11,0 C 13,3 C 6,4 km/h (2 Bft)
29/09/2023 22:50 13,4 C 12,2 C 17,2 C 16,7 C 16,7 C 86 % 4 lf 3 lf 24 cb 1 cb 2 cb 1024,6 hPa 0,0 mm 3,1 km/h (1 Bft) O-SO 248 0 min 0,000 mm 0,0 UV-I 0 W/m 11,1 C 13,4 C 6,4 km/h (2 Bft)
29/09/2023 22:48 13,4 C 12,2 C 17,2 C 16,7 C 16,7 C 86 % 4 lf 3 lf 24 cb 1 cb 2 cb 1024,7 hPa 0,0 mm 3,2 km/h (1 Bft) O-SO 239 0 min 0,000 mm 0,0 UV-I 0 W/m 11,1 C 13,4 C 6,4 km/h (2 Bft)
29/09/2023 22:46 13,4 C 12,2 C 17,2 C 16,7 C 16,7 C 86 % 4 lf 3 lf 24 cb 1 cb 2 cb 1024,6 hPa 0,0 mm 1,5 km/h (1 Bft) O-SO 246 0 min 0,000 mm 0,0 UV-I 0 W/m 11,1 C 13,4 C 3,2 km/h (1 Bft)
29/09/2023 22:44 13,4 C 12,2 C 17,2 C 16,7 C 16,7 C 87 % 4 lf 3 lf 24 cb 1 cb 2 cb 1024,7 hPa 0,0 mm 1,8 km/h (1 Bft) O-SO 246 0 min 0,000 mm 0,0 UV-I 0 W/m 11,3 C 13,4 C 4,8 km/h (1 Bft)
29/09/2023 22:42 13,4 C 11,7 C 17,2 C 16,7 C 16,7 C 87 % 4 lf 3 lf 23 cb 1 cb 2 cb 1024,6 hPa 0,0 mm 2,7 km/h (1 Bft) O-SO 247 0 min 0,000 mm 0,0 UV-I 0 W/m 11,3 C 13,4 C 4,8 km/h (1 Bft)
29/09/2023 22:40 13,3 C 11,7 C 17,2 C 16,7 C 16,7 C 87 % 4 lf 3 lf 23 cb 1 cb 2 cb 1024,6 hPa 0,0 mm 3,4 km/h (1 Bft) O-SO 256 0 min 0,000 mm 0,0 UV-I 0 W/m 11,2 C 13,3 C 6,4 km/h (2 Bft)
29/09/2023 22:38 13,3 C 11,7 C 17,2 C 16,7 C 16,7 C 87 % 4 lf 3 lf 23 cb 1 cb 2 cb 1024,6 hPa 0,0 mm 1,6 km/h (1 Bft) S 190 0 min 0,000 mm 0,0 UV-I 0 W/m 11,2 C 13,3 C 3,2 km/h (1 Bft)
29/09/2023 22:36 13,3 C 11,7 C 17,2 C 16,7 C 16,7 C 87 % 4 lf 3 lf 23 cb 1 cb 2 cb 1024,7 hPa 0,0 mm 2,3 km/h (1 Bft) O-SO 256 0 min 0,000 mm 0,0 UV-I 0 W/m 11,2 C 13,3 C 8,0 km/h (2 Bft)
29/09/2023 22:34 13,3 C 11,7 C 17,2 C 16,7 C 16,7 C 86 % 4 lf 3 lf 23 cb 1 cb 2 cb 1024,7 hPa 0,0 mm 2,2 km/h (1 Bft) O-SO 237 0 min 0,000 mm 0,0 UV-I 0 W/m 11,0 C 13,3 C 4,8 km/h (1 Bft)
29/09/2023 22:32 13,3 C 11,7 C 17,2 C 16,7 C 16,7 C 87 % 4 lf 3 lf 23 cb 1 cb 2 cb 1024,6 hPa 0,0 mm 3,3 km/h (1 Bft) O-SO 244 0 min 0,000 mm 0,0 UV-I 0 W/m 11,2 C 13,3 C 8,0 km/h (2 Bft)
29/09/2023 22:30 13,2 C 11,7 C 17,2 C 16,7 C 16,7 C 87 % 3 lf 3 lf 23 cb 1 cb 2 cb 1024,6 hPa 0,0 mm 2,8 km/h (1 Bft) O-SO 244 0 min 0,000 mm 0,0 UV-I 0 W/m 11,1 C 13,2 C 4,8 km/h (1 Bft)
29/09/2023 22:28 13,1 C 11,7 C 17,2 C 16,7 C 16,7 C 87 % 3 lf 3 lf 23 cb 1 cb 2 cb 1024,7 hPa 0,0 mm 2,5 km/h (1 Bft) O-SO 250 0 min 0,000 mm 0,0 UV-I 0 W/m 11,0 C 13,1 C 4,8 km/h (1 Bft)
29/09/2023 22:26 13,0 C 11,7 C 17,2 C 16,7 C 16,7 C 87 % 3 lf 3 lf 23 cb 1 cb 2 cb 1024,7 hPa 0,0 mm 0,9 km/h (0 Bft) O-SO 257 0 min 0,000 mm 0,0 UV-I 0 W/m 10,9 C 13,0 C 3,2 km/h (1 Bft)
29/09/2023 22:24 13,0 C 11,7 C 17,2 C 16,7 C 16,7 C 87 % 3 lf 3 lf 23 cb 1 cb 2 cb 1024,7 hPa 0,0 mm 1,5 km/h (1 Bft) O-SO 257 0 min 0,000 mm 0,0 UV-I 0 W/m 10,9 C 13,0 C 3,2 km/h (1 Bft)
29/09/2023 22:22 13,0 C 11,7 C 17,2 C 16,7 C 16,7 C 87 % 3 lf 3 lf 23 cb 1 cb 2 cb 1024,6 hPa 0,0 mm 1,5 km/h (1 Bft) O 261 0 min 0,000 mm 0,0 UV-I 0 W/m 10,9 C 13,0 C 3,2 km/h (1 Bft)
29/09/2023 22:20 12,9 C 11,7 C 17,2 C 16,7 C 16,7 C 87 % 3 lf 3 lf 23 cb 1 cb 2 cb 1024,7 hPa 0,0 mm 1,9 km/h (1 Bft) O 261 0 min 0,000 mm 0,0 UV-I 0 W/m 10,8 C 12,9 C 4,8 km/h (1 Bft)
29/09/2023 22:18 12,9 C 11,7 C 17,2 C 16,7 C 16,7 C 87 % 3 lf 2 lf 23 cb 1 cb 2 cb 1024,7 hPa 0,0 mm 0,9 km/h (0 Bft) O 261 0 min 0,000 mm 0,0 UV-I 0 W/m 10,8 C 12,9 C 1,6 km/h (1 Bft)
29/09/2023 22:16 12,8 C 11,7 C 17,2 C 16,7 C 16,7 C 87 % 3 lf 2 lf 23 cb 1 cb 2 cb 1024,7 hPa 0,0 mm 1,5 km/h (1 Bft) O 261 0 min 0,000 mm 0,0 UV-I 0 W/m 10,7 C 12,8 C 3,2 km/h (1 Bft)
29/09/2023 22:14 12,8 C 11,7 C 17,2 C 16,7 C 16,7 C 87 % 3 lf 2 lf 23 cb 1 cb 2 cb 1024,6 hPa 0,0 mm 1,2 km/h (1 Bft) O 262 0 min 0,000 mm 0,0 UV-I 0 W/m 10,7 C 12,8 C 4,8 km/h (1 Bft)
29/09/2023 22:12 12,8 C 11,7 C 17,2 C 16,7 C 16,7 C 87 % 3 lf 2 lf 23 cb 1 cb 2 cb 1024,5 hPa 0,0 mm 0,7 km/h (0 Bft) O 267 0 min 0,000 mm 0,0 UV-I 0 W/m 10,7 C 12,8 C 3,2 km/h (1 Bft)
29/09/2023 22:10 12,8 C 11,7 C 17,2 C 16,7 C 16,7 C 87 % 3 lf 2 lf 23 cb 1 cb 2 cb 1024,6 hPa 0,0 mm 0,6 km/h (0 Bft) O 267 0 min 0,000 mm 0,0 UV-I 0 W/m 10,7 C 12,8 C 3,2 km/h (1 Bft)
29/09/2023 22:08 12,8 C 11,7 C 17,2 C 16,7 C 16,7 C 87 % 2 lf 2 lf 23 cb 1 cb 2 cb 1024,6 hPa 0,0 mm 0,4 km/h (0 Bft) O 267 0 min 0,000 mm 0,0 UV-I 0 W/m 10,7 C 12,8 C 1,6 km/h (1 Bft)
29/09/2023 22:06 12,9 C 11,7 C 17,2 C 16,7 C 16,7 C 87 % 2 lf 2 lf 23 cb 1 cb 2 cb 1024,6 hPa 0,0 mm 1,0 km/h (0 Bft) O 267 0 min 0,000 mm 0,0 UV-I 0 W/m 10,8 C 12,9 C 1,6 km/h (1 Bft)
29/09/2023 22:04 12,8 C 11,7 C 17,2 C 16,7 C 16,7 C 87 % 2 lf 2 lf 23 cb 1 cb 2 cb 1024,6 hPa 0,0 mm 1,5 km/h (1 Bft) O 267 0 min 0,000 mm 0,0 UV-I 0 W/m 10,7 C 12,8 C 3,2 km/h (1 Bft)
29/09/2023 22:02 12,9 C 12,2 C 17,2 C 16,7 C 16,7 C 87 % 2 lf 1 lf 23 cb 1 cb 2 cb 1024,5 hPa 0,0 mm 0,0 km/h (0 Bft) O 267 0 min 0,000 mm 0,0 UV-I 0 W/m 10,8 C 12,9 C 0,0 km/h (0 Bft)
29/09/2023 22:00 12,9 C 12,2 C 17,2 C 16,7 C 16,7 C 87 % 2 lf 1 lf 23 cb 1 cb 2 cb 1024,5 hPa 0,0 mm 0,0 km/h (0 Bft) O 267 0 min 0,025 mm 0,0 UV-I 0 W/m 10,8 C 12,9 C 0,0 km/h (0 Bft)
29/09/2023 21:58 12,9 C 12,2 C 17,2 C 16,7 C 16,7 C 86 % 2 lf 1 lf 23 cb 1 cb 2 cb 1024,4 hPa 0,0 mm 0,0 km/h (0 Bft) O 267 0 min 0,000 mm 0,0 UV-I 0 W/m 10,6 C 12,9 C 0,0 km/h (0 Bft)
29/09/2023 21:56 13,1 C 12,2 C 17,2 C 16,7 C 16,7 C 85 % 2 lf 1 lf 23 cb 1 cb 2 cb 1024,4 hPa 0,0 mm 0,0 km/h (0 Bft) O 267 0 min 0,000 mm 0,0 UV-I 0 W/m 10,6 C 13,1 C 0,0 km/h (0 Bft)
29/09/2023 21:54 13,3 C 12,2 C 17,2 C 16,7 C 16,7 C 85 % 1 lf 1 lf 23 cb 1 cb 2 cb 1024,5 hPa 0,0 mm 0,0 km/h (0 Bft) O 267 0 min 0,000 mm 0,0 UV-I 0 W/m 10,8 C 13,3 C 0,0 km/h (0 Bft)
29/09/2023 21:52 13,4 C 12,2 C 17,2 C 16,7 C 16,7 C 85 % 1 lf 1 lf 23 cb 1 cb 2 cb 1024,5 hPa 0,0 mm 0,7 km/h (0 Bft) O 267 0 min 0,000 mm 0,0 UV-I 0 W/m 10,9 C 13,4 C 1,6 km/h (1 Bft)
29/09/2023 21:50 13,5 C 12,2 C 17,2 C 16,7 C 16,7 C 86 % 1 lf 1 lf 23 cb 1 cb 2 cb 1024,4 hPa 0,0 mm 0,6 km/h (0 Bft) O 267 0 min 0,000 mm 0,0 UV-I 0 W/m 11,2 C 13,5 C 1,6 km/h (1 Bft)
29/09/2023 21:48 13,4 C 12,2 C 17,2 C 16,7 C 16,7 C 85 % 1 lf 1 lf 23 cb 1 cb 2 cb 1024,4 hPa 0,0 mm 0,4 km/h (0 Bft) O 267 0 min 0,000 mm 0,0 UV-I 0 W/m 10,9 C 13,4 C 1,6 km/h (1 Bft)
29/09/2023 21:46 13,5 C 12,8 C 17,2 C 16,7 C 16,7 C 85 % 1 lf 1 lf 23 cb 1 cb 2 cb 1024,4 hPa 0,0 mm 2,0 km/h (1 Bft) O 267 0 min 0,000 mm 0,0 UV-I 0 W/m 11,0 C 13,5 C 4,8 km/h (1 Bft)
29/09/2023 21:44 13,5 C 12,8 C 17,2 C 16,7 C 16,7 C 85 % 1 lf 1 lf 23 cb 1 cb 2 cb 1024,3 hPa 0,0 mm 1,8 km/h (1 Bft) O 268 0 min 0,000 mm 0,0 UV-I 0 W/m 11,0 C 13,5 C 4,8 km/h (1 Bft)
29/09/2023 21:42 13,6 C 12,8 C 17,2 C 16,7 C 16,7 C 85 % 1 lf 1 lf 23 cb 1 cb 2 cb 1024,4 hPa 0,0 mm 1,3 km/h (1 Bft) O 267 0 min 0,000 mm 0,0 UV-I 0 W/m 11,1 C 13,6 C 3,2 km/h (1 Bft)
29/09/2023 21:40 13,6 C 12,8 C 17,2 C 16,7 C 16,7 C 84 % 1 lf 1 lf 23 cb 1 cb 2 cb 1024,4 hPa 0,0 mm 0,9 km/h (0 Bft) O 267 0 min 0,000 mm 0,0 UV-I 0 W/m 10,9 C 13,6 C 4,8 km/h (1 Bft)
29/09/2023 21:38 13,7 C 12,8 C 17,2 C 16,7 C 16,7 C 84 % 1 lf 1 lf 23 cb 1 cb 2 cb 1024,3 hPa 0,0 mm 0,1 km/h (0 Bft) O 268 0 min 0,000 mm 0,0 UV-I 0 W/m 11,0 C 13,7 C 1,6 km/h (1 Bft)
29/09/2023 21:36 13,7 C 12,8 C 17,2 C 16,7 C 16,7 C 84 % 1 lf 0 lf 23 cb 1 cb 2 cb 1024,3 hPa 0,0 mm 1,2 km/h (1 Bft) O 268 0 min 0,000 mm 0,0 UV-I 0 W/m 11,0 C 13,7 C 4,8 km/h (1 Bft)
29/09/2023 21:34 13,8 C 12,8 C 17,2 C 16,7 C 16,7 C 84 % 1 lf 0 lf 23 cb 1 cb 2 cb 1024,3 hPa 0,0 mm 1,1 km/h (1 Bft) O 268 0 min 0,000 mm 0,0 UV-I 0 W/m 11,1 C 13,8 C 3,2 km/h (1 Bft)
29/09/2023 21:32 13,8 C 12,8 C 17,2 C 16,7 C 16,7 C 84 % 0 lf 0 lf 23 cb 1 cb 2 cb 1024,4 hPa 0,0 mm 2,1 km/h (1 Bft) O 267 0 min 0,000 mm 0,0 UV-I 0 W/m 11,1 C 13,8 C 3,2 km/h (1 Bft)
29/09/2023 21:30 13,9 C 12,8 C 17,2 C 16,7 C 16,7 C 84 % 0 lf 0 lf 23 cb 1 cb 2 cb 1024,3 hPa 0,0 mm 1,7 km/h (1 Bft) O 269 0 min 0,000 mm 0,0 UV-I 0 W/m 11,2 C 13,9 C 3,2 km/h (1 Bft)
29/09/2023 21:28 13,9 C 12,8 C 17,2 C 16,7 C 16,7 C 83 % 0 lf 0 lf 23 cb 1 cb 2 cb 1024,2 hPa 0,0 mm 2,7 km/h (1 Bft) O 269 0 min 0,000 mm 0,0 UV-I 0 W/m 11,1 C 13,9 C 8,0 km/h (2 Bft)
29/09/2023 21:26 14,0 C 13,3 C 17,2 C 16,7 C 16,7 C 83 % 0 lf 0 lf 23 cb 1 cb 2 cb 1024,2 hPa 0,0 mm 1,4 km/h (1 Bft) O 267 0 min 0,000 mm 0,0 UV-I 0 W/m 11,2 C 14,0 C 4,8 km/h (1 Bft)
29/09/2023 21:24 14,1 C 13,3 C 17,2 C 16,7 C 16,7 C 83 % 0 lf 0 lf 23 cb 1 cb 2 cb 1024,2 hPa 0,0 mm 1,1 km/h (1 Bft) O 268 0 min 0,000 mm 0,0 UV-I 0 W/m 11,3 C 14,1 C 1,6 km/h (1 Bft)
29/09/2023 21:22 14,2 C 13,3 C 17,2 C 16,7 C 16,7 C 83 % 0 lf 0 lf 23 cb 1 cb 2 cb 1024,2 hPa 0,0 mm 1,4 km/h (1 Bft) O 268 0 min 0,000 mm 0,0 UV-I 0 W/m 11,4 C 14,2 C 3,2 km/h (1 Bft)
29/09/2023 21:20 14,2 C 13,3 C 17,2 C 16,7 C 16,7 C 83 % 0 lf 0 lf 23 cb 1 cb 2 cb 1024,3 hPa 0,0 mm 2,1 km/h (1 Bft) O 268 0 min 0,000 mm 0,0 UV-I 0 W/m 11,4 C 14,2 C 4,8 km/h (1 Bft)
29/09/2023 21:18 14,2 C 13,3 C 17,2 C 16,7 C 16,7 C 83 % 0 lf 0 lf 23 cb 1 cb 2 cb 1024,3 hPa 0,0 mm 3,6 km/h (1 Bft) O 277 0 min 0,000 mm 0,0 UV-I 0 W/m 11,4 C 14,2 C 8,0 km/h (2 Bft)
29/09/2023 21:16 14,3 C 13,3 C 17,2 C 16,7 C 16,7 C 82 % 0 lf 0 lf 23 cb 1 cb 2 cb 1024,2 hPa 0,0 mm 2,3 km/h (1 Bft) O 281 0 min 0,000 mm 0,0 UV-I 0 W/m 11,3 C 14,3 C 4,8 km/h (1 Bft)
29/09/2023 21:14 14,3 C 13,3 C 17,2 C 16,7 C 16,7 C 82 % 0 lf 0 lf 23 cb 1 cb 2 cb 1024,2 hPa 0,0 mm 2,5 km/h (1 Bft) O 281 0 min 0,000 mm 0,0 UV-I 0 W/m 11,3 C 14,3 C 4,8 km/h (1 Bft)
29/09/2023 21:12 14,3 C 13,3 C 17,2 C 16,7 C 16,7 C 82 % 0 lf 0 lf 23 cb 1 cb 2 cb 1024,2 hPa 0,0 mm 2,5 km/h (1 Bft) O 272 0 min 0,000 mm 0,0 UV-I 0 W/m 11,3 C 14,3 C 4,8 km/h (1 Bft)
29/09/2023 21:10 14,3 C 13,3 C 17,2 C 16,7 C 16,7 C 82 % 0 lf 0 lf 23 cb 1 cb 2 cb 1024,2 hPa 0,0 mm 3,1 km/h (1 Bft) O 264 0 min 0,000 mm 0,0 UV-I 0 W/m 11,3 C 14,3 C 6,4 km/h (2 Bft)
29/09/2023 21:08 14,3 C 13,3 C 17,2 C 16,7 C 16,7 C 82 % 0 lf 0 lf 23 cb 1 cb 2 cb 1024,2 hPa 0,0 mm 4,8 km/h (1 Bft) O-NO 289 0 min 0,000 mm 0,0 UV-I 0 W/m 11,3 C 14,3 C 9,7 km/h (2 Bft)
29/09/2023 21:06 14,3 C 13,3 C 17,2 C 16,7 C 16,7 C 82 % 0 lf 0 lf 23 cb 1 cb 2 cb 1024,2 hPa 0,0 mm 3,4 km/h (1 Bft) O-NO 290 0 min 0,000 mm 0,0 UV-I 0 W/m 11,3 C 14,3 C 8,0 km/h (2 Bft)
29/09/2023 21:04 14,4 C 13,3 C 17,2 C 16,7 C 16,7 C 82 % 0 lf 0 lf 23 cb 1 cb 2 cb 1024,2 hPa 0,0 mm 3,7 km/h (1 Bft) O 281 0 min 0,000 mm 0,0 UV-I 0 W/m 11,4 C 14,4 C 8,0 km/h (2 Bft)
29/09/2023 21:02 14,4 C 13,3 C 17,2 C 16,7 C 16,7 C 82 % 0 lf 0 lf 23 cb 1 cb 2 cb 1024,2 hPa 0,0 mm 3,6 km/h (1 Bft) O-NO 288 0 min 0,000 mm 0,0 UV-I 0 W/m 11,4 C 14,4 C 8,0 km/h (2 Bft)
29/09/2023 21:00 14,4 C 13,3 C 17,2 C 16,7 C 16,7 C 82 % 0 lf 0 lf 23 cb 1 cb 2 cb 1024,1 hPa 0,0 mm 4,0 km/h (1 Bft) O 277 0 min 0,025 mm 0,0 UV-I 0 W/m 11,4 C 14,4 C 8,0 km/h (2 Bft)
29/09/2023 20:58 14,4 C 13,3 C 17,2 C 16,7 C 16,7 C 82 % 0 lf 0 lf 23 cb 1 cb 2 cb 1024,1 hPa 0,0 mm 2,6 km/h (1 Bft) O-NO 289 0 min 0,000 mm 0,0 UV-I 0 W/m 11,4 C 14,4 C 6,4 km/h (2 Bft)
29/09/2023 20:56 14,4 C 13,3 C 17,2 C 16,7 C 16,7 C 82 % 0 lf 0 lf 23 cb 1 cb 2 cb 1024,0 hPa 0,0 mm 5,1 km/h (1 Bft) O 265 0 min 0,000 mm 0,0 UV-I 0 W/m 11,4 C 14,4 C 8,0 km/h (2 Bft)
29/09/2023 20:54 14,5 C 13,3 C 17,2 C 16,7 C 16,7 C 81 % 0 lf 0 lf 23 cb 1 cb 2 cb 1024,0 hPa 0,0 mm 2,5 km/h (1 Bft) O 271 0 min 0,000 mm 0,0 UV-I 0 W/m 11,3 C 14,5 C 8,0 km/h (2 Bft)
29/09/2023 20:52 14,6 C 13,3 C 17,2 C 16,7 C 16,7 C 81 % 0 lf 0 lf 23 cb 1 cb 2 cb 1023,9 hPa 0,0 mm 4,0 km/h (1 Bft) O 264 0 min 0,000 mm 0,0 UV-I 0 W/m 11,4 C 14,6 C 8,0 km/h (2 Bft)
29/09/2023 20:50 14,6 C 13,3 C 17,2 C 16,7 C 16,7 C 81 % 0 lf 0 lf 23 cb 1 cb 2 cb 1024,0 hPa 0,0 mm 5,4 km/h (1 Bft) O 273 0 min 0,000 mm 0,0 UV-I 0 W/m 11,4 C 14,6 C 12,9 km/h (3 Bft)
29/09/2023 20:48 14,6 C 13,3 C 17,2 C 16,7 C 16,7 C 82 % 0 lf 0 lf 23 cb 1 cb 2 cb 1023,9 hPa 0,0 mm 5,2 km/h (1 Bft) O 281 0 min 0,000 mm 0,0 UV-I 0 W/m 11,6 C 14,6 C 9,7 km/h (2 Bft)
29/09/2023 20:46 14,5 C 13,3 C 17,2 C 16,7 C 16,7 C 82 % 0 lf 0 lf 23 cb 1 cb 2 cb 1023,9 hPa 0,0 mm 5,7 km/h (1 Bft) O 271 0 min 0,000 mm 0,0 UV-I 0 W/m 11,5 C 14,5 C 9,7 km/h (2 Bft)
29/09/2023 20:44 14,4 C 13,3 C 17,2 C 16,7 C 16,7 C 82 % 0 lf 0 lf 23 cb 1 cb 2 cb 1023,7 hPa 0,0 mm 4,6 km/h (1 Bft) O 278 0 min 0,000 mm 0,0 UV-I 0 W/m 11,4 C 14,4 C 8,0 km/h (2 Bft)
29/09/2023 20:42 14,4 C 13,3 C 17,2 C 16,7 C 16,7 C 82 % 1 lf 0 lf 23 cb 1 cb 2 cb 1023,7 hPa 0,0 mm 4,1 km/h (1 Bft) O 262 0 min 0,000 mm 0,0 UV-I 0 W/m 11,4 C 14,4 C 8,0 km/h (2 Bft)
29/09/2023 20:40 14,3 C 13,3 C 17,2 C 16,7 C 16,7 C 83 % 1 lf 0 lf 23 cb 1 cb 2 cb 1023,6 hPa 0,0 mm 2,7 km/h (1 Bft) O 279 0 min 0,000 mm 0,0 UV-I 0 W/m 11,5 C 14,3 C 4,8 km/h (1 Bft)
29/09/2023 20:38 14,3 C 13,3 C 17,2 C 16,7 C 16,7 C 83 % 1 lf 0 lf 23 cb 1 cb 2 cb 1023,6 hPa 0,0 mm 2,5 km/h (1 Bft) O 279 0 min 0,000 mm 0,0 UV-I 0 W/m 11,5 C 14,3 C 4,8 km/h (1 Bft)
29/09/2023 20:36 14,2 C 13,3 C 17,2 C 16,7 C 16,7 C 83 % 1 lf 0 lf 23 cb 1 cb 2 cb 1023,6 hPa 0,0 mm 2,9 km/h (1 Bft) O 261 0 min 0,000 mm 0,0 UV-I 0 W/m 11,4 C 14,2 C 6,4 km/h (2 Bft)
29/09/2023 20:34 14,2 C 13,3 C 17,2 C 16,7 C 16,7 C 83 % 1 lf 1 lf 23 cb 1 cb 2 cb 1023,6 hPa 0,0 mm 1,5 km/h (1 Bft) O 263 0 min 0,000 mm 0,0 UV-I 0 W/m 11,4 C 14,2 C 3,2 km/h (1 Bft)
29/09/2023 20:32 14,2 C 13,3 C 17,2 C 16,7 C 16,7 C 83 % 1 lf 1 lf 23 cb 1 cb 2 cb 1023,6 hPa 0,0 mm 1,3 km/h (1 Bft) O 263 0 min 0,000 mm 0,0 UV-I 0 W/m 11,4 C 14,2 C 4,8 km/h (1 Bft)
29/09/2023 20:30 14,2 C 13,3 C 17,2 C 16,7 C 16,7 C 83 % 1 lf 1 lf 23 cb 1 cb 2 cb 1023,5 hPa 0,0 mm 1,5 km/h (1 Bft) O 264 0 min 0,000 mm 0,0 UV-I 0 W/m 11,4 C 14,2 C 4,8 km/h (1 Bft)
29/09/2023 20:28 14,2 C 13,3 C 17,2 C 16,7 C 16,7 C 84 % 1 lf 1 lf 23 cb 1 cb 2 cb 1023,5 hPa 0,0 mm 2,2 km/h (1 Bft) O 267 0 min 0,000 mm 0,0 UV-I 0 W/m 11,5 C 14,2 C 3,2 km/h (1 Bft)
29/09/2023 20:26 14,2 C 13,3 C 17,2 C 16,7 C 16,7 C 84 % 1 lf 1 lf 23 cb 1 cb 2 cb 1023,5 hPa 0,0 mm 1,9 km/h (1 Bft) O 270 0 min 0,000 mm 0,0 UV-I 0 W/m 11,5 C 14,2 C 3,2 km/h (1 Bft)
29/09/2023 20:24 14,2 C 13,3 C 17,2 C 16,7 C 16,7 C 83 % 1 lf 1 lf 23 cb 1 cb 2 cb 1023,5 hPa 0,0 mm 0,0 km/h (0 Bft) O 271 0 min 0,000 mm 0,0 UV-I 0 W/m 11,4 C 14,2 C 0,0 km/h (0 Bft)
29/09/2023 20:22 14,3 C 13,3 C 17,2 C 16,7 C 16,7 C 83 % 1 lf 1 lf 23 cb 1 cb 2 cb 1023,5 hPa 0,0 mm 0,0 km/h (0 Bft) O 271 0 min 0,000 mm 0,0 UV-I 0 W/m 11,5 C 14,3 C 1,6 km/h (1 Bft)
29/09/2023 20:20 14,4 C 13,3 C 17,2 C 16,7 C 16,7 C 83 % 1 lf 0 lf 23 cb 1 cb 2 cb 1023,5 hPa 0,0 mm 0,1 km/h (0 Bft) O 271 0 min 0,000 mm 0,0 UV-I 0 W/m 11,5 C 14,4 C 1,6 km/h (1 Bft)
29/09/2023 20:18 14,5 C 13,3 C 17,2 C 16,7 C 16,7 C 82 % 1 lf 0 lf 23 cb 1 cb 2 cb 1023,5 hPa 0,0 mm 1,2 km/h (1 Bft) O 271 0 min 0,000 mm 0,0 UV-I 0 W/m 11,5 C 14,5 C 4,8 km/h (1 Bft)
29/09/2023 20:16 14,7 C 13,3 C 17,2 C 16,7 C 16,7 C 83 % 1 lf 0 lf 23 cb 1 cb 2 cb 1023,4 hPa 0,0 mm 1,1 km/h (1 Bft) O-NO 300 0 min 0,000 mm 0,0 UV-I 0 W/m 11,8 C 14,7 C 3,2 km/h (1 Bft)
29/09/2023 20:14 14,7 C 13,3 C 17,2 C 16,7 C 16,7 C 82 % 1 lf 0 lf 23 cb 1 cb 2 cb 1023,3 hPa 0,0 mm 1,1 km/h (1 Bft) O-NO 301 0 min 0,000 mm 0,0 UV-I 0 W/m 11,7 C 14,7 C 3,2 km/h (1 Bft)
29/09/2023 20:12 14,7 C 13,3 C 17,2 C 16,7 C 16,7 C 82 % 1 lf 0 lf 23 cb 1 cb 2 cb 1023,4 hPa 0,0 mm 1,3 km/h (1 Bft) O-NO 302 0 min 0,000 mm 0,0 UV-I 0 W/m 11,7 C 14,7 C 3,2 km/h (1 Bft)
29/09/2023 20:10 14,7 C 13,9 C 17,2 C 16,7 C 16,7 C 82 % 1 lf 0 lf 23 cb 1 cb 2 cb 1023,6 hPa 0,0 mm 1,3 km/h (1 Bft) O-NO 302 0 min 0,000 mm 0,0 UV-I 0 W/m 11,7 C 14,7 C 1,6 km/h (1 Bft)
29/09/2023 20:08 14,7 C 13,9 C 17,2 C 16,7 C 16,7 C 83 % 1 lf 0 lf 23 cb 1 cb 2 cb 1023,6 hPa 0,0 mm 1,5 km/h (1 Bft) O-NO 302 0 min 0,000 mm 0,0 UV-I 0 W/m 11,8 C 14,7 C 3,2 km/h (1 Bft)
29/09/2023 20:06 14,6 C 13,9 C 17,2 C 16,7 C 16,7 C 83 % 1 lf 0 lf 23 cb 1 cb 2 cb 1023,5 hPa 0,0 mm 0,2 km/h (0 Bft) O-NO 302 0 min 0,000 mm 0,0 UV-I 0 W/m 11,7 C 14,6 C 1,6 km/h (1 Bft)
29/09/2023 20:04 14,7 C 13,9 C 17,2 C 16,7 C 16,7 C 82 % 1 lf 0 lf 23 cb 1 cb 2 cb 1023,4 hPa 0,0 mm 0,0 km/h (0 Bft) O-NO 302 0 min 0,000 mm 0,0 UV-I 0 W/m 11,7 C 14,7 C 0,0 km/h (0 Bft)
29/09/2023 20:02 14,7 C 13,9 C 17,2 C 16,7 C 16,7 C 82 % 0 lf 0 lf 23 cb 1 cb 2 cb 1023,3 hPa 0,0 mm 0,0 km/h (0 Bft) O-NO 302 0 min 0,000 mm 0,0 UV-I 0 W/m 11,7 C 14,7 C 0,0 km/h (0 Bft)
29/09/2023 20:00 14,8 C 13,9 C 17,2 C 16,7 C 16,7 C 81 % 0 lf 0 lf 23 cb 1 cb 2 cb 1023,3 hPa 0,0 mm 0,1 km/h (0 Bft) O-NO 302 0 min 0,000 mm 0,0 UV-I 0 W/m 11,6 C 14,8 C 1,6 km/h (1 Bft)
29/09/2023 19:58 14,9 C 13,9 C 17,2 C 16,7 C 16,7 C 81 % 0 lf 0 lf 23 cb 1 cb 2 cb 1023,2 hPa 0,0 mm 0,2 km/h (0 Bft) O-NO 302 0 min 0,000 mm 0,0 UV-I 0 W/m 11,7 C 14,9 C 1,6 km/h (1 Bft)
29/09/2023 19:56 15,0 C 13,9 C 17,2 C 16,7 C 16,7 C 81 % 0 lf 0 lf 23 cb 1 cb 2 cb 1023,3 hPa 0,0 mm 0,0 km/h (0 Bft) O-NO 302 0 min 0,000 mm 0,0 UV-I 0 W/m 11,8 C 15,0 C 0,0 km/h (0 Bft)
29/09/2023 19:54 15,1 C 13,9 C 17,2 C 16,7 C 16,7 C 81 % 0 lf 0 lf 23 cb 1 cb 2 cb 1023,3 hPa 0,0 mm 0,0 km/h (0 Bft) O-NO 302 0 min 0,000 mm 0,0 UV-I 0 W/m 11,9 C 15,1 C 0,0 km/h (0 Bft)
29/09/2023 19:52 15,1 C 14,4 C 17,2 C 16,7 C 16,7 C 81 % 0 lf 0 lf 23 cb 1 cb 2 cb 1023,2 hPa 0,0 mm 0,8 km/h (0 Bft) O-NO 302 0 min 0,000 mm 0,0 UV-I 0 W/m 11,9 C 15,1 C 1,6 km/h (1 Bft)
29/09/2023 19:50 15,2 C 14,4 C 17,2 C 16,7 C 16,7 C 80 % 0 lf 0 lf 23 cb 1 cb 2 cb 1023,1 hPa 0,0 mm 0,5 km/h (0 Bft) O-NO 302 0 min 0,000 mm 0,0 UV-I 0 W/m 11,8 C 15,2 C 1,6 km/h (1 Bft)
29/09/2023 19:48 15,3 C 14,4 C 17,2 C 16,7 C 16,7 C 80 % 0 lf 0 lf 23 cb 1 cb 2 cb 1023,1 hPa 0,0 mm 0,0 km/h (0 Bft) O-NO 302 0 min 0,000 mm 0,0 UV-I 0 W/m 11,9 C 15,3 C 0,0 km/h (0 Bft)
29/09/2023 19:46 15,4 C 14,4 C 17,2 C 16,7 C 16,7 C 80 % 0 lf 0 lf 23 cb 1 cb 2 cb 1023,0 hPa 0,0 mm 0,0 km/h (0 Bft) O-NO 302 0 min 0,000 mm 0,0 UV-I 0 W/m 12,0 C 15,4 C 0,0 km/h (0 Bft)
29/09/2023 19:44 15,5 C 14,4 C 17,2 C 16,7 C 16,7 C 79 % 0 lf 0 lf 23 cb 1 cb 2 cb 1022,9 hPa 0,0 mm 0,4 km/h (0 Bft) O-NO 302 0 min 0,000 mm 0,0 UV-I 0 W/m 11,9 C 15,5 C 1,6 km/h (1 Bft)
29/09/2023 19:42 15,4 C 15,0 C 17,2 C 16,7 C 16,7 C 80 % 0 lf 0 lf 23 cb 1 cb 2 cb 1022,9 hPa 0,0 mm 1,0 km/h (0 Bft) O-NO 302 0 min 0,000 mm 0,0 UV-I 0 W/m 12,0 C 15,4 C 3,2 km/h (1 Bft)
29/09/2023 19:40 15,4 C 15,0 C 17,2 C 16,7 C 16,7 C 80 % 0 lf 0 lf 23 cb 1 cb 2 cb 1022,9 hPa 0,0 mm 0,7 km/h (0 Bft) O-NO 302 0 min 0,000 mm 0,0 UV-I 0 W/m 12,0 C 15,4 C 1,6 km/h (1 Bft)
29/09/2023 19:38 15,4 C 15,0 C 17,2 C 16,7 C 16,7 C 80 % 0 lf 0 lf 23 cb 1 cb 2 cb 1022,9 hPa 0,0 mm 0,3 km/h (0 Bft) O-NO 302 0 min 0,000 mm 0,0 UV-I 0 W/m 12,0 C 15,4 C 1,6 km/h (1 Bft)
29/09/2023 19:36 15,6 C 15,0 C 17,2 C 16,7 C 16,7 C 79 % 0 lf 0 lf 23 cb 1 cb 2 cb 1022,8 hPa 0,0 mm 0,1 km/h (0 Bft) O-NO 302 0 min 0,000 mm 0,0 UV-I 0 W/m 12,0 C 15,6 C 1,6 km/h (1 Bft)
29/09/2023 19:34 15,7 C 15,0 C 17,2 C 16,7 C 16,7 C 79 % 0 lf 0 lf 23 cb 1 cb 2 cb 1022,8 hPa 0,0 mm 0,0 km/h (0 Bft) O-NO 302 0 min 0,000 mm 0,0 UV-I 0 W/m 12,1 C 15,7 C 0,0 km/h (0 Bft)
29/09/2023 19:32 15,7 C 15,6 C 17,2 C 16,7 C 16,7 C 79 % 0 lf 0 lf 23 cb 1 cb 2 cb 1022,8 hPa 0,0 mm 0,0 km/h (0 Bft) O-NO 302 0 min 0,000 mm 0,0 UV-I 0 W/m 12,1 C 15,7 C 0,0 km/h (0 Bft)
29/09/2023 19:30 15,8 C 15,6 C 17,2 C 16,7 C 16,7 C 79 % 0 lf 0 lf 23 cb 1 cb 2 cb 1022,8 hPa 0,0 mm 0,1 km/h (0 Bft) O-NO 302 0 min 0,000 mm 0,0 UV-I 0 W/m 12,2 C 15,8 C 1,6 km/h (1 Bft)
29/09/2023 19:28 15,9 C 15,6 C 17,2 C 16,7 C 16,7 C 77 % 0 lf 0 lf 23 cb 1 cb 2 cb 1022,8 hPa 0,0 mm 0,4 km/h (0 Bft) O-NO 302 0 min 0,000 mm 0,0 UV-I 0 W/m 11,9 C 15,9 C 1,6 km/h (1 Bft)
29/09/2023 19:26 16,2 C 15,6 C 17,2 C 16,7 C 16,7 C 77 % 0 lf 0 lf 23 cb 1 cb 2 cb 1022,8 hPa 0,0 mm 0,0 km/h (0 Bft) O-NO 302 0 min 0,000 mm 0,0 UV-I 5 W/m 12,2 C 16,2 C 0,0 km/h (0 Bft)
29/09/2023 19:24 16,5 C 16,1 C 17,2 C 16,7 C 16,7 C 75 % 0 lf 0 lf 23 cb 1 cb 2 cb 1022,8 hPa 0,0 mm 0,6 km/h (0 Bft) O-NO 302 0 min 0,000 mm 0,0 UV-I 5 W/m 12,1 C 16,5 C 1,6 km/h (1 Bft)
29/09/2023 19:22 16,6 C 16,1 C 17,2 C 16,7 C 16,7 C 75 % 0 lf 0 lf 23 cb 1 cb 2 cb 1022,7 hPa 0,0 mm 0,8 km/h (0 Bft) O-NO 302 0 min 0,000 mm 0,0 UV-I 5 W/m 12,1 C 16,6 C 3,2 km/h (1 Bft)
29/09/2023 19:20 16,6 C 16,1 C 17,2 C 16,7 C 16,7 C 76 % 0 lf 0 lf 23 cb 1 cb 2 cb 1022,8 hPa 0,0 mm 0,4 km/h (0 Bft) O-NO 302 0 min 0,000 mm 0,0 UV-I 7 W/m 12,3 C 16,6 C 3,2 km/h (1 Bft)
29/09/2023 19:18 16,8 C 16,1 C 17,2 C 16,7 C 16,7 C 75 % 0 lf 0 lf 23 cb 1 cb 2 cb 1022,8 hPa 0,0 mm 1,0 km/h (0 Bft) O-NO 302 0 min 0,000 mm 0,0 UV-I 7 W/m 12,3 C 16,8 C 3,2 km/h (1 Bft)
29/09/2023 19:16 17,0 C 16,1 C 17,2 C 16,7 C 16,7 C 75 % 0 lf 0 lf 23 cb 1 cb 2 cb 1022,8 hPa 0,0 mm 0,9 km/h (0 Bft) O-NO 303 0 min 0,000 mm 0,0 UV-I 9 W/m 12,5 C 17,0 C 4,8 km/h (1 Bft)
29/09/2023 19:14 17,1 C 16,1 C 17,2 C 16,7 C 16,7 C 75 % 0 lf 0 lf 23 cb 1 cb 2 cb 1022,8 hPa 0,0 mm 0,8 km/h (0 Bft) O-NO 302 0 min 0,000 mm 0,0 UV-I 11 W/m 12,6 C 17,1 C 3,2 km/h (1 Bft)
29/09/2023 19:12 17,2 C 16,7 C 17,2 C 16,7 C 16,7 C 74 % 0 lf 0 lf 23 cb 1 cb 2 cb 1022,8 hPa 0,0 mm 1,6 km/h (1 Bft) O-NO 303 0 min 0,000 mm 0,0 UV-I 11 W/m 12,5 C 17,2 C 3,2 km/h (1 Bft)
29/09/2023 19:10 17,3 C 16,7 C 17,2 C 16,7 C 16,7 C 74 % 0 lf 0 lf 23 cb 1 cb 2 cb 1022,7 hPa 0,0 mm 1,3 km/h (1 Bft) O-NO 302 0 min 0,000 mm 0,0 UV-I 12 W/m 12,6 C 17,3 C 3,2 km/h (1 Bft)
29/09/2023 19:08 17,3 C 16,7 C 17,2 C 16,7 C 16,7 C 74 % 0 lf 0 lf 23 cb 1 cb 2 cb 1022,7 hPa 0,0 mm 1,0 km/h (0 Bft) O-NO 303 0 min 0,000 mm 0,0 UV-I 12 W/m 12,6 C 17,3 C 3,2 km/h (1 Bft)
29/09/2023 19:06 17,4 C 16,7 C 17,2 C 16,7 C 16,7 C 74 % 0 lf 0 lf 23 cb 1 cb 2 cb 1022,7 hPa 0,0 mm 1,8 km/h (1 Bft) O-NO 303 0 min 0,000 mm 0,0 UV-I 16 W/m 12,7 C 17,4 C 3,2 km/h (1 Bft)
29/09/2023 19:04 17,6 C 17,2 C 17,2 C 16,7 C 16,7 C 73 % 0 lf 0 lf 23 cb 1 cb 2 cb 1022,6 hPa 0,0 mm 0,1 km/h (0 Bft) O-NO 303 0 min 0,000 mm 0,0 UV-I 16 W/m 12,7 C 17,6 C 1,6 km/h (1 Bft)
29/09/2023 19:02 17,6 C 17,2 C 17,2 C 16,7 C 16,7 C 73 % 0 lf 0 lf 23 cb 1 cb 2 cb 1022,6 hPa 0,0 mm 1,7 km/h (1 Bft) O-NO 303 0 min 0,000 mm 0,0 UV-I 18 W/m 12,7 C 17,6 C 4,8 km/h (1 Bft)
29/09/2023 19:00 17,7 C 17,2 C 17,2 C 16,7 C 16,7 C 72 % 0 lf 0 lf 23 cb 1 cb 2 cb 1022,6 hPa 0,0 mm 2,1 km/h (1 Bft) NO 305 0 min 0,077 mm 0,0 UV-I 21 W/m 12,6 C 17,7 C 4,8 km/h (1 Bft)
29/09/2023 18:58 17,7 C 17,2 C 17,2 C 16,7 C 16,7 C 72 % 0 lf 0 lf 23 cb 1 cb 2 cb 1022,5 hPa 0,0 mm 4,0 km/h (1 Bft) NO 307 0 min 0,000 mm 0,0 UV-I 21 W/m 12,6 C 17,7 C 6,4 km/h (2 Bft)
29/09/2023 18:56 17,8 C 17,2 C 17,2 C 16,7 C 16,7 C 72 % 0 lf 0 lf 23 cb 1 cb 2 cb 1022,6 hPa 0,0 mm 4,7 km/h (1 Bft) NO 305 0 min 0,000 mm 0,0 UV-I 25 W/m 12,7 C 17,8 C 8,0 km/h (2 Bft)
29/09/2023 18:54 17,8 C 17,2 C 17,2 C 16,7 C 16,7 C 72 % 0 lf 0 lf 23 cb 1 cb 2 cb 1022,5 hPa 0,0 mm 3,8 km/h (1 Bft) NO 305 0 min 0,000 mm 0,0 UV-I 28 W/m 12,7 C 17,8 C 11,3 km/h (2 Bft)
29/09/2023 18:52 17,9 C 17,8 C 17,2 C 16,7 C 16,7 C 72 % 0 lf 0 lf 23 cb 1 cb 2 cb 1022,5 hPa 0,0 mm 3,1 km/h (1 Bft) NO 312 0 min 0,000 mm 0,0 UV-I 33 W/m 12,8 C 17,9 C 6,4 km/h (2 Bft)
29/09/2023 18:50 17,9 C 17,8 C 17,2 C 16,7 C 16,7 C 71 % 0 lf 0 lf 23 cb 1 cb 2 cb 1022,4 hPa 0,0 mm 3,8 km/h (1 Bft) O-NO 297 0 min 0,000 mm 0,0 UV-I 35 W/m 12,6 C 17,9 C 6,4 km/h (2 Bft)
29/09/2023 18:48 18,0 C 17,8 C 17,2 C 16,7 C 16,7 C 71 % 0 lf 0 lf 23 cb 1 cb 2 cb 1022,4 hPa 0,0 mm 3,9 km/h (1 Bft) O-NO 298 0 min 0,000 mm 0,0 UV-I 42 W/m 12,7 C 18,0 C 8,0 km/h (2 Bft)
29/09/2023 18:46 18,1 C 17,8 C 17,2 C 16,7 C 16,7 C 71 % 0 lf 0 lf 23 cb 1 cb 2 cb 1022,4 hPa 0,0 mm 2,9 km/h (1 Bft) NO 304 0 min 0,000 mm 0,0 UV-I 44 W/m 12,8 C 18,1 C 4,8 km/h (1 Bft)
29/09/2023 18:44 18,1 C 17,8 C 17,2 C 16,7 C 16,7 C 71 % 0 lf 0 lf 23 cb 1 cb 2 cb 1022,4 hPa 0,0 mm 3,4 km/h (1 Bft) NO 308 0 min 0,000 mm 0,0 UV-I 51 W/m 12,8 C 18,1 C 6,4 km/h (2 Bft)
29/09/2023 18:42 18,1 C 17,8 C 17,2 C 16,7 C 16,7 C 71 % 0 lf 0 lf 23 cb 1 cb 2 cb 1022,4 hPa 0,0 mm 5,2 km/h (1 Bft) NO 315 0 min 0,000 mm 0,0 UV-I 62 W/m 12,8 C 18,1 C 9,7 km/h (2 Bft)
29/09/2023 18:40 18,1 C 18,3 C 17,2 C 16,7 C 16,7 C 71 % 0 lf 0 lf 23 cb 1 cb 2 cb 1022,2 hPa 0,0 mm 3,5 km/h (1 Bft) O-NO 294 2 min 0,000 mm 0,0 UV-I 70 W/m 12,8 C 18,1 C 11,3 km/h (2 Bft)
29/09/2023 18:38 18,2 C 18,3 C 17,2 C 16,7 C 16,7 C 71 % 0 lf 0 lf 23 cb 1 cb 2 cb 1022,2 hPa 0,0 mm 1,0 km/h (0 Bft) N-NO 344 2 min 0,000 mm 0,0 UV-I 84 W/m 12,9 C 18,2 C 3,2 km/h (1 Bft)
29/09/2023 18:36 18,4 C 18,3 C 17,2 C 16,7 C 16,7 C 70 % 0 lf 0 lf 23 cb 1 cb 2 cb 1022,1 hPa 0,0 mm 1,9 km/h (1 Bft) N-NO 344 2 min 0,000 mm 0,0 UV-I 88 W/m 12,8 C 18,4 C 3,2 km/h (1 Bft)
29/09/2023 18:34 18,5 C 18,3 C 17,2 C 16,7 C 16,7 C 70 % 0 lf 0 lf 23 cb 1 cb 2 cb 1022,1 hPa 0,0 mm 2,1 km/h (1 Bft) N-NO 338 2 min 0,000 mm 0,0 UV-I 88 W/m 12,9 C 18,5 C 4,8 km/h (1 Bft)
29/09/2023 18:32 18,5 C 18,3 C 17,2 C 16,7 C 16,7 C 70 % 0 lf 0 lf 23 cb 1 cb 2 cb 1022,0 hPa 0,0 mm 2,0 km/h (1 Bft) NO 308 2 min 0,000 mm 0,0 UV-I 97 W/m 12,9 C 18,5 C 4,8 km/h (1 Bft)
29/09/2023 18:30 18,5 C 18,3 C 17,2 C 16,7 C 16,7 C 69 % 0 lf 0 lf 23 cb 1 cb 2 cb 1022,0 hPa 0,0 mm 3,1 km/h (1 Bft) O-NO 300 2 min 0,000 mm 0,0 UV-I 98 W/m 12,7 C 18,5 C 6,4 km/h (2 Bft)
29/09/2023 18:28 18,6 C 18,9 C 17,2 C 16,7 C 16,7 C 70 % 0 lf 0 lf 23 cb 1 cb 2 cb 1021,9 hPa 0,0 mm 3,7 km/h (1 Bft) N-NO 338 2 min 0,000 mm 0,0 UV-I 105 W/m 13,0 C 18,6 C 9,7 km/h (2 Bft)
29/09/2023 18:26 18,6 C 18,9 C 17,2 C 16,7 C 16,7 C 69 % 0 lf 0 lf 23 cb 1 cb 2 cb 1021,9 hPa 0,0 mm 5,3 km/h (1 Bft) O-NO 294 2 min 0,000 mm 0,0 UV-I 114 W/m 12,8 C 18,6 C 8,0 km/h (2 Bft)
29/09/2023 18:24 18,6 C 18,9 C 17,2 C 16,7 C 16,7 C 69 % 0 lf 0 lf 23 cb 1 cb 2 cb 1021,9 hPa 0,0 mm 8,8 km/h (2 Bft) NO 312 2 min 0,000 mm 0,0 UV-I 127 W/m 12,8 C 17,6 C 12,9 km/h (3 Bft)
29/09/2023 18:22 18,7 C 19,4 C 17,2 C 16,7 C 16,7 C 69 % 0 lf 0 lf 23 cb 1 cb 2 cb 1021,9 hPa 0,0 mm 5,8 km/h (2 Bft) NO 318 2 min 0,000 mm 0,0 UV-I 135 W/m 12,9 C 18,7 C 11,3 km/h (2 Bft)
29/09/2023 18:20 18,7 C 19,4 C 17,2 C 16,7 C 16,7 C 69 % 0 lf 0 lf 23 cb 1 cb 2 cb 1021,9 hPa 0,0 mm 5,4 km/h (1 Bft) NO 313 2 min 0,000 mm 0,0 UV-I 142 W/m 12,9 C 18,7 C 14,5 km/h (3 Bft)
29/09/2023 18:18 18,7 C 19,4 C 17,2 C 16,7 C 16,7 C 69 % 0 lf 0 lf 23 cb 1 cb 2 cb 1021,9 hPa 0,0 mm 5,0 km/h (1 Bft) N 356 2 min 0,000 mm 0,0 UV-I 111 W/m 12,9 C 18,7 C 12,9 km/h (3 Bft)
29/09/2023 18:16 18,8 C 20,0 C 17,2 C 16,7 C 16,7 C 70 % 0 lf 0 lf 23 cb 1 cb 2 cb 1022,0 hPa 0,0 mm 5,6 km/h (1 Bft) NO 319 0 min 0,000 mm 0,0 UV-I 88 W/m 13,2 C 18,8 C 9,7 km/h (2 Bft)
29/09/2023 18:14 18,8 C 20,0 C 17,2 C 16,7 C 16,7 C 69 % 0 lf 0 lf 23 cb 1 cb 2 cb 1022,0 hPa 0,0 mm 5,4 km/h (1 Bft) NO 306 0 min 0,000 mm 0,0 UV-I 95 W/m 13,0 C 18,8 C 11,3 km/h (2 Bft)
29/09/2023 18:12 18,8 C 20,6 C 17,2 C 16,7 C 16,7 C 70 % 0 lf 0 lf 23 cb 1 cb 2 cb 1022,0 hPa 0,0 mm 3,2 km/h (1 Bft) NO 315 0 min 0,000 mm 0,0 UV-I 104 W/m 13,2 C 18,8 C 8,0 km/h (2 Bft)
29/09/2023 18:10 18,7 C 20,6 C 17,2 C 16,7 C 16,7 C 71 % 0 lf 0 lf 23 cb 1 cb 2 cb 1021,9 hPa 0,0 mm 3,2 km/h (1 Bft) NO 316 0 min 0,000 mm 0,0 UV-I 107 W/m 13,3 C 18,7 C 8,0 km/h (2 Bft)
29/09/2023 18:08 18,6 C 20,6 C 17,2 C 16,7 C 16,7 C 71 % 0 lf 0 lf 23 cb 1 cb 2 cb 1021,9 hPa 0,0 mm 4,1 km/h (1 Bft) O-NO 288 0 min 0,000 mm 0,0 UV-I 113 W/m 13,2 C 18,6 C 8,0 km/h (2 Bft)
29/09/2023 18:06 18,6 C 20,6 C 17,2 C 16,7 C 16,7 C 71 % 0 lf 0 lf 23 cb 1 cb 2 cb 1021,8 hPa 0,0 mm 2,9 km/h (1 Bft) NO 313 0 min 0,000 mm 0,0 UV-I 114 W/m 13,2 C 18,6 C 6,4 km/h (2 Bft)
29/09/2023 18:04 18,6 C 20,0 C 17,2 C 16,7 C 16,7 C 71 % 0 lf 0 lf 23 cb 1 cb 2 cb 1021,8 hPa 0,0 mm 4,7 km/h (1 Bft) N 2 0 min 0,000 mm 0,0 UV-I 109 W/m 13,2 C 18,6 C 11,3 km/h (2 Bft)
29/09/2023 18:02 18,5 C 20,0 C 17,2 C 16,7 C 16,7 C 71 % 0 lf 0 lf 23 cb 1 cb 2 cb 1021,8 hPa 0,0 mm 3,4 km/h (1 Bft) N-NE 19 0 min 0,000 mm 0,0 UV-I 109 W/m 13,1 C 18,5 C 6,4 km/h (2 Bft)
29/09/2023 18:00 18,5 C 20,0 C 17,2 C 16,7 C 16,7 C 71 % 0 lf 0 lf 23 cb 1 cb 2 cb 1021,8 hPa 0,0 mm 4,1 km/h (1 Bft) N 11 0 min 0,152 mm 0,0 UV-I 113 W/m 13,1 C 18,5 C 8,0 km/h (2 Bft)
29/09/2023 17:58 18,5 C 19,4 C 17,2 C 16,7 C 16,7 C 71 % 0 lf 0 lf 23 cb 1 cb 2 cb 1021,8 hPa 0,0 mm 4,7 km/h (1 Bft) N 357 0 min 0,000 mm 0,0 UV-I 111 W/m 13,1 C 18,5 C 11,3 km/h (2 Bft)
29/09/2023 17:56 18,4 C 19,4 C 17,2 C 16,7 C 16,7 C 72 % 0 lf 0 lf 23 cb 1 cb 2 cb 1021,8 hPa 0,0 mm 4,2 km/h (1 Bft) N 4 0 min 0,000 mm 0,0 UV-I 104 W/m 13,3 C 18,4 C 11,3 km/h (2 Bft)
29/09/2023 17:54 18,4 C 18,9 C 17,2 C 16,7 C 16,7 C 71 % 0 lf 0 lf 23 cb 1 cb 2 cb 1021,7 hPa 0,0 mm 3,6 km/h (1 Bft) N 354 0 min 0,000 mm 0,0 UV-I 109 W/m 13,0 C 18,4 C 8,0 km/h (2 Bft)
29/09/2023 17:52 18,5 C 18,9 C 17,2 C 16,7 C 16,7 C 71 % 0 lf 0 lf 23 cb 1 cb 2 cb 1021,7 hPa 0,0 mm 1,8 km/h (1 Bft) N 4 2 min 0,000 mm 0,0 UV-I 192 W/m 13,1 C 18,5 C 4,8 km/h (1 Bft)
29/09/2023 17:50 18,6 C 18,9 C 17,2 C 16,7 C 16,7 C 70 % 0 lf 0 lf 23 cb 1 cb 2 cb 1021,6 hPa 0,0 mm 4,1 km/h (1 Bft) N 359 2 min 0,000 mm 0,0 UV-I 197 W/m 13,0 C 18,6 C 11,3 km/h (2 Bft)
29/09/2023 17:48 18,7 C 18,9 C 17,2 C 16,7 C 16,7 C 70 % 0 lf 0 lf 23 cb 1 cb 2 cb 1021,6 hPa 0,0 mm 2,8 km/h (1 Bft) N-NO 346 0 min 0,000 mm 0,0 UV-I 60 W/m 13,1 C 18,7 C 6,4 km/h (2 Bft)
29/09/2023 17:46 18,8 C 18,9 C 17,2 C 16,7 C 16,7 C 69 % 0 lf 0 lf 23 cb 1 cb 2 cb 1021,5 hPa 0,0 mm 6,3 km/h (2 Bft) N-NO 345 0 min 0,000 mm 0,0 UV-I 63 W/m 13,0 C 18,8 C 12,9 km/h (3 Bft)
29/09/2023 17:44 18,9 C 18,9 C 17,2 C 16,7 C 16,7 C 69 % 0 lf 0 lf 23 cb 1 cb 2 cb 1021,5 hPa 0,0 mm 7,2 km/h (2 Bft) O-NO 300 0 min 0,000 mm 0,5 UV-I 70 W/m 13,1 C 18,5 C 12,9 km/h (3 Bft)
29/09/2023 17:42 19,1 C 18,9 C 17,2 C 16,7 C 16,7 C 69 % 0 lf 0 lf 23 cb 1 cb 2 cb 1021,5 hPa 0,0 mm 6,5 km/h (2 Bft) N-NO 333 0 min 0,000 mm 0,5 UV-I 76 W/m 13,3 C 19,1 C 12,9 km/h (3 Bft)
29/09/2023 17:40 19,2 C 19,4 C 17,2 C 16,7 C 16,7 C 69 % 0 lf 0 lf 23 cb 1 cb 2 cb 1021,5 hPa 0,0 mm 4,0 km/h (1 Bft) NO 308 2 min 0,000 mm 0,5 UV-I 283 W/m 13,4 C 19,2 C 8,0 km/h (2 Bft)
29/09/2023 17:38 19,1 C 19,4 C 17,2 C 16,7 C 16,7 C 69 % 0 lf 0 lf 23 cb 1 cb 2 cb 1021,4 hPa 0,0 mm 6,9 km/h (2 Bft) O-NO 300 2 min 0,000 mm 0,6 UV-I 288 W/m 13,3 C 18,9 C 11,3 km/h (2 Bft)
29/09/2023 17:36 19,1 C 19,4 C 17,2 C 16,7 C 16,7 C 70 % 0 lf 0 lf 23 cb 1 cb 2 cb 1021,5 hPa 0,0 mm 4,5 km/h (1 Bft) O-NO 296 2 min 0,000 mm 0,5 UV-I 288 W/m 13,5 C 19,1 C 9,7 km/h (2 Bft)
29/09/2023 17:34 19,2 C 19,4 C 17,2 C 16,7 C 16,7 C 69 % 0 lf 0 lf 23 cb 1 cb 2 cb 1021,5 hPa 0,0 mm 5,2 km/h (1 Bft) N 357 0 min 0,000 mm 0,5 UV-I 120 W/m 13,4 C 19,2 C 11,3 km/h (2 Bft)
29/09/2023 17:32 19,5 C 19,4 C 17,2 C 16,7 C 16,7 C 68 % 0 lf 0 lf 23 cb 1 cb 2 cb 1021,5 hPa 0,0 mm 4,8 km/h (1 Bft) N 357 2 min 0,000 mm 0,0 UV-I 272 W/m 13,4 C 19,5 C 14,5 km/h (3 Bft)
29/09/2023 17:30 19,8 C 19,4 C 17,2 C 16,7 C 16,7 C 67 % 0 lf 0 lf 23 cb 1 cb 2 cb 1021,5 hPa 0,0 mm 3,1 km/h (1 Bft) N-NE 12 0 min 0,000 mm 0,0 UV-I 107 W/m 13,5 C 19,8 C 6,4 km/h (2 Bft)
29/09/2023 17:28 20,1 C 19,4 C 17,2 C 16,7 C 16,7 C 67 % 0 lf 0 lf 23 cb 1 cb 2 cb 1021,5 hPa 0,0 mm 7,1 km/h (2 Bft) N-NO 329 2 min 0,000 mm 0,5 UV-I 174 W/m 13,8 C 19,8 C 12,9 km/h (3 Bft)
29/09/2023 17:26 20,3 C 19,4 C 17,2 C 16,7 C 16,7 C 65 % 0 lf 0 lf 23 cb 1 cb 2 cb 1021,5 hPa 0,0 mm 3,8 km/h (1 Bft) O-NO 292 2 min 0,000 mm 0,5 UV-I 323 W/m 13,5 C 20,3 C 8,0 km/h (2 Bft)
29/09/2023 17:24 20,9 C 19,4 C 17,2 C 16,7 C 16,7 C 63 % 0 lf 0 lf 23 cb 1 cb 2 cb 1021,5 hPa 0,0 mm 8,2 km/h (2 Bft) NO 320 2 min 0,000 mm 0,6 UV-I 332 W/m 13,6 C 20,2 C 14,5 km/h (3 Bft)
29/09/2023 17:22 19,4 C 19,4 C 17,2 C 16,7 C 16,7 C 74 % 0 lf 0 lf 23 cb 1 cb 2 cb 1021,5 hPa 0,0 mm 7,4 km/h (2 Bft) NO 312 2 min 0,000 mm 0,7 UV-I 325 W/m 14,6 C 19,0 C 11,3 km/h (2 Bft)
29/09/2023 17:20 19,4 C 19,4 C 17,2 C 16,7 C 16,7 C 74 % 0 lf 0 lf 23 cb 1 cb 2 cb 1021,5 hPa 0,0 mm 4,8 km/h (1 Bft) O 263 2 min 0,000 mm 0,7 UV-I 343 W/m 14,6 C 19,4 C 8,0 km/h (2 Bft)
29/09/2023 17:18 19,4 C 19,4 C 17,2 C 16,7 C 16,7 C 74 % 0 lf 0 lf 23 cb 1 cb 2 cb 1021,5 hPa 0,0 mm 6,7 km/h (2 Bft) NO 304 2 min 0,000 mm 0,8 UV-I 353 W/m 14,6 C 19,3 C 12,9 km/h (3 Bft)
29/09/2023 17:16 19,4 C 19,4 C 17,2 C 16,7 C 16,7 C 74 % 0 lf 0 lf 23 cb 1 cb 2 cb 1021,5 hPa 0,0 mm 5,9 km/h (2 Bft) O-NO 295 2 min 0,000 mm 0,9 UV-I 362 W/m 14,6 C 19,4 C 12,9 km/h (3 Bft)
29/09/2023 17:14 19,4 C 19,4 C 17,2 C 16,7 C 16,7 C 74 % 0 lf 0 lf 23 cb 1 cb 2 cb 1021,6 hPa 0,0 mm 7,2 km/h (2 Bft) N-NO 330 2 min 0,000 mm 0,8 UV-I 338 W/m 14,6 C 19,1 C 14,5 km/h (3 Bft)
29/09/2023 17:12 19,4 C 19,4 C 17,2 C 16,7 C 16,7 C 74 % 0 lf 0 lf 23 cb 1 cb 2 cb 1021,6 hPa 0,0 mm 6,5 km/h (2 Bft) O-NO 299 2 min 0,000 mm 0,9 UV-I 327 W/m 14,6 C 19,4 C 12,9 km/h (3 Bft)
29/09/2023 17:10 19,3 C 19,4 C 17,2 C 16,7 C 16,7 C 75 % 0 lf 0 lf 23 cb 1 cb 2 cb 1021,5 hPa 0,0 mm 2,7 km/h (1 Bft) O-NO 290 2 min 0,000 mm 0,9 UV-I 315 W/m 14,8 C 19,3 C 11,3 km/h (2 Bft)
29/09/2023 17:08 19,2 C 19,4 C 17,2 C 16,7 C 16,7 C 74 % 0 lf 0 lf 23 cb 1 cb 2 cb 1021,6 hPa 0,0 mm 9,3 km/h (2 Bft) O-NO 282 2 min 0,000 mm 0,9 UV-I 318 W/m 14,4 C 18,0 C 16,1 km/h (3 Bft)
29/09/2023 17:06 19,2 C 19,4 C 17,2 C 16,7 C 16,7 C 75 % 0 lf 0 lf 23 cb 1 cb 2 cb 1021,5 hPa 0,0 mm 8,2 km/h (2 Bft) O-NO 286 2 min 0,000 mm 1,0 UV-I 320 W/m 14,7 C 18,4 C 12,9 km/h (3 Bft)
29/09/2023 17:04 19,2 C 18,9 C 17,2 C 16,7 C 16,7 C 75 % 0 lf 0 lf 23 cb 1 cb 2 cb 1021,5 hPa 0,0 mm 5,9 km/h (2 Bft) O 269 2 min 0,000 mm 1,0 UV-I 302 W/m 14,7 C 19,2 C 14,5 km/h (3 Bft)
29/09/2023 17:02 19,2 C 18,9 C 17,2 C 16,7 C 16,7 C 74 % 0 lf 0 lf 23 cb 1 cb 2 cb 1021,5 hPa 0,0 mm 9,0 km/h (2 Bft) O 275 2 min 0,000 mm 1,0 UV-I 311 W/m 14,4 C 18,1 C 17,7 km/h (3 Bft)
29/09/2023 17:00 19,2 C 19,4 C 17,2 C 16,7 C 16,7 C 75 % 0 lf 0 lf 23 cb 1 cb 2 cb 1021,4 hPa 0,0 mm 9,3 km/h (2 Bft) O-NO 293 2 min 0,178 mm 1,0 UV-I 295 W/m 14,7 C 18,0 C 14,5 km/h (3 Bft)
29/09/2023 16:58 19,1 C 19,4 C 17,2 C 16,7 C 16,7 C 75 % 0 lf 0 lf 23 cb 1 cb 2 cb 1021,5 hPa 0,0 mm 6,6 km/h (2 Bft) O 270 2 min 0,000 mm 1,0 UV-I 287 W/m 14,6 C 19,0 C 16,1 km/h (3 Bft)
29/09/2023 16:56 19,1 C 19,4 C 17,2 C 16,7 C 16,7 C 75 % 0 lf 0 lf 23 cb 1 cb 2 cb 1021,5 hPa 0,0 mm 4,4 km/h (1 Bft) O-SO 256 2 min 0,000 mm 1,0 UV-I 304 W/m 14,6 C 19,1 C 12,9 km/h (3 Bft)
29/09/2023 16:54 19,1 C 19,4 C 17,2 C 16,7 C 16,7 C 75 % 0 lf 0 lf 23 cb 1 cb 2 cb 1021,4 hPa 0,0 mm 4,1 km/h (1 Bft) O-NO 291 2 min 0,000 mm 1,0 UV-I 295 W/m 14,6 C 19,1 C 9,7 km/h (2 Bft)
29/09/2023 16:52 19,1 C 19,4 C 17,2 C 16,7 C 16,7 C 75 % 0 lf 0 lf 23 cb 1 cb 2 cb 1021,5 hPa 0,0 mm 5,5 km/h (1 Bft) O-NO 298 0 min 0,000 mm 1,0 UV-I 155 W/m 14,6 C 19,1 C 9,7 km/h (2 Bft)
29/09/2023 16:50 19,2 C 19,4 C 17,2 C 16,7 C 16,7 C 75 % 0 lf 0 lf 23 cb 1 cb 2 cb 1021,4 hPa 0,0 mm 5,8 km/h (2 Bft) NO 315 0 min 0,000 mm 1,0 UV-I 200 W/m 14,7 C 19,2 C 12,9 km/h (3 Bft)
29/09/2023 16:48 19,2 C 19,4 C 17,2 C 16,7 C 16,7 C 75 % 0 lf 0 lf 23 cb 1 cb 2 cb 1021,4 hPa 0,0 mm 7,4 km/h (2 Bft) O-NO 296 2 min 0,000 mm 1,0 UV-I 345 W/m 14,7 C 18,8 C 11,3 km/h (2 Bft)
29/09/2023 16:46 19,2 C 19,4 C 17,2 C 16,7 C 16,7 C 75 % 0 lf 0 lf 23 cb 1 cb 2 cb 1021,4 hPa 0,0 mm 10,6 km/h (2 Bft) N-NO 344 2 min 0,000 mm 1,2 UV-I 357 W/m 14,7 C 17,6 C 17,7 km/h (3 Bft)
29/09/2023 16:44 19,2 C 19,4 C 17,2 C 16,7 C 16,7 C 75 % 0 lf 0 lf 23 cb 1 cb 2 cb 1021,4 hPa 0,0 mm 10,1 km/h (2 Bft) O-NO 300 2 min 0,000 mm 1,2 UV-I 378 W/m 14,7 C 17,7 C 20,9 km/h (4 Bft)
29/09/2023 16:42 19,3 C 20,0 C 17,2 C 16,7 C 16,7 C 75 % 0 lf 0 lf 23 cb 1 cb 2 cb 1021,4 hPa 0,0 mm 8,9 km/h (2 Bft) NO 308 0 min 0,000 mm 0,9 UV-I 135 W/m 14,8 C 18,3 C 20,9 km/h (4 Bft)
29/09/2023 16:40 19,4 C 20,0 C 17,2 C 16,7 C 16,7 C 75 % 0 lf 0 lf 23 cb 1 cb 2 cb 1021,3 hPa 0,0 mm 6,2 km/h (2 Bft) O-NO 296 0 min 0,000 mm 0,8 UV-I 128 W/m 14,8 C 19,4 C 14,5 km/h (3 Bft)
29/09/2023 16:38 19,6 C 20,0 C 17,2 C 16,7 C 16,7 C 75 % 0 lf 0 lf 23 cb 1 cb 2 cb 1021,3 hPa 0,0 mm 5,7 km/h (1 Bft) O-NO 296 0 min 0,000 mm 0,8 UV-I 135 W/m 15,0 C 19,6 C 11,3 km/h (2 Bft)
29/09/2023 16:36 19,8 C 20,0 C 17,2 C 16,7 C 16,7 C 75 % 0 lf 0 lf 23 cb 1 cb 2 cb 1021,3 hPa 0,0 mm 7,3 km/h (2 Bft) N 1 0 min 0,000 mm 0,7 UV-I 153 W/m 15,2 C 19,4 C 14,5 km/h (3 Bft)
29/09/2023 16:34 19,8 C 20,0 C 17,2 C 16,7 C 16,7 C 75 % 0 lf 0 lf 23 cb 1 cb 2 cb 1021,2 hPa 0,0 mm 6,4 km/h (2 Bft) O-NO 289 2 min 0,000 mm 0,8 UV-I 464 W/m 15,2 C 19,8 C 11,3 km/h (2 Bft)
29/09/2023 16:32 19,8 C 20,0 C 17,2 C 16,7 C 16,7 C 76 % 0 lf 0 lf 23 cb 1 cb 2 cb 1021,2 hPa 0,0 mm 9,6 km/h (2 Bft) O-NO 300 2 min 0,000 mm 1,1 UV-I 508 W/m 15,4 C 18,6 C 20,9 km/h (4 Bft)
29/09/2023 16:30 19,7 C 20,0 C 17,2 C 16,7 C 16,7 C 76 % 0 lf 0 lf 23 cb 1 cb 2 cb 1021,2 hPa 0,0 mm 6,5 km/h (2 Bft) O-SO 256 2 min 0,000 mm 1,2 UV-I 533 W/m 15,3 C 19,7 C 11,3 km/h (2 Bft)
29/09/2023 16:28 19,5 C 20,0 C 17,2 C 16,7 C 16,7 C 76 % 0 lf 0 lf 23 cb 1 cb 2 cb 1021,1 hPa 0,0 mm 8,7 km/h (2 Bft) O-NO 289 2 min 0,000 mm 1,3 UV-I 563 W/m 15,2 C 18,6 C 17,7 km/h (3 Bft)
29/09/2023 16:26 19,2 C 20,0 C 17,2 C 16,7 C 16,7 C 76 % 0 lf 0 lf 23 cb 1 cb 2 cb 1021,1 hPa 0,0 mm 6,7 km/h (2 Bft) O-NO 290 2 min 0,000 mm 1,4 UV-I 587 W/m 14,9 C 19,1 C 12,9 km/h (3 Bft)
29/09/2023 16:24 19,1 C 19,4 C 17,2 C 16,7 C 16,7 C 76 % 0 lf 0 lf 23 cb 1 cb 2 cb 1021,2 hPa 0,0 mm 4,9 km/h (1 Bft) NO 306 2 min 0,000 mm 1,4 UV-I 448 W/m 14,8 C 19,1 C 9,7 km/h (2 Bft)
29/09/2023 16:22 19,0 C 19,4 C 17,2 C 16,7 C 16,7 C 76 % 0 lf 0 lf 23 cb 1 cb 2 cb 1021,2 hPa 0,0 mm 7,1 km/h (2 Bft) O 273 2 min 0,000 mm 1,3 UV-I 478 W/m 14,7 C 18,7 C 14,5 km/h (3 Bft)
29/09/2023 16:20 18,9 C 19,4 C 17,2 C 16,7 C 16,7 C 76 % 0 lf 0 lf 23 cb 1 cb 2 cb 1021,2 hPa 0,0 mm 4,6 km/h (1 Bft) O-NO 287 0 min 0,000 mm 1,3 UV-I 241 W/m 14,6 C 18,9 C 9,7 km/h (2 Bft)
29/09/2023 16:18 18,8 C 19,4 C 17,2 C 16,7 C 16,7 C 76 % 0 lf 0 lf 23 cb 1 cb 2 cb 1021,1 hPa 0,0 mm 4,9 km/h (1 Bft) O 279 2 min 0,000 mm 1,2 UV-I 274 W/m 14,5 C 18,8 C 16,1 km/h (3 Bft)
29/09/2023 16:16 18,6 C 18,9 C 17,2 C 16,7 C 16,7 C 76 % 0 lf 0 lf 23 cb 1 cb 2 cb 1021,0 hPa 0,0 mm 5,4 km/h (1 Bft) O 278 2 min 0,000 mm 1,2 UV-I 269 W/m 14,3 C 18,6 C 14,5 km/h (3 Bft)
29/09/2023 16:14 18,5 C 18,9 C 17,2 C 16,7 C 16,7 C 76 % 0 lf 0 lf 23 cb 1 cb 2 cb 1021,1 hPa 0,0 mm 6,4 km/h (2 Bft) O 264 2 min 0,000 mm 1,0 UV-I 269 W/m 14,2 C 18,5 C 12,9 km/h (3 Bft)
29/09/2023 16:12 18,4 C 18,9 C 17,2 C 16,7 C 16,7 C 76 % 0 lf 0 lf 23 cb 1 cb 2 cb 1021,1 hPa 0,0 mm 7,2 km/h (2 Bft) O 281 0 min 0,000 mm 0,8 UV-I 167 W/m 14,1 C 18,0 C 11,3 km/h (2 Bft)
29/09/2023 16:10 18,4 C 18,9 C 17,2 C 16,7 C 16,7 C 76 % 0 lf 0 lf 23 cb 1 cb 2 cb 1021,0 hPa 0,0 mm 6,3 km/h (2 Bft) O-NO 283 0 min 0,000 mm 0,8 UV-I 148 W/m 14,1 C 18,4 C 9,7 km/h (2 Bft)
29/09/2023 16:08 18,4 C 18,9 C 17,2 C 16,7 C 16,7 C 76 % 0 lf 0 lf 23 cb 1 cb 2 cb 1021,0 hPa 0,0 mm 10,0 km/h (2 Bft) O 261 0 min 0,000 mm 0,9 UV-I 146 W/m 14,1 C 16,9 C 16,1 km/h (3 Bft)
29/09/2023 16:06 18,4 C 18,9 C 17,2 C 16,7 C 16,7 C 76 % 0 lf 0 lf 23 cb 1 cb 2 cb 1020,9 hPa 0,0 mm 8,0 km/h (2 Bft) O 268 0 min 0,000 mm 1,0 UV-I 162 W/m 14,1 C 17,7 C 16,1 km/h (3 Bft)
29/09/2023 16:04 18,4 C 18,9 C 17,2 C 16,7 C 16,7 C 76 % 0 lf 0 lf 23 cb 1 cb 2 cb 1020,9 hPa 0,0 mm 9,8 km/h (2 Bft) NO 317 0 min 0,000 mm 1,1 UV-I 169 W/m 14,1 C 16,9 C 19,3 km/h (3 Bft)
29/09/2023 16:02 18,4 C 18,9 C 17,2 C 16,7 C 16,7 C 76 % 0 lf 0 lf 23 cb 1 cb 2 cb 1021,0 hPa 0,0 mm 6,5 km/h (2 Bft) O-NO 302 0 min 0,000 mm 1,1 UV-I 176 W/m 14,1 C 18,4 C 12,9 km/h (3 Bft)
29/09/2023 16:00 18,4 C 18,9 C 17,2 C 16,7 C 16,7 C 76 % 0 lf 0 lf 23 cb 1 cb 2 cb 1020,9 hPa 0,0 mm 7,1 km/h (2 Bft) O-NO 287 0 min 0,101 mm 1,1 UV-I 160 W/m 14,1 C 18,1 C 14,5 km/h (3 Bft)
29/09/2023 15:58 18,4 C 18,3 C 17,2 C 16,7 C 16,7 C 76 % 0 lf 0 lf 23 cb 1 cb 2 cb 1020,9 hPa 0,0 mm 6,1 km/h (2 Bft) NO 314 0 min 0,000 mm 1,0 UV-I 149 W/m 14,1 C 18,4 C 9,7 km/h (2 Bft)
29/09/2023 15:56 18,4 C 18,3 C 17,2 C 16,7 C 16,7 C 76 % 0 lf 0 lf 23 cb 1 cb 2 cb 1020,9 hPa 0,0 mm 6,2 km/h (2 Bft) O-NO 302 0 min 0,000 mm 0,5 UV-I 114 W/m 14,1 C 18,4 C 12,9 km/h (3 Bft)
29/09/2023 15:54 18,4 C 18,3 C 17,2 C 16,7 C 16,7 C 76 % 0 lf 0 lf 23 cb 1 cb 2 cb 1020,8 hPa 0,0 mm 5,7 km/h (1 Bft) NO 317 0 min 0,000 mm 0,5 UV-I 83 W/m 14,1 C 18,4 C 11,3 km/h (2 Bft)
29/09/2023 15:52 18,4 C 18,3 C 17,2 C 16,7 C 16,7 C 76 % 0 lf 0 lf 23 cb 1 cb 2 cb 1020,8 hPa 0,0 mm 4,4 km/h (1 Bft) O-NO 302 0 min 0,000 mm 0,5 UV-I 83 W/m 14,1 C 18,4 C 8,0 km/h (2 Bft)
29/09/2023 15:50 18,5 C 18,3 C 17,2 C 16,7 C 16,7 C 76 % 1 lf 1 lf 23 cb 1 cb 2 cb 1020,8 hPa 0,0 mm 6,8 km/h (2 Bft) O-NO 300 0 min 0,000 mm 0,5 UV-I 76 W/m 14,2 C 18,3 C 11,3 km/h (2 Bft)
29/09/2023 15:48 18,5 C 18,3 C 17,2 C 16,7 C 16,7 C 76 % 0 lf 0 lf 23 cb 1 cb 2 cb 1020,7 hPa 0,0 mm 6,1 km/h (2 Bft) N-NO 346 0 min 0,000 mm 0,5 UV-I 84 W/m 14,2 C 18,5 C 14,5 km/h (3 Bft)
29/09/2023 15:46 18,5 C 18,9 C 17,2 C 16,7 C 16,7 C 76 % 0 lf 0 lf 23 cb 1 cb 2 cb 1020,7 hPa 0,0 mm 9,0 km/h (2 Bft) O-NO 288 0 min 0,000 mm 0,6 UV-I 98 W/m 14,2 C 17,4 C 16,1 km/h (3 Bft)
29/09/2023 15:44 18,6 C 18,9 C 17,2 C 16,7 C 16,7 C 76 % 0 lf 0 lf 23 cb 1 cb 2 cb 1020,7 hPa 0,0 mm 6,5 km/h (2 Bft) O-NO 300 0 min 0,000 mm 0,6 UV-I 98 W/m 14,3 C 18,6 C 16,1 km/h (3 Bft)
29/09/2023 15:42 18,6 C 18,9 C 17,2 C 16,7 C 16,7 C 76 % 0 lf 0 lf 23 cb 1 cb 2 cb 1020,6 hPa 0,0 mm 8,6 km/h (2 Bft) NO 305 0 min 0,000 mm 0,6 UV-I 91 W/m 14,3 C 17,6 C 16,1 km/h (3 Bft)
29/09/2023 15:40 18,6 C 18,9 C 17,2 C 16,7 C 16,7 C 76 % 0 lf 0 lf 23 cb 1 cb 2 cb 1020,6 hPa 0,0 mm 3,1 km/h (1 Bft) O-NO 290 0 min 0,000 mm 0,6 UV-I 93 W/m 14,3 C 18,6 C 8,0 km/h (2 Bft)
29/09/2023 15:38 18,5 C 18,9 C 17,2 C 16,7 C 16,7 C 76 % 0 lf 0 lf 23 cb 1 cb 2 cb 1020,6 hPa 0,0 mm 5,4 km/h (1 Bft) O-NO 302 0 min 0,000 mm 0,8 UV-I 111 W/m 14,2 C 18,5 C 11,3 km/h (2 Bft)
29/09/2023 15:36 18,5 C 18,9 C 17,2 C 16,7 C 16,7 C 76 % 0 lf 0 lf 23 cb 1 cb 2 cb 1020,5 hPa 0,0 mm 7,9 km/h (2 Bft) O-NO 296 0 min 0,000 mm 0,7 UV-I 104 W/m 14,2 C 17,8 C 14,5 km/h (3 Bft)
29/09/2023 15:34 18,6 C 18,9 C 17,2 C 16,7 C 16,7 C 76 % 0 lf 0 lf 23 cb 1 cb 2 cb 1020,5 hPa 0,0 mm 5,1 km/h (1 Bft) NO 318 0 min 0,000 mm 0,7 UV-I 102 W/m 14,3 C 18,6 C 12,9 km/h (3 Bft)
29/09/2023 15:32 18,5 C 18,9 C 17,2 C 16,7 C 16,7 C 76 % 0 lf 0 lf 23 cb 1 cb 2 cb 1020,4 hPa 0,0 mm 5,8 km/h (2 Bft) O-NO 303 0 min 0,000 mm 0,8 UV-I 125 W/m 14,2 C 18,5 C 12,9 km/h (3 Bft)
29/09/2023 15:30 18,5 C 18,9 C 17,2 C 16,7 C 16,7 C 76 % 0 lf 0 lf 23 cb 1 cb 2 cb 1020,4 hPa 0,0 mm 4,1 km/h (1 Bft) NO 311 0 min 0,000 mm 0,8 UV-I 130 W/m 14,2 C 18,5 C 9,7 km/h (2 Bft)
29/09/2023 15:28 18,5 C 18,9 C 17,2 C 16,7 C 16,7 C 76 % 0 lf 0 lf 23 cb 1 cb 2 cb 1020,4 hPa 0,0 mm 5,7 km/h (1 Bft) NO 306 0 min 0,000 mm 0,8 UV-I 120 W/m 14,2 C 18,5 C 11,3 km/h (2 Bft)
29/09/2023 15:26 18,6 C 18,9 C 17,2 C 16,7 C 16,7 C 76 % 0 lf 0 lf 23 cb 1 cb 2 cb 1020,4 hPa 0,0 mm 7,3 km/h (2 Bft) O 273 0 min 0,000 mm 0,0 UV-I 67 W/m 14,3 C 18,2 C 14,5 km/h (3 Bft)
29/09/2023 15:24 18,7 C 18,9 C 17,2 C 16,7 C 16,7 C 76 % 0 lf 0 lf 23 cb 1 cb 2 cb 1020,4 hPa 0,0 mm 3,4 km/h (1 Bft) O-NO 292 0 min 0,000 mm 0,0 UV-I 67 W/m 14,4 C 18,7 C 12,9 km/h (3 Bft)
29/09/2023 15:22 18,7 C 19,4 C 17,2 C 16,7 C 16,7 C 76 % 0 lf 0 lf 23 cb 1 cb 2 cb 1020,3 hPa 0,0 mm 4,0 km/h (1 Bft) O-NO 300 0 min 0,000 mm 0,5 UV-I 88 W/m 14,4 C 18,7 C 6,4 km/h (2 Bft)
29/09/2023 15:20 18,7 C 19,4 C 17,2 C 16,7 C 16,7 C 76 % 0 lf 0 lf 23 cb 1 cb 2 cb 1020,3 hPa 0,0 mm 5,3 km/h (1 Bft) O-NO 294 0 min 0,000 mm 1,0 UV-I 158 W/m 14,4 C 18,7 C 9,7 km/h (2 Bft)
29/09/2023 15:18 18,7 C 19,4 C 17,2 C 16,7 C 16,7 C 76 % 0 lf 0 lf 23 cb 1 cb 2 cb 1020,3 hPa 0,0 mm 4,3 km/h (1 Bft) O-NO 294 0 min 0,000 mm 1,3 UV-I 188 W/m 14,4 C 18,7 C 6,4 km/h (2 Bft)
29/09/2023 15:16 18,7 C 18,9 C 17,2 C 16,7 C 16,7 C 76 % 0 lf 0 lf 23 cb 1 cb 2 cb 1020,3 hPa 0,0 mm 2,4 km/h (1 Bft) O-NO 300 0 min 0,000 mm 1,4 UV-I 209 W/m 14,4 C 18,7 C 8,0 km/h (2 Bft)
29/09/2023 15:14 18,7 C 18,9 C 17,2 C 16,7 C 16,7 C 76 % 0 lf 0 lf 23 cb 1 cb 2 cb 1020,2 hPa 0,0 mm 5,1 km/h (1 Bft) NO 318 0 min 0,000 mm 1,3 UV-I 183 W/m 14,4 C 18,7 C 9,7 km/h (2 Bft)
29/09/2023 15:12 18,6 C 18,9 C 17,2 C 16,7 C 16,7 C 76 % 0 lf 0 lf 23 cb 1 cb 2 cb 1020,2 hPa 0,0 mm 4,2 km/h (1 Bft) N 353 0 min 0,000 mm 1,5 UV-I 199 W/m 14,3 C 18,6 C 9,7 km/h (2 Bft)
29/09/2023 15:10 18,6 C 18,9 C 17,2 C 16,7 C 16,7 C 76 % 0 lf 0 lf 23 cb 1 cb 2 cb 1020,2 hPa 0,0 mm 6,4 km/h (2 Bft) N 3 0 min 0,000 mm 1,6 UV-I 237 W/m 14,3 C 18,6 C 12,9 km/h (3 Bft)
29/09/2023 15:08 18,5 C 18,9 C 17,2 C 16,7 C 16,7 C 76 % 0 lf 0 lf 23 cb 1 cb 2 cb 1020,1 hPa 0,0 mm 4,1 km/h (1 Bft) O-NO 302 0 min 0,000 mm 1,7 UV-I 234 W/m 14,2 C 18,5 C 12,9 km/h (3 Bft)
29/09/2023 15:06 18,3 C 18,9 C 17,2 C 16,7 C 16,7 C 76 % 0 lf 0 lf 23 cb 1 cb 2 cb 1020,1 hPa 0,0 mm 5,7 km/h (1 Bft) NO 317 0 min 0,000 mm 1,7 UV-I 244 W/m 14,0 C 18,3 C 12,9 km/h (3 Bft)
29/09/2023 15:04 18,2 C 18,3 C 17,2 C 16,7 C 16,7 C 76 % 0 lf 0 lf 23 cb 1 cb 2 cb 1020,1 hPa 0,0 mm 6,1 km/h (2 Bft) N-NE 12 0 min 0,000 mm 1,5 UV-I 239 W/m 13,9 C 18,2 C 12,9 km/h (3 Bft)
29/09/2023 15:02 18,2 C 18,3 C 17,2 C 16,7 C 16,7 C 76 % 0 lf 0 lf 23 cb 1 cb 2 cb 1020,0 hPa 0,0 mm 7,9 km/h (2 Bft) N-NE 17 0 min 0,000 mm 1,0 UV-I 171 W/m 13,9 C 17,5 C 14,5 km/h (3 Bft)
29/09/2023 15:00 18,2 C 18,3 C 17,2 C 16,7 C 16,7 C 76 % 0 lf 0 lf 23 cb 1 cb 2 cb 1020,1 hPa 0,0 mm 7,9 km/h (2 Bft) O-NO 291 0 min 0,102 mm 0,7 UV-I 123 W/m 13,9 C 17,5 C 14,5 km/h (3 Bft)
_ Min-Heure 07:28 06:40 15:00 15:00 15:00 14:00 15:00 15:00 15:00 15:00 15:00 15:02 - 19:26 - - - - - - 07:28 07:28 19:26
Minimum _ 8,8 C 8,3 C 17,2 C 16,7 C 16,7 C 62 % 0 lf 0 lf 23 cb 1 cb 2 cb 1020,0 hPa - 0,0 km/h (0 Bft) - - - - - - 7,6 C 8,8 C 0,0 km/h (0 Bft)
_ Max-Heure 17:24 18:06 15:00 15:00 15:00 07:46 05:58 03:26 22:44 15:00 15:00 11:20 15:00 16:46 - - 16:14 13:00 12:58 14:00 16:32 17:26 16:32
Maximum _ 21,2 C 20,6 C 17,2 C 16,7 C 16,7 C 93 % 15 lf 15 lf 24 cb 1 cb 2 cb 1027,1 hPa 0,0 mm 10,6 km/h
N-NO (2 Bft)
- - 2 min 0,305 mm 3,1 UV-I 615 W/m 15,4 C 20,3 C 20,9 km/h
O (4 Bft)
Moyenne _ 14,3 C 13,7 C 17,2 C 16,7 C 16,7 C 83 % 7 lf 7 lf 24 cb 1 cb 2 cb 1024,3 hPa #0,0 mm 3,2 km/h (1 Bft) O - #4:52 h #1,041 mm 2,0 UV-I 315 W/m 11,4 C 14,2 C 6,3 km/h (2 Bft)